<?xml version='1.0' encoding='UTF-8'?><gpx version="1.1" creator="JPX - https://github.com/jenetics/jpx" xmlns="http://www.topografix.com/GPX/1/1"><trk><trkseg><trkpt lat="43.8517157" lon="11.1820798"><ele>78.0</ele><time>2026-04-21T15:08:05.144Z</time></trkpt><trkpt lat="43.8516982" lon="11.1822268"><ele>78.0</ele><time>2026-04-21T15:08:07.136Z</time></trkpt><trkpt lat="43.8516898" lon="11.182315"><ele>78.0</ele><time>2026-04-21T15:08:08.132Z</time></trkpt><trkpt lat="43.851674" lon="11.1824026"><ele>78.0</ele><time>2026-04-21T15:08:09.14Z</time></trkpt><trkpt lat="43.8516494" lon="11.182546"><ele>78.0</ele><time>2026-04-21T15:08:11.14Z</time></trkpt><trkpt lat="43.8516372" lon="11.1826756"><ele>78.0</ele><time>2026-04-21T15:08:13.139Z</time></trkpt><trkpt lat="43.8516472" lon="11.1827865"><ele>78.8</ele><time>2026-04-21T15:08:15.138Z</time></trkpt><trkpt lat="43.851648" lon="11.1829119"><ele>79.6</ele><time>2026-04-21T15:08:17.136Z</time></trkpt><trkpt lat="43.8516348" lon="11.1830469"><ele>80.39999999999999</ele><time>2026-04-21T15:08:19.136Z</time></trkpt><trkpt lat="43.8516287" lon="11.183178"><ele>81.19999999999999</ele><time>2026-04-21T15:08:21.136Z</time></trkpt><trkpt lat="43.8516255" lon="11.1833032"><ele>82.0</ele><time>2026-04-21T15:08:23.137Z</time></trkpt><trkpt lat="43.8516242" lon="11.1834331"><ele>82.19999999999999</ele><time>2026-04-21T15:08:25.135Z</time></trkpt><trkpt lat="43.8516293" lon="11.1835757"><ele>82.4</ele><time>2026-04-21T15:08:27.134Z</time></trkpt><trkpt lat="43.8516385" lon="11.1837341"><ele>82.6</ele><time>2026-04-21T15:08:29.129Z</time></trkpt><trkpt lat="43.8516377" lon="11.1838236"><ele>82.80000000000001</ele><time>2026-04-21T15:08:30.13Z</time></trkpt><trkpt lat="43.8516389" lon="11.1839131"><ele>83.0</ele><time>2026-04-21T15:08:31.14Z</time></trkpt><trkpt lat="43.8516399" lon="11.1840794"><ele>83.0</ele><time>2026-04-21T15:08:33.141Z</time></trkpt><trkpt lat="43.8516435" lon="11.1842356"><ele>83.0</ele><time>2026-04-21T15:08:35.144Z</time></trkpt><trkpt lat="43.8516102" lon="11.1843704"><ele>83.0</ele><time>2026-04-21T15:08:37.141Z</time></trkpt><trkpt lat="43.85157" lon="11.184515"><ele>83.0</ele><time>2026-04-21T15:08:39.145Z</time></trkpt><trkpt lat="43.851549" lon="11.1846061"><ele>83.0</ele><time>2026-04-21T15:08:40.148Z</time></trkpt><trkpt lat="43.8515135" lon="11.1846854"><ele>83.0</ele><time>2026-04-21T15:08:41.139Z</time></trkpt><trkpt lat="43.8514266" lon="11.1847851"><ele>83.0</ele><time>2026-04-21T15:08:43.148Z</time></trkpt><trkpt lat="43.851383" lon="11.1848848"><ele>83.0</ele><time>2026-04-21T15:08:45.144Z</time></trkpt><trkpt lat="43.8513148" lon="11.1849268"><ele>83.0</ele><time>2026-04-21T15:08:49.147Z</time></trkpt><trkpt lat="43.851256" lon="11.1848328"><ele>83.0</ele><time>2026-04-21T15:08:51.145Z</time></trkpt><trkpt lat="43.8511789" lon="11.1846885"><ele>83.0</ele><time>2026-04-21T15:08:53.151Z</time></trkpt><trkpt lat="43.8511225" lon="11.184618"><ele>83.0</ele><time>2026-04-21T15:08:54.145Z</time></trkpt><trkpt lat="43.8510709" lon="11.1845418"><ele>83.0</ele><time>2026-04-21T15:08:55.168Z</time></trkpt><trkpt lat="43.8510285" lon="11.1844626"><ele>83.0</ele><time>2026-04-21T15:08:56.142Z</time></trkpt><trkpt lat="43.8509366" lon="11.1843718"><ele>83.0</ele><time>2026-04-21T15:08:58.13Z</time></trkpt><trkpt lat="43.8508399" lon="11.1844444"><ele>83.0</ele><time>2026-04-21T15:09:00.028Z</time></trkpt><trkpt lat="43.8507957" lon="11.1845171"><ele>82.0</ele><time>2026-04-21T15:09:00.948Z</time></trkpt><trkpt lat="43.8507369" lon="11.1845944"><ele>81.0</ele><time>2026-04-21T15:09:01.952Z</time></trkpt><trkpt lat="43.8506744" lon="11.1846664"><ele>80.0</ele><time>2026-04-21T15:09:02.962Z</time></trkpt><trkpt lat="43.8506222" lon="11.1847484"><ele>79.0</ele><time>2026-04-21T15:09:03.956Z</time></trkpt><trkpt lat="43.8505586" lon="11.1848259"><ele>78.0</ele><time>2026-04-21T15:09:05.029Z</time></trkpt><trkpt lat="43.8505063" lon="11.1848937"><ele>77.0</ele><time>2026-04-21T15:09:06.036Z</time></trkpt><trkpt lat="43.8504315" lon="11.1849708"><ele>77.0</ele><time>2026-04-21T15:09:07.953Z</time></trkpt><trkpt lat="43.850393" lon="11.1850525"><ele>77.0</ele><time>2026-04-21T15:09:14.949Z</time></trkpt><trkpt lat="43.850432" lon="11.185125"><ele>77.0</ele><time>2026-04-21T15:09:17.028Z</time></trkpt><trkpt lat="43.8505081" lon="11.1852122"><ele>77.0</ele><time>2026-04-21T15:09:18.953Z</time></trkpt><trkpt lat="43.8505964" lon="11.1853335"><ele>77.0</ele><time>2026-04-21T15:09:20.955Z</time></trkpt><trkpt lat="43.8506404" lon="11.1854136"><ele>77.0</ele><time>2026-04-21T15:09:21.958Z</time></trkpt><trkpt lat="43.8506894" lon="11.18549"><ele>77.0</ele><time>2026-04-21T15:09:22.958Z</time></trkpt><trkpt lat="43.8507361" lon="11.1855648"><ele>77.0</ele><time>2026-04-21T15:09:23.963Z</time></trkpt><trkpt lat="43.8507774" lon="11.185652"><ele>77.0</ele><time>2026-04-21T15:09:24.975Z</time></trkpt><trkpt lat="43.8508213" lon="11.1857396"><ele>77.0</ele><time>2026-04-21T15:09:25.954Z</time></trkpt><trkpt lat="43.8508645" lon="11.185837"><ele>77.0</ele><time>2026-04-21T15:09:27.03Z</time></trkpt><trkpt lat="43.8509077" lon="11.1859407"><ele>77.0</ele><time>2026-04-21T15:09:27.966Z</time></trkpt><trkpt lat="43.8509521" lon="11.1860535"><ele>79.2</ele><time>2026-04-21T15:09:28.946Z</time></trkpt><trkpt lat="43.8510054" lon="11.1861607"><ele>81.4</ele><time>2026-04-21T15:09:29.964Z</time></trkpt><trkpt lat="43.8510596" lon="11.1862681"><ele>83.60000000000001</ele><time>2026-04-21T15:09:30.953Z</time></trkpt><trkpt lat="43.8511116" lon="11.1863768"><ele>85.80000000000001</ele><time>2026-04-21T15:09:31.96Z</time></trkpt><trkpt lat="43.851169" lon="11.186495"><ele>88.0</ele><time>2026-04-21T15:09:32.962Z</time></trkpt><trkpt lat="43.8512266" lon="11.1866191"><ele>89.0</ele><time>2026-04-21T15:09:33.965Z</time></trkpt><trkpt lat="43.8512777" lon="11.1867415"><ele>90.0</ele><time>2026-04-21T15:09:34.969Z</time></trkpt><trkpt lat="43.8513289" lon="11.1868678"><ele>91.0</ele><time>2026-04-21T15:09:35.98Z</time></trkpt><trkpt lat="43.8513849" lon="11.1869927"><ele>92.0</ele><time>2026-04-21T15:09:36.959Z</time></trkpt><trkpt lat="43.8514461" lon="11.1871197"><ele>93.0</ele><time>2026-04-21T15:09:37.963Z</time></trkpt><trkpt lat="43.8515096" lon="11.1872521"><ele>94.2</ele><time>2026-04-21T15:09:38.96Z</time></trkpt><trkpt lat="43.8515685" lon="11.1873867"><ele>95.4</ele><time>2026-04-21T15:09:39.967Z</time></trkpt><trkpt lat="43.8516237" lon="11.1875115"><ele>96.60000000000001</ele><time>2026-04-21T15:09:40.961Z</time></trkpt><trkpt lat="43.8516692" lon="11.1876231"><ele>97.80000000000001</ele><time>2026-04-21T15:09:42.035Z</time></trkpt><trkpt lat="43.8516841" lon="11.187721"><ele>99.0</ele><time>2026-04-21T15:09:42.962Z</time></trkpt><trkpt lat="43.8516075" lon="11.1878669"><ele>99.0</ele><time>2026-04-21T15:09:44.957Z</time></trkpt><trkpt lat="43.851538" lon="11.187866"><ele>99.0</ele><time>2026-04-21T15:09:45.958Z</time></trkpt><trkpt lat="43.8514726" lon="11.1878416"><ele>99.0</ele><time>2026-04-21T15:09:46.959Z</time></trkpt><trkpt lat="43.8514105" lon="11.187794"><ele>99.0</ele><time>2026-04-21T15:09:47.985Z</time></trkpt><trkpt lat="43.8513362" lon="11.1877364"><ele>99.0</ele><time>2026-04-21T15:09:49.03Z</time></trkpt><trkpt lat="43.851273" lon="11.1876692"><ele>99.0</ele><time>2026-04-21T15:09:49.949Z</time></trkpt><trkpt lat="43.8512101" lon="11.1876003"><ele>99.0</ele><time>2026-04-21T15:09:51.035Z</time></trkpt><trkpt lat="43.8511313" lon="11.1875455"><ele>99.0</ele><time>2026-04-21T15:09:52.03Z</time></trkpt><trkpt lat="43.8510524" lon="11.1874819"><ele>99.0</ele><time>2026-04-21T15:09:52.956Z</time></trkpt><trkpt lat="43.8509697" lon="11.1873981"><ele>99.0</ele><time>2026-04-21T15:09:53.957Z</time></trkpt><trkpt lat="43.8508821" lon="11.1873252"><ele>99.0</ele><time>2026-04-21T15:09:54.96Z</time></trkpt><trkpt lat="43.8507945" lon="11.1872521"><ele>100.0</ele><time>2026-04-21T15:09:55.983Z</time></trkpt><trkpt lat="43.8507029" lon="11.1871827"><ele>101.0</ele><time>2026-04-21T15:09:57.028Z</time></trkpt><trkpt lat="43.8506112" lon="11.187105"><ele>102.0</ele><time>2026-04-21T15:09:57.963Z</time></trkpt><trkpt lat="43.85053" lon="11.1870185"><ele>103.0</ele><time>2026-04-21T15:09:58.962Z</time></trkpt><trkpt lat="43.8504545" lon="11.1869287"><ele>104.0</ele><time>2026-04-21T15:09:59.963Z</time></trkpt><trkpt lat="43.8503796" lon="11.1868408"><ele>104.0</ele><time>2026-04-21T15:10:00.968Z</time></trkpt><trkpt lat="43.850302" lon="11.1867548"><ele>104.0</ele><time>2026-04-21T15:10:01.964Z</time></trkpt><trkpt lat="43.8502203" lon="11.1866674"><ele>104.0</ele><time>2026-04-21T15:10:02.953Z</time></trkpt><trkpt lat="43.8501299" lon="11.1865984"><ele>104.0</ele><time>2026-04-21T15:10:03.965Z</time></trkpt><trkpt lat="43.8500294" lon="11.1865648"><ele>104.0</ele><time>2026-04-21T15:10:04.969Z</time></trkpt><trkpt lat="43.8499209" lon="11.1865741"><ele>107.4</ele><time>2026-04-21T15:10:06.026Z</time></trkpt><trkpt lat="43.8498179" lon="11.1866087"><ele>110.80000000000001</ele><time>2026-04-21T15:10:07.046Z</time></trkpt><trkpt lat="43.8497205" lon="11.186649"><ele>114.19999999999999</ele><time>2026-04-21T15:10:07.963Z</time></trkpt><trkpt lat="43.8496322" lon="11.1866986"><ele>117.6</ele><time>2026-04-21T15:10:08.972Z</time></trkpt><trkpt lat="43.8495391" lon="11.1867502"><ele>121.0</ele><time>2026-04-21T15:10:09.96Z</time></trkpt><trkpt lat="43.8494408" lon="11.186814"><ele>121.0</ele><time>2026-04-21T15:10:10.967Z</time></trkpt><trkpt lat="43.8493526" lon="11.1868921"><ele>121.0</ele><time>2026-04-21T15:10:11.967Z</time></trkpt><trkpt lat="43.8492649" lon="11.1869741"><ele>121.0</ele><time>2026-04-21T15:10:12.971Z</time></trkpt><trkpt lat="43.8491861" lon="11.1870639"><ele>121.0</ele><time>2026-04-21T15:10:14.027Z</time></trkpt><trkpt lat="43.8491159" lon="11.187153"><ele>121.0</ele><time>2026-04-21T15:10:14.953Z</time></trkpt><trkpt lat="43.8490465" lon="11.1872445"><ele>124.00000000000001</ele><time>2026-04-21T15:10:16.029Z</time></trkpt><trkpt lat="43.8489902" lon="11.1873623"><ele>127.0</ele><time>2026-04-21T15:10:16.999Z</time></trkpt><trkpt lat="43.8489528" lon="11.187493"><ele>130.0</ele><time>2026-04-21T15:10:17.953Z</time></trkpt><trkpt lat="43.8489177" lon="11.1875803"><ele>133.0</ele><time>2026-04-21T15:10:18.964Z</time></trkpt><trkpt lat="43.8489803" lon="11.1876184"><ele>136.0</ele><time>2026-04-21T15:10:21.949Z</time></trkpt><trkpt lat="43.849049" lon="11.1875617"><ele>139.0</ele><time>2026-04-21T15:10:23.96Z</time></trkpt><trkpt lat="43.8491313" lon="11.1875365"><ele>139.0</ele><time>2026-04-21T15:10:26.028Z</time></trkpt><trkpt lat="43.8493128" lon="11.1875861"><ele>139.0</ele><time>2026-04-21T15:10:28.956Z</time></trkpt><trkpt lat="43.849419" lon="11.1876548"><ele>139.0</ele><time>2026-04-21T15:10:30.955Z</time></trkpt><trkpt lat="43.8494774" lon="11.1877154"><ele>139.0</ele><time>2026-04-21T15:10:31.959Z</time></trkpt><trkpt lat="43.8495348" lon="11.1877632"><ele>139.0</ele><time>2026-04-21T15:10:32.96Z</time></trkpt><trkpt lat="43.8496407" lon="11.1878484"><ele>139.0</ele><time>2026-04-21T15:10:35.028Z</time></trkpt><trkpt lat="43.8497331" lon="11.1879344"><ele>139.0</ele><time>2026-04-21T15:10:37.035Z</time></trkpt><trkpt lat="43.8497842" lon="11.1880023"><ele>139.0</ele><time>2026-04-21T15:10:37.955Z</time></trkpt><trkpt lat="43.849792" lon="11.1881426"><ele>139.0</ele><time>2026-04-21T15:10:39.956Z</time></trkpt><trkpt lat="43.8497513" lon="11.1882115"><ele>139.0</ele><time>2026-04-21T15:10:40.955Z</time></trkpt><trkpt lat="43.8497094" lon="11.188293"><ele>139.0</ele><time>2026-04-21T15:10:41.968Z</time></trkpt><trkpt lat="43.8496634" lon="11.1883798"><ele>143.8</ele><time>2026-04-21T15:10:42.954Z</time></trkpt><trkpt lat="43.8496077" lon="11.1884696"><ele>148.60000000000002</ele><time>2026-04-21T15:10:43.954Z</time></trkpt><trkpt lat="43.8495486" lon="11.1885432"><ele>153.4</ele><time>2026-04-21T15:10:44.956Z</time></trkpt><trkpt lat="43.8494824" lon="11.1886224"><ele>158.20000000000002</ele><time>2026-04-21T15:10:45.96Z</time></trkpt><trkpt lat="43.8494223" lon="11.1887246"><ele>163.0</ele><time>2026-04-21T15:10:46.962Z</time></trkpt><trkpt lat="43.8493516" lon="11.1888366"><ele>161.0</ele><time>2026-04-21T15:10:47.953Z</time></trkpt><trkpt lat="43.849285" lon="11.1889485"><ele>159.0</ele><time>2026-04-21T15:10:48.957Z</time></trkpt><trkpt lat="43.849164" lon="11.1890316"><ele>157.0</ele><time>2026-04-21T15:10:50.034Z</time></trkpt><trkpt lat="43.8490964" lon="11.1891459"><ele>155.0</ele><time>2026-04-21T15:10:50.961Z</time></trkpt><trkpt lat="43.8490005" lon="11.1892715"><ele>159.75</ele><time>2026-04-21T15:10:52.032Z</time></trkpt><trkpt lat="43.8489197" lon="11.1894009"><ele>164.5</ele><time>2026-04-21T15:10:52.952Z</time></trkpt><trkpt lat="43.8488374" lon="11.1895257"><ele>169.25</ele><time>2026-04-21T15:10:53.958Z</time></trkpt><trkpt lat="43.8487318" lon="11.1896657"><ele>174.0</ele><time>2026-04-21T15:10:54.954Z</time></trkpt><trkpt lat="43.8486477" lon="11.1897938"><ele>177.6</ele><time>2026-04-21T15:10:55.95Z</time></trkpt><trkpt lat="43.8485888" lon="11.1899152"><ele>181.2</ele><time>2026-04-21T15:10:56.958Z</time></trkpt><trkpt lat="43.8485544" lon="11.1900375"><ele>184.79999999999998</ele><time>2026-04-21T15:10:57.961Z</time></trkpt><trkpt lat="43.848535" lon="11.1901672"><ele>188.39999999999998</ele><time>2026-04-21T15:10:58.98Z</time></trkpt><trkpt lat="43.8485208" lon="11.190295"><ele>192.0</ele><time>2026-04-21T15:10:59.971Z</time></trkpt><trkpt lat="43.8485094" lon="11.1904173"><ele>192.0</ele><time>2026-04-21T15:11:00.954Z</time></trkpt><trkpt lat="43.8484972" lon="11.1905369"><ele>192.0</ele><time>2026-04-21T15:11:01.945Z</time></trkpt><trkpt lat="43.8484902" lon="11.190665"><ele>192.0</ele><time>2026-04-21T15:11:02.959Z</time></trkpt><trkpt lat="43.8484751" lon="11.1907871"><ele>192.0</ele><time>2026-04-21T15:11:03.955Z</time></trkpt><trkpt lat="43.8484601" lon="11.1909057"><ele>192.0</ele><time>2026-04-21T15:11:04.956Z</time></trkpt><trkpt lat="43.8484384" lon="11.1909986"><ele>192.0</ele><time>2026-04-21T15:11:05.948Z</time></trkpt><trkpt lat="43.8484184" lon="11.191153"><ele>191.0</ele><time>2026-04-21T15:11:07.949Z</time></trkpt><trkpt lat="43.8483903" lon="11.1913206"><ele>190.0</ele><time>2026-04-21T15:11:09.953Z</time></trkpt><trkpt lat="43.8483778" lon="11.1914306"><ele>189.0</ele><time>2026-04-21T15:11:10.954Z</time></trkpt><trkpt lat="43.8483652" lon="11.1915572"><ele>188.0</ele><time>2026-04-21T15:11:11.959Z</time></trkpt><trkpt lat="43.8483541" lon="11.1916772"><ele>187.0</ele><time>2026-04-21T15:11:12.954Z</time></trkpt><trkpt lat="43.848345" lon="11.1917902"><ele>186.0</ele><time>2026-04-21T15:11:13.955Z</time></trkpt><trkpt lat="43.8483372" lon="11.1919024"><ele>185.0</ele><time>2026-04-21T15:11:15.026Z</time></trkpt><trkpt lat="43.8483371" lon="11.1920091"><ele>184.0</ele><time>2026-04-21T15:11:15.984Z</time></trkpt><trkpt lat="43.8483522" lon="11.1921181"><ele>183.0</ele><time>2026-04-21T15:11:16.965Z</time></trkpt><trkpt lat="43.8483702" lon="11.1922359"><ele>182.0</ele><time>2026-04-21T15:11:17.955Z</time></trkpt><trkpt lat="43.8483883" lon="11.1923657"><ele>181.0</ele><time>2026-04-21T15:11:19.033Z</time></trkpt><trkpt lat="43.8484165" lon="11.1925039"><ele>179.20000000000002</ele><time>2026-04-21T15:11:19.947Z</time></trkpt><trkpt lat="43.8484463" lon="11.1926507"><ele>177.4</ele><time>2026-04-21T15:11:20.951Z</time></trkpt><trkpt lat="43.8484758" lon="11.1927799"><ele>175.6</ele><time>2026-04-21T15:11:22.022Z</time></trkpt><trkpt lat="43.8485035" lon="11.1929012"><ele>173.8</ele><time>2026-04-21T15:11:22.946Z</time></trkpt><trkpt lat="43.8485366" lon="11.1930199"><ele>172.0</ele><time>2026-04-21T15:11:23.958Z</time></trkpt><trkpt lat="43.8485596" lon="11.193123"><ele>174.66666666666669</ele><time>2026-04-21T15:11:24.971Z</time></trkpt><trkpt lat="43.8485825" lon="11.1932173"><ele>177.33333333333334</ele><time>2026-04-21T15:11:26.009Z</time></trkpt><trkpt lat="43.8486123" lon="11.1933644"><ele>180.0</ele><time>2026-04-21T15:11:27.957Z</time></trkpt><trkpt lat="43.8486156" lon="11.1934839"><ele>182.66666666666666</ele><time>2026-04-21T15:11:29.969Z</time></trkpt><trkpt lat="43.8486012" lon="11.1935981"><ele>185.33333333333331</ele><time>2026-04-21T15:11:31.969Z</time></trkpt><trkpt lat="43.8485542" lon="11.1937154"><ele>188.0</ele><time>2026-04-21T15:11:33.956Z</time></trkpt><trkpt lat="43.8485341" lon="11.1938874"><ele>188.0</ele><time>2026-04-21T15:11:35.952Z</time></trkpt><trkpt lat="43.8485415" lon="11.1939834"><ele>188.0</ele><time>2026-04-21T15:11:36.96Z</time></trkpt><trkpt lat="43.8485583" lon="11.1940749"><ele>188.0</ele><time>2026-04-21T15:11:37.95Z</time></trkpt><trkpt lat="43.8485713" lon="11.1941701"><ele>188.0</ele><time>2026-04-21T15:11:39.012Z</time></trkpt><trkpt lat="43.8485814" lon="11.1942618"><ele>188.0</ele><time>2026-04-21T15:11:39.95Z</time></trkpt><trkpt lat="43.8485804" lon="11.1944187"><ele>188.0</ele><time>2026-04-21T15:11:42.02Z</time></trkpt><trkpt lat="43.8485686" lon="11.1945623"><ele>189.33333333333331</ele><time>2026-04-21T15:11:43.952Z</time></trkpt><trkpt lat="43.8486123" lon="11.1946586"><ele>190.66666666666666</ele><time>2026-04-21T15:11:45.944Z</time></trkpt><trkpt lat="43.8486733" lon="11.1947198"><ele>192.0</ele><time>2026-04-21T15:11:47.956Z</time></trkpt><trkpt lat="43.8487537" lon="11.1947723"><ele>193.33333333333331</ele><time>2026-04-21T15:11:50.958Z</time></trkpt><trkpt lat="43.8488194" lon="11.1947733"><ele>194.66666666666666</ele><time>2026-04-21T15:11:53.96Z</time></trkpt><trkpt lat="43.8488871" lon="11.1947248"><ele>196.0</ele><time>2026-04-21T15:11:57.96Z</time></trkpt><trkpt lat="43.8489544" lon="11.1946607"><ele>195.99999999999997</ele><time>2026-04-21T15:12:00.956Z</time></trkpt><trkpt lat="43.8490126" lon="11.1945747"><ele>196.0</ele><time>2026-04-21T15:12:03.958Z</time></trkpt><trkpt lat="43.8490667" lon="11.1945095"><ele>196.0</ele><time>2026-04-21T15:12:05.958Z</time></trkpt><trkpt lat="43.8491338" lon="11.1944534"><ele>196.0</ele><time>2026-04-21T15:12:07.948Z</time></trkpt><trkpt lat="43.8492065" lon="11.1944122"><ele>195.99999999999997</ele><time>2026-04-21T15:12:09.955Z</time></trkpt><trkpt lat="43.8492865" lon="11.1943726"><ele>196.0</ele><time>2026-04-21T15:12:11.957Z</time></trkpt><trkpt lat="43.8493729" lon="11.1943356"><ele>199.49999999999997</ele><time>2026-04-21T15:12:13.961Z</time></trkpt><trkpt lat="43.849474" lon="11.1943571"><ele>203.0</ele><time>2026-04-21T15:12:15.94Z</time></trkpt><trkpt lat="43.8495477" lon="11.1943586"><ele>206.5</ele><time>2026-04-21T15:12:17.96Z</time></trkpt><trkpt lat="43.8496148" lon="11.194367"><ele>210.0</ele><time>2026-04-21T15:12:19.96Z</time></trkpt><trkpt lat="43.8496835" lon="11.194395"><ele>213.49999999999997</ele><time>2026-04-21T15:12:22.024Z</time></trkpt><trkpt lat="43.849764" lon="11.194466"><ele>217.0</ele><time>2026-04-21T15:12:23.962Z</time></trkpt><trkpt lat="43.8498312" lon="11.1945209"><ele>216.99999999999997</ele><time>2026-04-21T15:12:25.965Z</time></trkpt><trkpt lat="43.8499178" lon="11.1945542"><ele>217.0</ele><time>2026-04-21T15:12:28.968Z</time></trkpt><trkpt lat="43.8499818" lon="11.1945647"><ele>217.0</ele><time>2026-04-21T15:12:30.964Z</time></trkpt><trkpt lat="43.8500696" lon="11.1945994"><ele>217.0</ele><time>2026-04-21T15:12:33.969Z</time></trkpt><trkpt lat="43.8501568" lon="11.1945534"><ele>216.99999999999997</ele><time>2026-04-21T15:12:36.971Z</time></trkpt><trkpt lat="43.8502129" lon="11.194502"><ele>217.0</ele><time>2026-04-21T15:12:38.967Z</time></trkpt><trkpt lat="43.8502648" lon="11.1944221"><ele>219.6</ele><time>2026-04-21T15:12:41.034Z</time></trkpt><trkpt lat="43.8503193" lon="11.1942597"><ele>222.2</ele><time>2026-04-21T15:12:43.968Z</time></trkpt><trkpt lat="43.8503711" lon="11.1941574"><ele>224.8</ele><time>2026-04-21T15:12:45.955Z</time></trkpt><trkpt lat="43.8504095" lon="11.1940371"><ele>227.4</ele><time>2026-04-21T15:12:47.964Z</time></trkpt><trkpt lat="43.8504491" lon="11.1939552"><ele>230.0</ele><time>2026-04-21T15:12:49.962Z</time></trkpt><trkpt lat="43.8505251" lon="11.1939114"><ele>229.99999999999997</ele><time>2026-04-21T15:12:52.982Z</time></trkpt><trkpt lat="43.8505908" lon="11.1939127"><ele>230.0</ele><time>2026-04-21T15:12:54.96Z</time></trkpt><trkpt lat="43.8506594" lon="11.1939399"><ele>229.99999999999997</ele><time>2026-04-21T15:12:56.964Z</time></trkpt><trkpt lat="43.8507221" lon="11.1939863"><ele>229.99999999999997</ele><time>2026-04-21T15:12:58.966Z</time></trkpt><trkpt lat="43.8507876" lon="11.193981"><ele>230.0</ele><time>2026-04-21T15:13:01.033Z</time></trkpt><trkpt lat="43.8508601" lon="11.1939591"><ele>229.99999999999997</ele><time>2026-04-21T15:13:02.969Z</time></trkpt><trkpt lat="43.8509394" lon="11.1939656"><ele>229.99999999999997</ele><time>2026-04-21T15:13:04.962Z</time></trkpt><trkpt lat="43.8510174" lon="11.1939609"><ele>230.00000000000003</ele><time>2026-04-21T15:13:06.969Z</time></trkpt><trkpt lat="43.8511163" lon="11.193974"><ele>230.0</ele><time>2026-04-21T15:13:09.029Z</time></trkpt><trkpt lat="43.8511841" lon="11.1939769"><ele>230.0</ele><time>2026-04-21T15:13:10.044Z</time></trkpt><trkpt lat="43.8512634" lon="11.194015"><ele>230.0</ele><time>2026-04-21T15:13:11.024Z</time></trkpt><trkpt lat="43.8513556" lon="11.1940733"><ele>230.00000000000003</ele><time>2026-04-21T15:13:11.96Z</time></trkpt><trkpt lat="43.8514454" lon="11.1941094"><ele>230.0</ele><time>2026-04-21T15:13:12.96Z</time></trkpt><trkpt lat="43.851536" lon="11.1941648"><ele>231.16666666666669</ele><time>2026-04-21T15:13:13.963Z</time></trkpt><trkpt lat="43.8516302" lon="11.1942097"><ele>232.33333333333334</ele><time>2026-04-21T15:13:14.966Z</time></trkpt><trkpt lat="43.851716" lon="11.1942361"><ele>233.5</ele><time>2026-04-21T15:13:15.958Z</time></trkpt><trkpt lat="43.8517888" lon="11.1942635"><ele>234.66666666666669</ele><time>2026-04-21T15:13:17.035Z</time></trkpt><trkpt lat="43.8518575" lon="11.1943246"><ele>235.83333333333334</ele><time>2026-04-21T15:13:17.97Z</time></trkpt><trkpt lat="43.8519307" lon="11.1943891"><ele>237.0</ele><time>2026-04-21T15:13:18.967Z</time></trkpt><trkpt lat="43.8519891" lon="11.1944439"><ele>238.6</ele><time>2026-04-21T15:13:19.987Z</time></trkpt><trkpt lat="43.8520475" lon="11.1944938"><ele>240.2</ele><time>2026-04-21T15:13:20.964Z</time></trkpt><trkpt lat="43.8521431" lon="11.1945835"><ele>241.8</ele><time>2026-04-21T15:13:22.964Z</time></trkpt><trkpt lat="43.8522573" lon="11.1946635"><ele>243.4</ele><time>2026-04-21T15:13:24.967Z</time></trkpt><trkpt lat="43.8523149" lon="11.1947079"><ele>245.0</ele><time>2026-04-21T15:13:26.956Z</time></trkpt><trkpt lat="43.8523929" lon="11.1947361"><ele>245.0</ele><time>2026-04-21T15:13:28.966Z</time></trkpt><trkpt lat="43.8524743" lon="11.1947915"><ele>245.0</ele><time>2026-04-21T15:13:30.962Z</time></trkpt><trkpt lat="43.852583" lon="11.1948679"><ele>245.0</ele><time>2026-04-21T15:13:32.966Z</time></trkpt><trkpt lat="43.8526877" lon="11.1949151"><ele>245.0</ele><time>2026-04-21T15:13:34.967Z</time></trkpt><trkpt lat="43.8527723" lon="11.1949368"><ele>245.0</ele><time>2026-04-21T15:13:36.968Z</time></trkpt><trkpt lat="43.8528646" lon="11.1949953"><ele>249.00000000000003</ele><time>2026-04-21T15:13:38.965Z</time></trkpt><trkpt lat="43.852929" lon="11.1950099"><ele>253.0</ele><time>2026-04-21T15:13:39.975Z</time></trkpt><trkpt lat="43.8530011" lon="11.1950197"><ele>257.0</ele><time>2026-04-21T15:13:40.965Z</time></trkpt><trkpt lat="43.8530788" lon="11.195019"><ele>261.0</ele><time>2026-04-21T15:13:41.963Z</time></trkpt><trkpt lat="43.8531583" lon="11.1950183"><ele>265.0</ele><time>2026-04-21T15:13:42.965Z</time></trkpt><trkpt lat="43.8532362" lon="11.1950155"><ele>269.0</ele><time>2026-04-21T15:13:43.972Z</time></trkpt><trkpt lat="43.8533167" lon="11.1950127"><ele>269.0</ele><time>2026-04-21T15:13:44.962Z</time></trkpt><trkpt lat="43.8533835" lon="11.195011"><ele>269.0</ele><time>2026-04-21T15:13:45.968Z</time></trkpt><trkpt lat="43.8534522" lon="11.195032"><ele>269.0</ele><time>2026-04-21T15:13:46.97Z</time></trkpt><trkpt lat="43.8535176" lon="11.1950757"><ele>269.0</ele><time>2026-04-21T15:13:47.964Z</time></trkpt><trkpt lat="43.8536" lon="11.1951517"><ele>269.0</ele><time>2026-04-21T15:13:48.967Z</time></trkpt><trkpt lat="43.8536718" lon="11.1952096"><ele>269.0</ele><time>2026-04-21T15:13:49.964Z</time></trkpt><trkpt lat="43.8537588" lon="11.1952632"><ele>271.2</ele><time>2026-04-21T15:13:50.986Z</time></trkpt><trkpt lat="43.8538437" lon="11.1953234"><ele>273.4</ele><time>2026-04-21T15:13:51.966Z</time></trkpt><trkpt lat="43.8539334" lon="11.1953562"><ele>275.6</ele><time>2026-04-21T15:13:52.967Z</time></trkpt><trkpt lat="43.8540297" lon="11.1953791"><ele>277.8</ele><time>2026-04-21T15:13:53.965Z</time></trkpt><trkpt lat="43.8541225" lon="11.1953879"><ele>280.0</ele><time>2026-04-21T15:13:54.964Z</time></trkpt><trkpt lat="43.8542222" lon="11.1954011"><ele>281.16666666666663</ele><time>2026-04-21T15:13:55.973Z</time></trkpt><trkpt lat="43.8543233" lon="11.1954352"><ele>282.3333333333333</ele><time>2026-04-21T15:13:56.971Z</time></trkpt><trkpt lat="43.8543978" lon="11.1954784"><ele>283.5</ele><time>2026-04-21T15:13:57.962Z</time></trkpt><trkpt lat="43.8544713" lon="11.1955248"><ele>284.6666666666667</ele><time>2026-04-21T15:13:58.967Z</time></trkpt><trkpt lat="43.8545372" lon="11.1955988"><ele>285.83333333333337</ele><time>2026-04-21T15:13:59.963Z</time></trkpt><trkpt lat="43.8546009" lon="11.195673"><ele>287.0</ele><time>2026-04-21T15:14:00.963Z</time></trkpt><trkpt lat="43.8546748" lon="11.1957405"><ele>289.2</ele><time>2026-04-21T15:14:01.965Z</time></trkpt><trkpt lat="43.8547701" lon="11.1957866"><ele>291.4</ele><time>2026-04-21T15:14:02.97Z</time></trkpt><trkpt lat="43.854868" lon="11.1958139"><ele>293.6</ele><time>2026-04-21T15:14:03.966Z</time></trkpt><trkpt lat="43.8549737" lon="11.1958306"><ele>295.8</ele><time>2026-04-21T15:14:04.957Z</time></trkpt><trkpt lat="43.8550831" lon="11.1958543"><ele>298.0</ele><time>2026-04-21T15:14:05.969Z</time></trkpt><trkpt lat="43.855166" lon="11.1958653"><ele>298.7142857142857</ele><time>2026-04-21T15:14:06.966Z</time></trkpt><trkpt lat="43.8552408" lon="11.1958664"><ele>299.4285714285714</ele><time>2026-04-21T15:14:07.951Z</time></trkpt><trkpt lat="43.8553163" lon="11.1958376"><ele>300.1428571428571</ele><time>2026-04-21T15:14:08.963Z</time></trkpt><trkpt lat="43.8553789" lon="11.195804"><ele>300.85714285714283</ele><time>2026-04-21T15:14:09.966Z</time></trkpt><trkpt lat="43.8554432" lon="11.1957974"><ele>301.57142857142856</ele><time>2026-04-21T15:14:10.954Z</time></trkpt><trkpt lat="43.8555222" lon="11.195789"><ele>302.2857142857143</ele><time>2026-04-21T15:14:11.963Z</time></trkpt><trkpt lat="43.855599" lon="11.1957745"><ele>303.0</ele><time>2026-04-21T15:14:12.966Z</time></trkpt><trkpt lat="43.8556698" lon="11.1957671"><ele>303.0</ele><time>2026-04-21T15:14:13.966Z</time></trkpt><trkpt lat="43.8557794" lon="11.1957833"><ele>303.0</ele><time>2026-04-21T15:14:15.964Z</time></trkpt><trkpt lat="43.8558449" lon="11.1958153"><ele>303.0</ele><time>2026-04-21T15:14:17.028Z</time></trkpt><trkpt lat="43.8559044" lon="11.1958481"><ele>303.0</ele><time>2026-04-21T15:14:17.961Z</time></trkpt><trkpt lat="43.8559682" lon="11.1959047"><ele>303.0</ele><time>2026-04-21T15:14:18.961Z</time></trkpt><trkpt lat="43.856032" lon="11.1959734"><ele>303.0</ele><time>2026-04-21T15:14:19.971Z</time></trkpt><trkpt lat="43.8560882" lon="11.1960399"><ele>303.6666666666667</ele><time>2026-04-21T15:14:20.963Z</time></trkpt><trkpt lat="43.8561497" lon="11.1961209"><ele>304.3333333333333</ele><time>2026-04-21T15:14:21.957Z</time></trkpt><trkpt lat="43.8562008" lon="11.1961971"><ele>305.0</ele><time>2026-04-21T15:14:22.963Z</time></trkpt><trkpt lat="43.8562469" lon="11.1962677"><ele>305.66666666666663</ele><time>2026-04-21T15:14:23.96Z</time></trkpt><trkpt lat="43.8562883" lon="11.1963463"><ele>306.3333333333333</ele><time>2026-04-21T15:14:24.965Z</time></trkpt><trkpt lat="43.8563321" lon="11.1964256"><ele>307.0</ele><time>2026-04-21T15:14:25.957Z</time></trkpt><trkpt lat="43.8564046" lon="11.1965722"><ele>307.0</ele><time>2026-04-21T15:14:27.961Z</time></trkpt><trkpt lat="43.8564582" lon="11.1967141"><ele>307.0</ele><time>2026-04-21T15:14:29.964Z</time></trkpt><trkpt lat="43.8564898" lon="11.1967908"><ele>307.0</ele><time>2026-04-21T15:14:31.046Z</time></trkpt><trkpt lat="43.8565048" lon="11.196885"><ele>307.0</ele><time>2026-04-21T15:14:32.031Z</time></trkpt><trkpt lat="43.8565269" lon="11.1970455"><ele>307.0</ele><time>2026-04-21T15:14:33.958Z</time></trkpt><trkpt lat="43.8565378" lon="11.1971753"><ele>307.0</ele><time>2026-04-21T15:14:35.956Z</time></trkpt><trkpt lat="43.8565597" lon="11.1972616"><ele>307.0</ele><time>2026-04-21T15:14:38.97Z</time></trkpt><trkpt lat="43.8565681" lon="11.1973613"><ele>307.0</ele><time>2026-04-21T15:15:23.956Z</time></trkpt><trkpt lat="43.8566025" lon="11.1975063"><ele>307.0</ele><time>2026-04-21T15:15:26.952Z</time></trkpt><trkpt lat="43.856627" lon="11.1975885"><ele>307.0</ele><time>2026-04-21T15:15:27.944Z</time></trkpt><trkpt lat="43.8566331" lon="11.1976803"><ele>307.0</ele><time>2026-04-21T15:15:28.955Z</time></trkpt><trkpt lat="43.8566572" lon="11.1978498"><ele>307.4</ele><time>2026-04-21T15:15:30.949Z</time></trkpt><trkpt lat="43.8566717" lon="11.1980309"><ele>307.79999999999995</ele><time>2026-04-21T15:15:32.955Z</time></trkpt><trkpt lat="43.8566806" lon="11.1981746"><ele>308.2</ele><time>2026-04-21T15:15:34.946Z</time></trkpt><trkpt lat="43.856682" lon="11.1982876"><ele>308.59999999999997</ele><time>2026-04-21T15:15:36.957Z</time></trkpt><trkpt lat="43.8566697" lon="11.198387"><ele>309.0</ele><time>2026-04-21T15:15:39.071Z</time></trkpt><trkpt lat="43.856654" lon="11.1984952"><ele>309.4</ele><time>2026-04-21T15:15:42.019Z</time></trkpt><trkpt lat="43.8566637" lon="11.1985909"><ele>309.79999999999995</ele><time>2026-04-21T15:15:43.946Z</time></trkpt><trkpt lat="43.8566789" lon="11.1987241"><ele>310.20000000000005</ele><time>2026-04-21T15:15:45.949Z</time></trkpt><trkpt lat="43.856674" lon="11.1988779"><ele>310.6</ele><time>2026-04-21T15:15:48.03Z</time></trkpt><trkpt lat="43.8566617" lon="11.1990297"><ele>311.0</ele><time>2026-04-21T15:15:49.951Z</time></trkpt><trkpt lat="43.8566524" lon="11.1991631"><ele>312.0</ele><time>2026-04-21T15:15:52.953Z</time></trkpt><trkpt lat="43.8566489" lon="11.1992547"><ele>313.0</ele><time>2026-04-21T15:15:54.952Z</time></trkpt><trkpt lat="43.8566475" lon="11.1994321"><ele>314.0</ele><time>2026-04-21T15:15:58.033Z</time></trkpt><trkpt lat="43.8566566" lon="11.1995532"><ele>315.0</ele><time>2026-04-21T15:15:59.961Z</time></trkpt><trkpt lat="43.8566716" lon="11.1996679"><ele>316.0</ele><time>2026-04-21T15:16:01.958Z</time></trkpt><trkpt lat="43.8567193" lon="11.1998055"><ele>317.25</ele><time>2026-04-21T15:16:03.958Z</time></trkpt><trkpt lat="43.8567597" lon="11.1999523"><ele>318.5</ele><time>2026-04-21T15:16:05.952Z</time></trkpt><trkpt lat="43.8568076" lon="11.200088"><ele>319.75</ele><time>2026-04-21T15:16:07.954Z</time></trkpt><trkpt lat="43.8568846" lon="11.200219"><ele>321.0</ele><time>2026-04-21T15:16:09.938Z</time></trkpt><trkpt lat="43.8569516" lon="11.2003442"><ele>317.3333333333333</ele><time>2026-04-21T15:16:11.945Z</time></trkpt><trkpt lat="43.8569864" lon="11.2004702"><ele>313.6666666666667</ele><time>2026-04-21T15:16:13.963Z</time></trkpt><trkpt lat="43.8570194" lon="11.2006097"><ele>310.0</ele><time>2026-04-21T15:16:15.956Z</time></trkpt><trkpt lat="43.8570304" lon="11.2007012"><ele>306.33333333333337</ele><time>2026-04-21T15:16:16.941Z</time></trkpt><trkpt lat="43.8570507" lon="11.2008105"><ele>302.6666666666667</ele><time>2026-04-21T15:16:18.957Z</time></trkpt><trkpt lat="43.8570742" lon="11.2009223"><ele>299.0</ele><time>2026-04-21T15:16:22.04Z</time></trkpt><trkpt lat="43.857092" lon="11.2010511"><ele>299.0</ele><time>2026-04-21T15:16:24.964Z</time></trkpt><trkpt lat="43.8571005" lon="11.201141"><ele>299.0</ele><time>2026-04-21T15:16:26.963Z</time></trkpt><trkpt lat="43.8571046" lon="11.2012477"><ele>299.0</ele><time>2026-04-21T15:16:28.966Z</time></trkpt><trkpt lat="43.8571251" lon="11.2013787"><ele>299.0</ele><time>2026-04-21T15:16:30.964Z</time></trkpt><trkpt lat="43.8571399" lon="11.2015121"><ele>299.0</ele><time>2026-04-21T15:16:32.964Z</time></trkpt><trkpt lat="43.857165" lon="11.2016433"><ele>299.0</ele><time>2026-04-21T15:16:34.961Z</time></trkpt><trkpt lat="43.8572023" lon="11.2017577"><ele>298.83333333333337</ele><time>2026-04-21T15:16:36.958Z</time></trkpt><trkpt lat="43.8572213" lon="11.2018818"><ele>298.6666666666667</ele><time>2026-04-21T15:16:38.984Z</time></trkpt><trkpt lat="43.8572189" lon="11.2019937"><ele>298.5</ele><time>2026-04-21T15:16:40.963Z</time></trkpt><trkpt lat="43.8572237" lon="11.202085"><ele>298.3333333333333</ele><time>2026-04-21T15:16:42.967Z</time></trkpt><trkpt lat="43.8572334" lon="11.2021827"><ele>298.16666666666663</ele><time>2026-04-21T15:16:44.965Z</time></trkpt><trkpt lat="43.857243" lon="11.202276"><ele>298.0</ele><time>2026-04-21T15:16:47.042Z</time></trkpt><trkpt lat="43.8572566" lon="11.2023965"><ele>297.66666666666663</ele><time>2026-04-21T15:16:50.967Z</time></trkpt><trkpt lat="43.8572998" lon="11.2024976"><ele>297.3333333333333</ele><time>2026-04-21T15:16:54.032Z</time></trkpt><trkpt lat="43.8573298" lon="11.2025964"><ele>297.0</ele><time>2026-04-21T15:16:56.959Z</time></trkpt><trkpt lat="43.8573525" lon="11.2026957"><ele>296.6666666666667</ele><time>2026-04-21T15:16:59.958Z</time></trkpt><trkpt lat="43.8573642" lon="11.2028144"><ele>296.33333333333337</ele><time>2026-04-21T15:17:02.961Z</time></trkpt><trkpt lat="43.8573824" lon="11.2029101"><ele>296.0</ele><time>2026-04-21T15:17:04.959Z</time></trkpt><trkpt lat="43.8573997" lon="11.2030277"><ele>296.0</ele><time>2026-04-21T15:17:06.961Z</time></trkpt><trkpt lat="43.857422" lon="11.2031146"><ele>296.0</ele><time>2026-04-21T15:17:08.971Z</time></trkpt><trkpt lat="43.8574389" lon="11.2032012"><ele>296.0</ele><time>2026-04-21T15:17:10.965Z</time></trkpt><trkpt lat="43.8574209" lon="11.2033298"><ele>296.0</ele><time>2026-04-21T15:17:13.959Z</time></trkpt><trkpt lat="43.8573907" lon="11.2034621"><ele>296.0</ele><time>2026-04-21T15:17:16.96Z</time></trkpt><trkpt lat="43.8573615" lon="11.2035438"><ele>296.0</ele><time>2026-04-21T15:17:18.961Z</time></trkpt><trkpt lat="43.8573334" lon="11.2036601"><ele>295.6666666666667</ele><time>2026-04-21T15:17:21.965Z</time></trkpt><trkpt lat="43.8573422" lon="11.2038251"><ele>295.33333333333337</ele><time>2026-04-21T15:17:28.985Z</time></trkpt><trkpt lat="43.8573711" lon="11.2039108"><ele>295.0</ele><time>2026-04-21T15:17:31.966Z</time></trkpt><trkpt lat="43.85738" lon="11.204004"><ele>294.6666666666667</ele><time>2026-04-21T15:17:35.963Z</time></trkpt><trkpt lat="43.857378" lon="11.2040976"><ele>294.3333333333333</ele><time>2026-04-21T15:17:41.955Z</time></trkpt><trkpt lat="43.8574034" lon="11.2041776"><ele>294.0</ele><time>2026-04-21T15:17:44.97Z</time></trkpt><trkpt lat="43.8574461" lon="11.2042571"><ele>293.6666666666667</ele><time>2026-04-21T15:17:48.951Z</time></trkpt><trkpt lat="43.8575011" lon="11.2043195"><ele>293.3333333333333</ele><time>2026-04-21T15:17:51.953Z</time></trkpt><trkpt lat="43.8575532" lon="11.2043705"><ele>293.0</ele><time>2026-04-21T15:17:53.948Z</time></trkpt><trkpt lat="43.8576155" lon="11.2044569"><ele>292.66666666666663</ele><time>2026-04-21T15:17:56.955Z</time></trkpt><trkpt lat="43.8576733" lon="11.2045467"><ele>292.3333333333333</ele><time>2026-04-21T15:17:59.95Z</time></trkpt><trkpt lat="43.8577279" lon="11.2046301"><ele>292.0</ele><time>2026-04-21T15:18:03.027Z</time></trkpt><trkpt lat="43.8578031" lon="11.2047581"><ele>294.8333333333333</ele><time>2026-04-21T15:18:09.954Z</time></trkpt><trkpt lat="43.8578503" lon="11.2048822"><ele>297.66666666666663</ele><time>2026-04-21T15:18:15.949Z</time></trkpt><trkpt lat="43.8579054" lon="11.2049462"><ele>300.5</ele><time>2026-04-21T15:18:19.953Z</time></trkpt><trkpt lat="43.8579509" lon="11.2050292"><ele>303.3333333333333</ele><time>2026-04-21T15:18:24.954Z</time></trkpt><trkpt lat="43.8579988" lon="11.205093"><ele>306.1666666666667</ele><time>2026-04-21T15:18:27.957Z</time></trkpt><trkpt lat="43.8580426" lon="11.2051679"><ele>309.0</ele><time>2026-04-21T15:18:30.957Z</time></trkpt><trkpt lat="43.8581058" lon="11.2052762"><ele>309.0</ele><time>2026-04-21T15:18:33.952Z</time></trkpt><trkpt lat="43.8581392" lon="11.2053739"><ele>309.0</ele><time>2026-04-21T15:18:35.952Z</time></trkpt><trkpt lat="43.858161" lon="11.2054696"><ele>309.0</ele><time>2026-04-21T15:18:37.953Z</time></trkpt><trkpt lat="43.8581971" lon="11.2055739"><ele>309.0</ele><time>2026-04-21T15:18:40.957Z</time></trkpt><trkpt lat="43.8582229" lon="11.205656"><ele>309.0</ele><time>2026-04-21T15:18:42.95Z</time></trkpt><trkpt lat="43.8582575" lon="11.2057482"><ele>309.0</ele><time>2026-04-21T15:18:44.952Z</time></trkpt><trkpt lat="43.8582994" lon="11.2058399"><ele>308.59999999999997</ele><time>2026-04-21T15:18:46.956Z</time></trkpt><trkpt lat="43.8583483" lon="11.2059458"><ele>308.2</ele><time>2026-04-21T15:18:48.952Z</time></trkpt><trkpt lat="43.8583978" lon="11.2060891"><ele>307.79999999999995</ele><time>2026-04-21T15:18:49.956Z</time></trkpt><trkpt lat="43.8584397" lon="11.2061975"><ele>307.4</ele><time>2026-04-21T15:18:50.952Z</time></trkpt><trkpt lat="43.8585182" lon="11.2063564"><ele>307.0</ele><time>2026-04-21T15:18:52.956Z</time></trkpt><trkpt lat="43.8585536" lon="11.2064693"><ele>307.0</ele><time>2026-04-21T15:18:54.957Z</time></trkpt><trkpt lat="43.8585717" lon="11.2065881"><ele>307.0</ele><time>2026-04-21T15:18:56.951Z</time></trkpt><trkpt lat="43.8585874" lon="11.2066797"><ele>307.0</ele><time>2026-04-21T15:18:58.944Z</time></trkpt><trkpt lat="43.8586069" lon="11.2067747"><ele>307.0</ele><time>2026-04-21T15:19:00.955Z</time></trkpt><trkpt lat="43.8586342" lon="11.2069173"><ele>307.0</ele><time>2026-04-21T15:19:03.951Z</time></trkpt><trkpt lat="43.8586719" lon="11.2070402"><ele>307.0</ele><time>2026-04-21T15:19:05.952Z</time></trkpt><trkpt lat="43.8586963" lon="11.2071401"><ele>307.0</ele><time>2026-04-21T15:19:07.954Z</time></trkpt><trkpt lat="43.8587178" lon="11.2072411"><ele>307.0</ele><time>2026-04-21T15:19:09.947Z</time></trkpt><trkpt lat="43.8587357" lon="11.2073375"><ele>307.0</ele><time>2026-04-21T15:19:11.952Z</time></trkpt><trkpt lat="43.8587585" lon="11.2074339"><ele>307.0</ele><time>2026-04-21T15:19:13.947Z</time></trkpt><trkpt lat="43.8587971" lon="11.207543"><ele>307.0</ele><time>2026-04-21T15:19:15.955Z</time></trkpt><trkpt lat="43.858825" lon="11.207643"><ele>307.0</ele><time>2026-04-21T15:19:17.957Z</time></trkpt><trkpt lat="43.8588587" lon="11.2077672"><ele>307.85714285714283</ele><time>2026-04-21T15:19:20.954Z</time></trkpt><trkpt lat="43.8588783" lon="11.2078522"><ele>308.7142857142857</ele><time>2026-04-21T15:19:22.953Z</time></trkpt><trkpt lat="43.8588872" lon="11.207951"><ele>309.57142857142856</ele><time>2026-04-21T15:19:24.943Z</time></trkpt><trkpt lat="43.8589113" lon="11.2080531"><ele>310.42857142857144</ele><time>2026-04-21T15:19:28.016Z</time></trkpt><trkpt lat="43.8589347" lon="11.208155"><ele>311.2857142857143</ele><time>2026-04-21T15:19:29.953Z</time></trkpt><trkpt lat="43.85896" lon="11.2082578"><ele>312.1428571428571</ele><time>2026-04-21T15:19:31.95Z</time></trkpt><trkpt lat="43.8589863" lon="11.2083419"><ele>313.0</ele><time>2026-04-21T15:19:33.946Z</time></trkpt><trkpt lat="43.8590054" lon="11.20846"><ele>315.0</ele><time>2026-04-21T15:19:36.955Z</time></trkpt><trkpt lat="43.8590219" lon="11.2085949"><ele>317.0</ele><time>2026-04-21T15:19:39.951Z</time></trkpt><trkpt lat="43.8590453" lon="11.208709"><ele>319.0</ele><time>2026-04-21T15:19:41.949Z</time></trkpt><trkpt lat="43.8590637" lon="11.2088213"><ele>321.0</ele><time>2026-04-21T15:19:43.958Z</time></trkpt><trkpt lat="43.8590544" lon="11.2089196"><ele>323.0</ele><time>2026-04-21T15:19:45.959Z</time></trkpt><trkpt lat="43.8590369" lon="11.209073"><ele>323.5</ele><time>2026-04-21T15:19:47.958Z</time></trkpt><trkpt lat="43.8590263" lon="11.2091707"><ele>324.0</ele><time>2026-04-21T15:19:49.958Z</time></trkpt><trkpt lat="43.8590153" lon="11.2092751"><ele>324.5</ele><time>2026-04-21T15:19:51.957Z</time></trkpt><trkpt lat="43.8589769" lon="11.2093901"><ele>325.0</ele><time>2026-04-21T15:19:54.953Z</time></trkpt><trkpt lat="43.858935" lon="11.2094919"><ele>325.5</ele><time>2026-04-21T15:19:56.956Z</time></trkpt><trkpt lat="43.8588937" lon="11.209581"><ele>326.0</ele><time>2026-04-21T15:19:58.952Z</time></trkpt><trkpt lat="43.8588641" lon="11.2096801"><ele>326.0</ele><time>2026-04-21T15:20:01.951Z</time></trkpt><trkpt lat="43.8588685" lon="11.2097962"><ele>326.0</ele><time>2026-04-21T15:20:12.955Z</time></trkpt><trkpt lat="43.8588849" lon="11.209916"><ele>326.0</ele><time>2026-04-21T15:20:15.952Z</time></trkpt><trkpt lat="43.8589016" lon="11.2100307"><ele>326.0</ele><time>2026-04-21T15:20:18.955Z</time></trkpt><trkpt lat="43.8589214" lon="11.2101218"><ele>326.0</ele><time>2026-04-21T15:20:20.957Z</time></trkpt><trkpt lat="43.8589329" lon="11.2102392"><ele>326.0</ele><time>2026-04-21T15:20:23.955Z</time></trkpt><trkpt lat="43.8589558" lon="11.2103411"><ele>325.5</ele><time>2026-04-21T15:20:26.957Z</time></trkpt><trkpt lat="43.8589877" lon="11.2104616"><ele>325.0</ele><time>2026-04-21T15:20:29.955Z</time></trkpt><trkpt lat="43.8590094" lon="11.2105608"><ele>324.5</ele><time>2026-04-21T15:20:32.011Z</time></trkpt><trkpt lat="43.8590316" lon="11.2106445"><ele>324.0</ele><time>2026-04-21T15:20:33.957Z</time></trkpt><trkpt lat="43.8590363" lon="11.210732"><ele>323.5</ele><time>2026-04-21T15:20:36.954Z</time></trkpt><trkpt lat="43.8590488" lon="11.2108421"><ele>323.0</ele><time>2026-04-21T15:20:39.96Z</time></trkpt><trkpt lat="43.8590349" lon="11.2109729"><ele>323.00000000000006</ele><time>2026-04-21T15:20:42.961Z</time></trkpt><trkpt lat="43.8590154" lon="11.2110693"><ele>323.0</ele><time>2026-04-21T15:20:44.958Z</time></trkpt><trkpt lat="43.858989" lon="11.2111553"><ele>323.0</ele><time>2026-04-21T15:20:47.021Z</time></trkpt><trkpt lat="43.8589487" lon="11.2112374"><ele>323.0</ele><time>2026-04-21T15:20:49.014Z</time></trkpt><trkpt lat="43.8589195" lon="11.2113396"><ele>323.0</ele><time>2026-04-21T15:20:51.957Z</time></trkpt><trkpt lat="43.8589022" lon="11.2114287"><ele>323.00000000000006</ele><time>2026-04-21T15:21:16.947Z</time></trkpt><trkpt lat="43.8589291" lon="11.2115377"><ele>323.0</ele><time>2026-04-21T15:21:20.95Z</time></trkpt><trkpt lat="43.8589587" lon="11.2116688"><ele>323.0</ele><time>2026-04-21T15:21:23.958Z</time></trkpt><trkpt lat="43.8589955" lon="11.2118269"><ele>323.0</ele><time>2026-04-21T15:21:25.955Z</time></trkpt><trkpt lat="43.8589977" lon="11.2119211"><ele>323.0</ele><time>2026-04-21T15:21:26.956Z</time></trkpt><trkpt lat="43.8590164" lon="11.2120096"><ele>323.0</ele><time>2026-04-21T15:21:27.951Z</time></trkpt><trkpt lat="43.8590399" lon="11.2121525"><ele>323.0</ele><time>2026-04-21T15:21:29.957Z</time></trkpt><trkpt lat="43.8590654" lon="11.212263"><ele>323.0</ele><time>2026-04-21T15:21:31.947Z</time></trkpt><trkpt lat="43.8591247" lon="11.2123289"><ele>323.33333333333337</ele><time>2026-04-21T15:21:34.955Z</time></trkpt><trkpt lat="43.8591874" lon="11.2123855"><ele>323.6666666666667</ele><time>2026-04-21T15:21:37.964Z</time></trkpt><trkpt lat="43.8592116" lon="11.2124966"><ele>324.0</ele><time>2026-04-21T15:21:40.953Z</time></trkpt><trkpt lat="43.8592433" lon="11.2125994"><ele>324.3333333333333</ele><time>2026-04-21T15:21:43.955Z</time></trkpt><trkpt lat="43.859306" lon="11.2126666"><ele>324.66666666666663</ele><time>2026-04-21T15:21:46.961Z</time></trkpt><trkpt lat="43.8593777" lon="11.2127561"><ele>325.0</ele><time>2026-04-21T15:21:49.958Z</time></trkpt><trkpt lat="43.8594271" lon="11.2128305"><ele>325.0</ele><time>2026-04-21T15:21:51.951Z</time></trkpt><trkpt lat="43.859493" lon="11.2129243"><ele>325.0</ele><time>2026-04-21T15:21:53.965Z</time></trkpt><trkpt lat="43.8595721" lon="11.2130257"><ele>325.0</ele><time>2026-04-21T15:21:55.962Z</time></trkpt><trkpt lat="43.8596281" lon="11.2130853"><ele>325.0</ele><time>2026-04-21T15:21:57.95Z</time></trkpt><trkpt lat="43.8596777" lon="11.2131516"><ele>325.0</ele><time>2026-04-21T15:21:59.956Z</time></trkpt><trkpt lat="43.859726" lon="11.2132266"><ele>325.0</ele><time>2026-04-21T15:22:01.953Z</time></trkpt><trkpt lat="43.8597673" lon="11.2132975"><ele>324.8333333333333</ele><time>2026-04-21T15:22:03.951Z</time></trkpt><trkpt lat="43.8598201" lon="11.2133577"><ele>324.66666666666663</ele><time>2026-04-21T15:22:05.955Z</time></trkpt><trkpt lat="43.8598831" lon="11.2134226"><ele>324.5</ele><time>2026-04-21T15:22:08.991Z</time></trkpt><trkpt lat="43.8599516" lon="11.213464"><ele>324.3333333333333</ele><time>2026-04-21T15:22:13.952Z</time></trkpt><trkpt lat="43.8599992" lon="11.2135213"><ele>324.1666666666667</ele><time>2026-04-21T15:22:19.954Z</time></trkpt><trkpt lat="43.8600525" lon="11.2135832"><ele>324.0</ele><time>2026-04-21T15:22:22.95Z</time></trkpt><trkpt lat="43.8601277" lon="11.2136676"><ele>324.0</ele><time>2026-04-21T15:22:24.959Z</time></trkpt><trkpt lat="43.8601738" lon="11.2137292"><ele>324.0</ele><time>2026-04-21T15:22:26.038Z</time></trkpt><trkpt lat="43.8602225" lon="11.2137903"><ele>324.0</ele><time>2026-04-21T15:22:26.955Z</time></trkpt><trkpt lat="43.8603011" lon="11.2138974"><ele>324.0</ele><time>2026-04-21T15:22:28.951Z</time></trkpt><trkpt lat="43.8603811" lon="11.2140061"><ele>324.0</ele><time>2026-04-21T15:22:30.957Z</time></trkpt><trkpt lat="43.860432" lon="11.2141116"><ele>324.0</ele><time>2026-04-21T15:22:32.954Z</time></trkpt><trkpt lat="43.8604624" lon="11.2142005"><ele>324.5</ele><time>2026-04-21T15:22:34.962Z</time></trkpt><trkpt lat="43.8605289" lon="11.2143249"><ele>325.0</ele><time>2026-04-21T15:22:36.952Z</time></trkpt><trkpt lat="43.8605679" lon="11.2144056"><ele>325.5</ele><time>2026-04-21T15:22:37.954Z</time></trkpt><trkpt lat="43.8606078" lon="11.2144919"><ele>326.0</ele><time>2026-04-21T15:22:38.965Z</time></trkpt><trkpt lat="43.8606422" lon="11.2145753"><ele>326.5</ele><time>2026-04-21T15:22:39.949Z</time></trkpt><trkpt lat="43.8606669" lon="11.2146743"><ele>327.0</ele><time>2026-04-21T15:22:40.96Z</time></trkpt><trkpt lat="43.8606995" lon="11.2147804"><ele>327.42857142857144</ele><time>2026-04-21T15:22:41.952Z</time></trkpt><trkpt lat="43.8607263" lon="11.2148722"><ele>327.8571428571429</ele><time>2026-04-21T15:22:42.955Z</time></trkpt><trkpt lat="43.8607553" lon="11.2149523"><ele>328.28571428571433</ele><time>2026-04-21T15:22:43.953Z</time></trkpt><trkpt lat="43.8607855" lon="11.2150369"><ele>328.7142857142857</ele><time>2026-04-21T15:22:44.949Z</time></trkpt><trkpt lat="43.8608106" lon="11.2151212"><ele>329.14285714285717</ele><time>2026-04-21T15:22:46.016Z</time></trkpt><trkpt lat="43.8608399" lon="11.2152251"><ele>329.5714285714286</ele><time>2026-04-21T15:22:46.944Z</time></trkpt><trkpt lat="43.8608748" lon="11.2153225"><ele>330.0</ele><time>2026-04-21T15:22:47.955Z</time></trkpt><trkpt lat="43.8609029" lon="11.2154197"><ele>330.0</ele><time>2026-04-21T15:22:48.955Z</time></trkpt><trkpt lat="43.8609298" lon="11.2155117"><ele>330.0</ele><time>2026-04-21T15:22:49.954Z</time></trkpt><trkpt lat="43.8609721" lon="11.215665"><ele>330.0</ele><time>2026-04-21T15:22:51.952Z</time></trkpt><trkpt lat="43.8609946" lon="11.2157893"><ele>330.0</ele><time>2026-04-21T15:22:54.013Z</time></trkpt><trkpt lat="43.8610222" lon="11.2158931"><ele>330.0</ele><time>2026-04-21T15:22:55.967Z</time></trkpt><trkpt lat="43.861048" lon="11.2159812"><ele>330.0</ele><time>2026-04-21T15:22:58.008Z</time></trkpt><trkpt lat="43.861082" lon="11.2161077"><ele>328.2</ele><time>2026-04-21T15:23:00.954Z</time></trkpt><trkpt lat="43.8611173" lon="11.2162076"><ele>326.4</ele><time>2026-04-21T15:23:02.954Z</time></trkpt><trkpt lat="43.8611354" lon="11.2163434"><ele>324.6</ele><time>2026-04-21T15:23:04.958Z</time></trkpt><trkpt lat="43.8611305" lon="11.2165042"><ele>322.8</ele><time>2026-04-21T15:23:06.963Z</time></trkpt><trkpt lat="43.861146" lon="11.216611"><ele>321.0</ele><time>2026-04-21T15:23:08.954Z</time></trkpt><trkpt lat="43.8611835" lon="11.2167067"><ele>321.0</ele><time>2026-04-21T15:23:10.947Z</time></trkpt><trkpt lat="43.8612171" lon="11.2168312"><ele>321.0</ele><time>2026-04-21T15:23:12.958Z</time></trkpt><trkpt lat="43.8612361" lon="11.216972"><ele>321.0</ele><time>2026-04-21T15:23:14.961Z</time></trkpt><trkpt lat="43.8612634" lon="11.2171007"><ele>321.0</ele><time>2026-04-21T15:23:16.951Z</time></trkpt><trkpt lat="43.8612653" lon="11.2172042"><ele>321.0</ele><time>2026-04-21T15:23:19.953Z</time></trkpt><trkpt lat="43.8612094" lon="11.2172599"><ele>321.0</ele><time>2026-04-21T15:23:23.948Z</time></trkpt><trkpt lat="43.8611712" lon="11.2173419"><ele>322.0</ele><time>2026-04-21T15:23:28.958Z</time></trkpt><trkpt lat="43.8612063" lon="11.217489"><ele>323.0</ele><time>2026-04-21T15:23:30.954Z</time></trkpt><trkpt lat="43.8612343" lon="11.2175779"><ele>324.0</ele><time>2026-04-21T15:23:31.961Z</time></trkpt><trkpt lat="43.8612437" lon="11.2176776"><ele>325.0</ele><time>2026-04-21T15:23:32.954Z</time></trkpt><trkpt lat="43.8612568" lon="11.2177837"><ele>326.0</ele><time>2026-04-21T15:23:33.952Z</time></trkpt><trkpt lat="43.861261" lon="11.2179044"><ele>327.0</ele><time>2026-04-21T15:23:34.96Z</time></trkpt><trkpt lat="43.8612675" lon="11.2180333"><ele>328.0</ele><time>2026-04-21T15:23:35.962Z</time></trkpt><trkpt lat="43.8612759" lon="11.2181854"><ele>329.0</ele><time>2026-04-21T15:23:36.954Z</time></trkpt><trkpt lat="43.8612905" lon="11.2183519"><ele>330.0</ele><time>2026-04-21T15:23:38.016Z</time></trkpt><trkpt lat="43.8612993" lon="11.21851"><ele>331.0</ele><time>2026-04-21T15:23:38.965Z</time></trkpt><trkpt lat="43.8613042" lon="11.2186729"><ele>331.0</ele><time>2026-04-21T15:23:40.023Z</time></trkpt><trkpt lat="43.8613109" lon="11.2188427"><ele>331.0</ele><time>2026-04-21T15:23:40.953Z</time></trkpt><trkpt lat="43.8613286" lon="11.219013"><ele>331.0</ele><time>2026-04-21T15:23:41.954Z</time></trkpt><trkpt lat="43.8613682" lon="11.2191844"><ele>331.0</ele><time>2026-04-21T15:23:42.952Z</time></trkpt><trkpt lat="43.8614199" lon="11.2193382"><ele>332.5</ele><time>2026-04-21T15:23:43.954Z</time></trkpt><trkpt lat="43.8614867" lon="11.2194862"><ele>334.0</ele><time>2026-04-21T15:23:45.021Z</time></trkpt><trkpt lat="43.8615663" lon="11.2196266"><ele>335.5</ele><time>2026-04-21T15:23:45.952Z</time></trkpt><trkpt lat="43.8616455" lon="11.2197695"><ele>337.0</ele><time>2026-04-21T15:23:46.954Z</time></trkpt><trkpt lat="43.8617272" lon="11.219907"><ele>339.0</ele><time>2026-04-21T15:23:48.023Z</time></trkpt><trkpt lat="43.8618029" lon="11.2200408"><ele>341.0</ele><time>2026-04-21T15:23:49.019Z</time></trkpt><trkpt lat="43.8618804" lon="11.2201724"><ele>343.0</ele><time>2026-04-21T15:23:49.948Z</time></trkpt><trkpt lat="43.8619574" lon="11.220303"><ele>345.0</ele><time>2026-04-21T15:23:51.034Z</time></trkpt><trkpt lat="43.8620348" lon="11.2204369"><ele>345.0</ele><time>2026-04-21T15:23:51.956Z</time></trkpt><trkpt lat="43.8621144" lon="11.2205739"><ele>345.0</ele><time>2026-04-21T15:23:52.953Z</time></trkpt><trkpt lat="43.8621877" lon="11.2207044"><ele>345.0</ele><time>2026-04-21T15:23:53.985Z</time></trkpt><trkpt lat="43.862255" lon="11.2208377"><ele>345.0</ele><time>2026-04-21T15:23:54.953Z</time></trkpt><trkpt lat="43.8623154" lon="11.2209741"><ele>347.75</ele><time>2026-04-21T15:23:55.99Z</time></trkpt><trkpt lat="43.862364" lon="11.2211138"><ele>350.5</ele><time>2026-04-21T15:23:56.955Z</time></trkpt><trkpt lat="43.8623996" lon="11.2212666"><ele>353.25</ele><time>2026-04-21T15:23:58.034Z</time></trkpt><trkpt lat="43.8624257" lon="11.2214215"><ele>356.0</ele><time>2026-04-21T15:23:59.031Z</time></trkpt><trkpt lat="43.8624474" lon="11.2215781"><ele>358.20000000000005</ele><time>2026-04-21T15:24:00.017Z</time></trkpt><trkpt lat="43.8624854" lon="11.2217207"><ele>360.40000000000003</ele><time>2026-04-21T15:24:00.996Z</time></trkpt><trkpt lat="43.8625287" lon="11.2218588"><ele>362.6</ele><time>2026-04-21T15:24:01.955Z</time></trkpt><trkpt lat="43.8625805" lon="11.221985"><ele>364.8</ele><time>2026-04-21T15:24:02.955Z</time></trkpt><trkpt lat="43.8626328" lon="11.2221013"><ele>367.0</ele><time>2026-04-21T15:24:04.073Z</time></trkpt><trkpt lat="43.8627392" lon="11.222295"><ele>369.16666666666663</ele><time>2026-04-21T15:24:05.957Z</time></trkpt><trkpt lat="43.8627919" lon="11.2223869"><ele>371.3333333333333</ele><time>2026-04-21T15:24:06.948Z</time></trkpt><trkpt lat="43.8628352" lon="11.2224838"><ele>373.5</ele><time>2026-04-21T15:24:07.957Z</time></trkpt><trkpt lat="43.8628646" lon="11.2225846"><ele>375.6666666666667</ele><time>2026-04-21T15:24:08.954Z</time></trkpt><trkpt lat="43.8628808" lon="11.2226878"><ele>377.83333333333337</ele><time>2026-04-21T15:24:09.953Z</time></trkpt><trkpt lat="43.8628908" lon="11.2228076"><ele>380.0</ele><time>2026-04-21T15:24:10.95Z</time></trkpt><trkpt lat="43.862901" lon="11.2229269"><ele>380.0</ele><time>2026-04-21T15:24:11.958Z</time></trkpt><trkpt lat="43.8629088" lon="11.2230422"><ele>380.0</ele><time>2026-04-21T15:24:12.963Z</time></trkpt><trkpt lat="43.8629197" lon="11.2231541"><ele>380.0</ele><time>2026-04-21T15:24:13.961Z</time></trkpt><trkpt lat="43.8629278" lon="11.2232704"><ele>380.0</ele><time>2026-04-21T15:24:14.952Z</time></trkpt><trkpt lat="43.8629311" lon="11.2233893"><ele>380.0</ele><time>2026-04-21T15:24:15.956Z</time></trkpt><trkpt lat="43.8629263" lon="11.2235111"><ele>380.0</ele><time>2026-04-21T15:24:16.954Z</time></trkpt><trkpt lat="43.8629215" lon="11.2236296"><ele>382.6666666666667</ele><time>2026-04-21T15:24:17.949Z</time></trkpt><trkpt lat="43.8629299" lon="11.2237467"><ele>385.33333333333337</ele><time>2026-04-21T15:24:19.018Z</time></trkpt><trkpt lat="43.8629663" lon="11.2238665"><ele>388.0</ele><time>2026-04-21T15:24:20.012Z</time></trkpt><trkpt lat="43.8630093" lon="11.2239692"><ele>390.6666666666667</ele><time>2026-04-21T15:24:21.02Z</time></trkpt><trkpt lat="43.8630567" lon="11.2240669"><ele>393.3333333333333</ele><time>2026-04-21T15:24:21.96Z</time></trkpt><trkpt lat="43.8631059" lon="11.2241723"><ele>396.0</ele><time>2026-04-21T15:24:22.952Z</time></trkpt><trkpt lat="43.8631654" lon="11.2242759"><ele>398.6</ele><time>2026-04-21T15:24:23.967Z</time></trkpt><trkpt lat="43.8632396" lon="11.2243665"><ele>401.20000000000005</ele><time>2026-04-21T15:24:24.956Z</time></trkpt><trkpt lat="43.8633183" lon="11.2244572"><ele>403.79999999999995</ele><time>2026-04-21T15:24:26.02Z</time></trkpt><trkpt lat="43.863401" lon="11.2245435"><ele>406.4</ele><time>2026-04-21T15:24:26.955Z</time></trkpt><trkpt lat="43.8634925" lon="11.2246264"><ele>409.0</ele><time>2026-04-21T15:24:27.958Z</time></trkpt><trkpt lat="43.8635821" lon="11.2247119"><ele>409.4</ele><time>2026-04-21T15:24:28.954Z</time></trkpt><trkpt lat="43.863657" lon="11.224792"><ele>409.79999999999995</ele><time>2026-04-21T15:24:30.009Z</time></trkpt><trkpt lat="43.8637248" lon="11.2248498"><ele>410.20000000000005</ele><time>2026-04-21T15:24:30.956Z</time></trkpt><trkpt lat="43.8638055" lon="11.2249099"><ele>410.6</ele><time>2026-04-21T15:24:31.956Z</time></trkpt><trkpt lat="43.8638926" lon="11.2249523"><ele>411.0</ele><time>2026-04-21T15:24:32.952Z</time></trkpt><trkpt lat="43.8639877" lon="11.224984"><ele>412.8</ele><time>2026-04-21T15:24:33.972Z</time></trkpt><trkpt lat="43.8640922" lon="11.2250281"><ele>414.6</ele><time>2026-04-21T15:24:35.045Z</time></trkpt><trkpt lat="43.8642017" lon="11.2250576"><ele>416.4</ele><time>2026-04-21T15:24:36.029Z</time></trkpt><trkpt lat="43.8643142" lon="11.2250951"><ele>418.2</ele><time>2026-04-21T15:24:36.962Z</time></trkpt><trkpt lat="43.8644217" lon="11.2251402"><ele>420.0</ele><time>2026-04-21T15:24:37.964Z</time></trkpt><trkpt lat="43.8645245" lon="11.2251997"><ele>422.8333333333333</ele><time>2026-04-21T15:24:38.992Z</time></trkpt><trkpt lat="43.8646146" lon="11.2252714"><ele>425.66666666666663</ele><time>2026-04-21T15:24:40.02Z</time></trkpt><trkpt lat="43.8646858" lon="11.2253383"><ele>428.5</ele><time>2026-04-21T15:24:40.959Z</time></trkpt><trkpt lat="43.864747" lon="11.2253978"><ele>431.3333333333333</ele><time>2026-04-21T15:24:41.954Z</time></trkpt><trkpt lat="43.8648371" lon="11.2254891"><ele>434.16666666666663</ele><time>2026-04-21T15:24:44.044Z</time></trkpt><trkpt lat="43.8649052" lon="11.225462"><ele>437.0</ele><time>2026-04-21T15:24:46.956Z</time></trkpt><trkpt lat="43.8649224" lon="11.2253703"><ele>437.0</ele><time>2026-04-21T15:24:49.949Z</time></trkpt><trkpt lat="43.8649426" lon="11.2252596"><ele>437.00000000000006</ele><time>2026-04-21T15:24:53.026Z</time></trkpt><trkpt lat="43.8649758" lon="11.225137"><ele>437.00000000000006</ele><time>2026-04-21T15:24:55.938Z</time></trkpt><trkpt lat="43.8650186" lon="11.2250449"><ele>437.0</ele><time>2026-04-21T15:24:57.948Z</time></trkpt><trkpt lat="43.8650957" lon="11.2249558"><ele>437.0</ele><time>2026-04-21T15:24:59.953Z</time></trkpt><trkpt lat="43.86519" lon="11.2248702"><ele>439.57142857142856</ele><time>2026-04-21T15:25:01.948Z</time></trkpt><trkpt lat="43.8652461" lon="11.2248247"><ele>442.14285714285717</ele><time>2026-04-21T15:25:03.955Z</time></trkpt><trkpt lat="43.8653196" lon="11.224844"><ele>444.7142857142857</ele><time>2026-04-21T15:25:06.945Z</time></trkpt><trkpt lat="43.8653457" lon="11.2249438"><ele>447.2857142857143</ele><time>2026-04-21T15:25:10.947Z</time></trkpt><trkpt lat="43.8653626" lon="11.2250503"><ele>449.8571428571429</ele><time>2026-04-21T15:25:13.95Z</time></trkpt><trkpt lat="43.8654385" lon="11.2250673"><ele>452.42857142857144</ele><time>2026-04-21T15:25:16.949Z</time></trkpt><trkpt lat="43.8654856" lon="11.2251283"><ele>455.0</ele><time>2026-04-21T15:25:20.953Z</time></trkpt><trkpt lat="43.865472" lon="11.2252337"><ele>454.99999999999994</ele><time>2026-04-21T15:25:25.948Z</time></trkpt><trkpt lat="43.8654745" lon="11.2253541"><ele>455.0</ele><time>2026-04-21T15:25:28.948Z</time></trkpt><trkpt lat="43.8654755" lon="11.225455"><ele>455.0</ele><time>2026-04-21T15:25:30.952Z</time></trkpt><trkpt lat="43.8654627" lon="11.225551"><ele>455.0</ele><time>2026-04-21T15:25:32.949Z</time></trkpt><trkpt lat="43.8654509" lon="11.2256533"><ele>454.99999999999994</ele><time>2026-04-21T15:25:34.953Z</time></trkpt><trkpt lat="43.8654541" lon="11.2257452"><ele>455.0</ele><time>2026-04-21T15:25:36.954Z</time></trkpt><trkpt lat="43.8654767" lon="11.2258596"><ele>457.99999999999994</ele><time>2026-04-21T15:25:39.949Z</time></trkpt><trkpt lat="43.8655234" lon="11.2259488"><ele>461.0</ele><time>2026-04-21T15:25:42.95Z</time></trkpt><trkpt lat="43.8655966" lon="11.2260102"><ele>464.0</ele><time>2026-04-21T15:25:46.039Z</time></trkpt><trkpt lat="43.865679" lon="11.2259979"><ele>467.0</ele><time>2026-04-21T15:25:49.951Z</time></trkpt><trkpt lat="43.8657299" lon="11.2259389"><ele>469.99999999999994</ele><time>2026-04-21T15:25:51.961Z</time></trkpt><trkpt lat="43.8658" lon="11.2258792"><ele>473.0</ele><time>2026-04-21T15:25:54.946Z</time></trkpt><trkpt lat="43.8658853" lon="11.225876"><ele>478.66666666666663</ele><time>2026-04-21T15:25:57.955Z</time></trkpt><trkpt lat="43.865956" lon="11.2258687"><ele>484.3333333333333</ele><time>2026-04-21T15:25:59.95Z</time></trkpt><trkpt lat="43.8660445" lon="11.2258781"><ele>490.0</ele><time>2026-04-21T15:26:01.953Z</time></trkpt><trkpt lat="43.8661417" lon="11.2258609"><ele>495.66666666666663</ele><time>2026-04-21T15:26:04.026Z</time></trkpt><trkpt lat="43.8662335" lon="11.2258417"><ele>501.3333333333333</ele><time>2026-04-21T15:26:06.031Z</time></trkpt><trkpt lat="43.8663047" lon="11.2257973"><ele>507.0</ele><time>2026-04-21T15:26:07.958Z</time></trkpt><trkpt lat="43.8663727" lon="11.225772"><ele>507.0</ele><time>2026-04-21T15:26:09.956Z</time></trkpt><trkpt lat="43.8664637" lon="11.2257412"><ele>507.0</ele><time>2026-04-21T15:26:11.956Z</time></trkpt><trkpt lat="43.8665448" lon="11.2257268"><ele>507.0</ele><time>2026-04-21T15:26:13.959Z</time></trkpt><trkpt lat="43.8666439" lon="11.2257284"><ele>507.0</ele><time>2026-04-21T15:26:16.031Z</time></trkpt><trkpt lat="43.8667201" lon="11.2257195"><ele>507.0</ele><time>2026-04-21T15:26:17.954Z</time></trkpt><trkpt lat="43.866814" lon="11.2257146"><ele>507.0</ele><time>2026-04-21T15:26:20.95Z</time></trkpt><trkpt lat="43.8668909" lon="11.2256973"><ele>506.3333333333333</ele><time>2026-04-21T15:26:22.951Z</time></trkpt><trkpt lat="43.8669717" lon="11.2256676"><ele>505.66666666666663</ele><time>2026-04-21T15:26:24.95Z</time></trkpt><trkpt lat="43.867042" lon="11.2256562"><ele>505.0</ele><time>2026-04-21T15:26:26.954Z</time></trkpt><trkpt lat="43.8671169" lon="11.2256495"><ele>504.3333333333333</ele><time>2026-04-21T15:26:29.954Z</time></trkpt><trkpt lat="43.8672012" lon="11.2256537"><ele>503.66666666666663</ele><time>2026-04-21T15:26:32.956Z</time></trkpt><trkpt lat="43.8672874" lon="11.2256391"><ele>503.0</ele><time>2026-04-21T15:26:36.027Z</time></trkpt><trkpt lat="43.8673536" lon="11.2256407"><ele>502.99999999999994</ele><time>2026-04-21T15:26:37.953Z</time></trkpt><trkpt lat="43.867444" lon="11.2256181"><ele>503.0</ele><time>2026-04-21T15:26:40.956Z</time></trkpt><trkpt lat="43.8675054" lon="11.2255927"><ele>503.0</ele><time>2026-04-21T15:26:42.957Z</time></trkpt><trkpt lat="43.8675941" lon="11.2255894"><ele>503.0</ele><time>2026-04-21T15:26:45.953Z</time></trkpt><trkpt lat="43.8676802" lon="11.2255909"><ele>502.99999999999994</ele><time>2026-04-21T15:26:48.96Z</time></trkpt><trkpt lat="43.8677503" lon="11.2256002"><ele>503.0</ele><time>2026-04-21T15:26:50.958Z</time></trkpt><trkpt lat="43.8678299" lon="11.2256078"><ele>505.28571428571433</ele><time>2026-04-21T15:26:52.96Z</time></trkpt><trkpt lat="43.8678935" lon="11.2256217"><ele>507.5714285714286</ele><time>2026-04-21T15:26:54.957Z</time></trkpt><trkpt lat="43.8679603" lon="11.225638"><ele>509.8571428571429</ele><time>2026-04-21T15:26:56.955Z</time></trkpt><trkpt lat="43.8680246" lon="11.2256326"><ele>512.1428571428571</ele><time>2026-04-21T15:26:58.95Z</time></trkpt><trkpt lat="43.8681072" lon="11.2256368"><ele>514.4285714285713</ele><time>2026-04-21T15:27:01.954Z</time></trkpt><trkpt lat="43.8681728" lon="11.2256568"><ele>516.7142857142857</ele><time>2026-04-21T15:27:03.955Z</time></trkpt><trkpt lat="43.8682577" lon="11.225704"><ele>519.0</ele><time>2026-04-21T15:27:06.952Z</time></trkpt><trkpt lat="43.8683189" lon="11.2257366"><ele>524.3333333333334</ele><time>2026-04-21T15:27:08.981Z</time></trkpt><trkpt lat="43.8684005" lon="11.2258049"><ele>529.6666666666666</ele><time>2026-04-21T15:27:11.95Z</time></trkpt><trkpt lat="43.8684709" lon="11.2258568"><ele>535.0</ele><time>2026-04-21T15:27:14.955Z</time></trkpt><trkpt lat="43.8685358" lon="11.2259117"><ele>540.3333333333333</ele><time>2026-04-21T15:27:17.953Z</time></trkpt><trkpt lat="43.8686196" lon="11.2259529"><ele>545.6666666666666</ele><time>2026-04-21T15:27:20.945Z</time></trkpt><trkpt lat="43.8686848" lon="11.2259939"><ele>551.0</ele><time>2026-04-21T15:27:22.957Z</time></trkpt><trkpt lat="43.868769" lon="11.2260311"><ele>551.3333333333333</ele><time>2026-04-21T15:27:25.956Z</time></trkpt><trkpt lat="43.8688523" lon="11.2260932"><ele>551.6666666666666</ele><time>2026-04-21T15:27:28.953Z</time></trkpt><trkpt lat="43.868901" lon="11.2261516"><ele>552.0</ele><time>2026-04-21T15:27:30.956Z</time></trkpt><trkpt lat="43.8689368" lon="11.226264"><ele>552.3333333333334</ele><time>2026-04-21T15:27:32.951Z</time></trkpt><trkpt lat="43.8689596" lon="11.2263661"><ele>552.6666666666667</ele><time>2026-04-21T15:27:34.953Z</time></trkpt><trkpt lat="43.8689679" lon="11.2264605"><ele>553.0</ele><time>2026-04-21T15:27:36.958Z</time></trkpt><trkpt lat="43.8689513" lon="11.226567"><ele>555.6666666666667</ele><time>2026-04-21T15:27:38.952Z</time></trkpt><trkpt lat="43.8689218" lon="11.2266518"><ele>558.3333333333334</ele><time>2026-04-21T15:27:40.957Z</time></trkpt><trkpt lat="43.8689024" lon="11.2267548"><ele>561.0</ele><time>2026-04-21T15:27:42.956Z</time></trkpt><trkpt lat="43.8688946" lon="11.2268541"><ele>563.6666666666666</ele><time>2026-04-21T15:27:44.951Z</time></trkpt><trkpt lat="43.8688617" lon="11.2269583"><ele>566.3333333333333</ele><time>2026-04-21T15:27:46.953Z</time></trkpt><trkpt lat="43.8688193" lon="11.2270794"><ele>569.0</ele><time>2026-04-21T15:27:48.979Z</time></trkpt><trkpt lat="43.8687861" lon="11.2271793"><ele>569.0</ele><time>2026-04-21T15:27:50.95Z</time></trkpt><trkpt lat="43.8687393" lon="11.2272617"><ele>569.0</ele><time>2026-04-21T15:27:52.957Z</time></trkpt><trkpt lat="43.8687035" lon="11.2273457"><ele>569.0</ele><time>2026-04-21T15:27:54.946Z</time></trkpt><trkpt lat="43.8686748" lon="11.227457"><ele>569.0</ele><time>2026-04-21T15:27:56.953Z</time></trkpt><trkpt lat="43.8686553" lon="11.2275761"><ele>569.0</ele><time>2026-04-21T15:27:58.997Z</time></trkpt><trkpt lat="43.8686472" lon="11.2276821"><ele>569.0</ele><time>2026-04-21T15:28:00.958Z</time></trkpt><trkpt lat="43.8686491" lon="11.227785"><ele>571.2857142857143</ele><time>2026-04-21T15:28:02.955Z</time></trkpt><trkpt lat="43.868646" lon="11.2278857"><ele>573.5714285714286</ele><time>2026-04-21T15:28:05.01Z</time></trkpt><trkpt lat="43.8686308" lon="11.228003"><ele>575.8571428571429</ele><time>2026-04-21T15:28:07.955Z</time></trkpt><trkpt lat="43.8686305" lon="11.2280965"><ele>578.1428571428571</ele><time>2026-04-21T15:28:09.953Z</time></trkpt><trkpt lat="43.8686357" lon="11.2281866"><ele>580.4285714285714</ele><time>2026-04-21T15:28:11.952Z</time></trkpt><trkpt lat="43.8686322" lon="11.2282845"><ele>582.7142857142858</ele><time>2026-04-21T15:28:13.956Z</time></trkpt><trkpt lat="43.8686312" lon="11.2283873"><ele>585.0</ele><time>2026-04-21T15:28:15.957Z</time></trkpt><trkpt lat="43.8686438" lon="11.2284788"><ele>587.8333333333334</ele><time>2026-04-21T15:28:17.956Z</time></trkpt><trkpt lat="43.8686584" lon="11.2285764"><ele>590.6666666666666</ele><time>2026-04-21T15:28:20.951Z</time></trkpt><trkpt lat="43.8686546" lon="11.2286868"><ele>593.5</ele><time>2026-04-21T15:28:23.943Z</time></trkpt><trkpt lat="43.8686657" lon="11.2288174"><ele>596.3333333333333</ele><time>2026-04-21T15:28:26.957Z</time></trkpt><trkpt lat="43.8686727" lon="11.2289337"><ele>599.1666666666666</ele><time>2026-04-21T15:28:28.951Z</time></trkpt><trkpt lat="43.8686916" lon="11.2290278"><ele>602.0</ele><time>2026-04-21T15:28:30.954Z</time></trkpt><trkpt lat="43.868696" lon="11.2291171"><ele>606.1666666666666</ele><time>2026-04-21T15:28:33.955Z</time></trkpt><trkpt lat="43.8687065" lon="11.2292246"><ele>610.3333333333333</ele><time>2026-04-21T15:28:38.952Z</time></trkpt><trkpt lat="43.8687052" lon="11.2293189"><ele>614.5</ele><time>2026-04-21T15:28:41.954Z</time></trkpt><trkpt lat="43.8686949" lon="11.2294612"><ele>618.6666666666666</ele><time>2026-04-21T15:28:44.943Z</time></trkpt><trkpt lat="43.8687367" lon="11.2295317"><ele>622.8333333333334</ele><time>2026-04-21T15:28:47.951Z</time></trkpt><trkpt lat="43.8688135" lon="11.2295829"><ele>627.0</ele><time>2026-04-21T15:28:50.953Z</time></trkpt><trkpt lat="43.8688946" lon="11.2296037"><ele>627.0</ele><time>2026-04-21T15:28:54.956Z</time></trkpt><trkpt lat="43.8689625" lon="11.2296035"><ele>627.0</ele><time>2026-04-21T15:28:57.951Z</time></trkpt><trkpt lat="43.8690507" lon="11.2296085"><ele>627.0</ele><time>2026-04-21T15:29:00.954Z</time></trkpt><trkpt lat="43.8691364" lon="11.2296114"><ele>627.0</ele><time>2026-04-21T15:29:03.953Z</time></trkpt><trkpt lat="43.8692145" lon="11.2296387"><ele>627.0</ele><time>2026-04-21T15:29:06.946Z</time></trkpt><trkpt lat="43.869298" lon="11.2296552"><ele>627.0</ele><time>2026-04-21T15:29:09.956Z</time></trkpt><trkpt lat="43.8693595" lon="11.2297098"><ele>627.1428571428571</ele><time>2026-04-21T15:29:11.954Z</time></trkpt><trkpt lat="43.8694152" lon="11.2297755"><ele>627.2857142857142</ele><time>2026-04-21T15:29:13.968Z</time></trkpt><trkpt lat="43.8694797" lon="11.2298467"><ele>627.4285714285713</ele><time>2026-04-21T15:29:15.958Z</time></trkpt><trkpt lat="43.8695358" lon="11.229901"><ele>627.5714285714286</ele><time>2026-04-21T15:29:17.958Z</time></trkpt><trkpt lat="43.8695875" lon="11.2299657"><ele>627.7142857142857</ele><time>2026-04-21T15:29:19.959Z</time></trkpt><trkpt lat="43.8696483" lon="11.2299966"><ele>627.8571428571428</ele><time>2026-04-21T15:29:21.955Z</time></trkpt><trkpt lat="43.8697303" lon="11.2300154"><ele>628.0</ele><time>2026-04-21T15:29:24.957Z</time></trkpt><trkpt lat="43.8697929" lon="11.2300333"><ele>632.8333333333334</ele><time>2026-04-21T15:29:26.942Z</time></trkpt><trkpt lat="43.8698816" lon="11.2300538"><ele>637.6666666666667</ele><time>2026-04-21T15:29:30.023Z</time></trkpt><trkpt lat="43.8699317" lon="11.2301156"><ele>642.5</ele><time>2026-04-21T15:29:31.95Z</time></trkpt><trkpt lat="43.8699843" lon="11.2301739"><ele>647.3333333333334</ele><time>2026-04-21T15:29:33.954Z</time></trkpt><trkpt lat="43.8700707" lon="11.2302453"><ele>652.1666666666666</ele><time>2026-04-21T15:29:37.947Z</time></trkpt><trkpt lat="43.8701317" lon="11.2302994"><ele>657.0</ele><time>2026-04-21T15:29:39.95Z</time></trkpt><trkpt lat="43.8701846" lon="11.2303602"><ele>657.5</ele><time>2026-04-21T15:29:41.956Z</time></trkpt><trkpt lat="43.8702561" lon="11.2304309"><ele>658.0</ele><time>2026-04-21T15:29:45.029Z</time></trkpt><trkpt lat="43.8703112" lon="11.2305083"><ele>658.5</ele><time>2026-04-21T15:29:47.956Z</time></trkpt><trkpt lat="43.8703763" lon="11.2305552"><ele>659.0</ele><time>2026-04-21T15:29:51.951Z</time></trkpt><trkpt lat="43.8704375" lon="11.2305895"><ele>659.5</ele><time>2026-04-21T15:29:54.959Z</time></trkpt><trkpt lat="43.8705138" lon="11.2306424"><ele>660.0</ele><time>2026-04-21T15:29:57.959Z</time></trkpt><trkpt lat="43.8705841" lon="11.2306868"><ele>665.1666666666666</ele><time>2026-04-21T15:30:00.954Z</time></trkpt><trkpt lat="43.8706476" lon="11.2306942"><ele>670.3333333333334</ele><time>2026-04-21T15:30:02.951Z</time></trkpt><trkpt lat="43.8707106" lon="11.2306826"><ele>675.5</ele><time>2026-04-21T15:30:05.016Z</time></trkpt><trkpt lat="43.8707946" lon="11.2306738"><ele>680.6666666666667</ele><time>2026-04-21T15:30:06.945Z</time></trkpt><trkpt lat="43.8709068" lon="11.2307132"><ele>685.8333333333334</ele><time>2026-04-21T15:30:08.993Z</time></trkpt><trkpt lat="43.870973" lon="11.2307365"><ele>691.0</ele><time>2026-04-21T15:30:09.955Z</time></trkpt><trkpt lat="43.8710975" lon="11.2307572"><ele>693.0</ele><time>2026-04-21T15:30:11.959Z</time></trkpt><trkpt lat="43.8711633" lon="11.2307683"><ele>695.0</ele><time>2026-04-21T15:30:12.956Z</time></trkpt><trkpt lat="43.8712863" lon="11.2307397"><ele>697.0</ele><time>2026-04-21T15:30:14.956Z</time></trkpt><trkpt lat="43.8713605" lon="11.2307298"><ele>699.0</ele><time>2026-04-21T15:30:15.945Z</time></trkpt><trkpt lat="43.8714642" lon="11.2307087"><ele>701.0</ele><time>2026-04-21T15:30:17.958Z</time></trkpt><trkpt lat="43.871587" lon="11.2306773"><ele>701.0</ele><time>2026-04-21T15:30:19.955Z</time></trkpt><trkpt lat="43.8716523" lon="11.2306555"><ele>701.0</ele><time>2026-04-21T15:30:20.95Z</time></trkpt><trkpt lat="43.8717162" lon="11.2306677"><ele>701.0</ele><time>2026-04-21T15:30:21.954Z</time></trkpt><trkpt lat="43.8718274" lon="11.2306913"><ele>701.0</ele><time>2026-04-21T15:30:23.957Z</time></trkpt><trkpt lat="43.8719216" lon="11.2307211"><ele>701.0</ele><time>2026-04-21T15:30:26.015Z</time></trkpt><trkpt lat="43.8720115" lon="11.2307534"><ele>701.0</ele><time>2026-04-21T15:30:27.951Z</time></trkpt><trkpt lat="43.8720985" lon="11.2307603"><ele>704.0</ele><time>2026-04-21T15:30:29.954Z</time></trkpt><trkpt lat="43.8721998" lon="11.2307697"><ele>707.0</ele><time>2026-04-21T15:30:33.013Z</time></trkpt><trkpt lat="43.8722819" lon="11.2307847"><ele>710.0</ele><time>2026-04-21T15:30:35.014Z</time></trkpt><trkpt lat="43.8723665" lon="11.2308072"><ele>713.0</ele><time>2026-04-21T15:30:36.948Z</time></trkpt><trkpt lat="43.872463" lon="11.2308394"><ele>716.0</ele><time>2026-04-21T15:30:38.952Z</time></trkpt><trkpt lat="43.8725466" lon="11.2308567"><ele>715.1666666666666</ele><time>2026-04-21T15:30:40.959Z</time></trkpt><trkpt lat="43.8726305" lon="11.2308963"><ele>714.3333333333333</ele><time>2026-04-21T15:30:42.948Z</time></trkpt><trkpt lat="43.8726941" lon="11.2309238"><ele>713.5</ele><time>2026-04-21T15:30:45.031Z</time></trkpt><trkpt lat="43.8727846" lon="11.2309483"><ele>712.6666666666666</ele><time>2026-04-21T15:30:46.946Z</time></trkpt><trkpt lat="43.8728807" lon="11.2309854"><ele>711.8333333333334</ele><time>2026-04-21T15:30:48.94Z</time></trkpt><trkpt lat="43.8729605" lon="11.2309967"><ele>711.0</ele><time>2026-04-21T15:30:50.95Z</time></trkpt><trkpt lat="43.8730253" lon="11.2310192"><ele>711.0</ele><time>2026-04-21T15:30:52.943Z</time></trkpt><trkpt lat="43.8730835" lon="11.2310565"><ele>711.0</ele><time>2026-04-21T15:30:54.952Z</time></trkpt><trkpt lat="43.8731637" lon="11.231105"><ele>711.0</ele><time>2026-04-21T15:30:57.954Z</time></trkpt><trkpt lat="43.8732337" lon="11.2311659"><ele>711.0</ele><time>2026-04-21T15:30:59.948Z</time></trkpt><trkpt lat="43.873291" lon="11.2312291"><ele>711.0</ele><time>2026-04-21T15:31:01.955Z</time></trkpt><trkpt lat="43.8733703" lon="11.2312851"><ele>711.0</ele><time>2026-04-21T15:31:05.03Z</time></trkpt><trkpt lat="43.8734306" lon="11.2313545"><ele>709.8333333333334</ele><time>2026-04-21T15:31:06.955Z</time></trkpt><trkpt lat="43.8735031" lon="11.231414"><ele>708.6666666666666</ele><time>2026-04-21T15:31:08.957Z</time></trkpt><trkpt lat="43.8735819" lon="11.2314548"><ele>707.5</ele><time>2026-04-21T15:31:10.957Z</time></trkpt><trkpt lat="43.8736585" lon="11.231483"><ele>706.3333333333333</ele><time>2026-04-21T15:31:12.969Z</time></trkpt><trkpt lat="43.8737414" lon="11.2315222"><ele>705.1666666666666</ele><time>2026-04-21T15:31:14.95Z</time></trkpt><trkpt lat="43.8738177" lon="11.2315631"><ele>704.0</ele><time>2026-04-21T15:31:16.957Z</time></trkpt><trkpt lat="43.8738906" lon="11.2315809"><ele>710.0</ele><time>2026-04-21T15:31:19.049Z</time></trkpt><trkpt lat="43.873956" lon="11.2316156"><ele>716.0</ele><time>2026-04-21T15:31:20.96Z</time></trkpt><trkpt lat="43.8740103" lon="11.2316758"><ele>722.0</ele><time>2026-04-21T15:31:22.956Z</time></trkpt><trkpt lat="43.8740687" lon="11.2317092"><ele>728.0</ele><time>2026-04-21T15:31:25.017Z</time></trkpt><trkpt lat="43.8741417" lon="11.231729"><ele>734.0</ele><time>2026-04-21T15:31:27.961Z</time></trkpt><trkpt lat="43.8742048" lon="11.2317222"><ele>740.0</ele><time>2026-04-21T15:31:29.949Z</time></trkpt><trkpt lat="43.8742821" lon="11.2317516"><ele>746.0</ele><time>2026-04-21T15:31:32.957Z</time></trkpt><trkpt lat="43.874353" lon="11.2317808"><ele>746.6666666666666</ele><time>2026-04-21T15:31:35.956Z</time></trkpt><trkpt lat="43.8744306" lon="11.2318431"><ele>747.3333333333333</ele><time>2026-04-21T15:31:39.05Z</time></trkpt><trkpt lat="43.8745059" lon="11.2318938"><ele>748.0</ele><time>2026-04-21T15:31:41.95Z</time></trkpt><trkpt lat="43.8745584" lon="11.2319486"><ele>748.6666666666666</ele><time>2026-04-21T15:31:44.956Z</time></trkpt><trkpt lat="43.8746249" lon="11.2320119"><ele>749.3333333333334</ele><time>2026-04-21T15:31:47.962Z</time></trkpt><trkpt lat="43.8747028" lon="11.2320624"><ele>750.0</ele><time>2026-04-21T15:31:50.964Z</time></trkpt><trkpt lat="43.8747762" lon="11.2320882"><ele>750.0</ele><time>2026-04-21T15:31:53.956Z</time></trkpt><trkpt lat="43.8748523" lon="11.2321253"><ele>750.0</ele><time>2026-04-21T15:31:57.954Z</time></trkpt><trkpt lat="43.8749098" lon="11.2321709"><ele>750.0</ele><time>2026-04-21T15:32:00.96Z</time></trkpt><trkpt lat="43.874996" lon="11.2322188"><ele>750.0</ele><time>2026-04-21T15:32:03.953Z</time></trkpt><trkpt lat="43.875067" lon="11.2322415"><ele>750.0</ele><time>2026-04-21T15:32:06.037Z</time></trkpt><trkpt lat="43.875147" lon="11.2322719"><ele>750.0</ele><time>2026-04-21T15:32:07.958Z</time></trkpt><trkpt lat="43.8752162" lon="11.2322978"><ele>756.1666666666666</ele><time>2026-04-21T15:32:09.953Z</time></trkpt><trkpt lat="43.875279" lon="11.2323183"><ele>762.3333333333333</ele><time>2026-04-21T15:32:11.955Z</time></trkpt><trkpt lat="43.8753605" lon="11.232361"><ele>768.5</ele><time>2026-04-21T15:32:14.957Z</time></trkpt><trkpt lat="43.8754367" lon="11.2323972"><ele>774.6666666666666</ele><time>2026-04-21T15:32:17.959Z</time></trkpt><trkpt lat="43.8755075" lon="11.2324376"><ele>780.8333333333333</ele><time>2026-04-21T15:32:20.966Z</time></trkpt><trkpt lat="43.8755935" lon="11.232471"><ele>787.0</ele><time>2026-04-21T15:32:23.968Z</time></trkpt><trkpt lat="43.8756699" lon="11.2325101"><ele>786.9999999999999</ele><time>2026-04-21T15:32:26.959Z</time></trkpt><trkpt lat="43.8757396" lon="11.2325479"><ele>787.0</ele><time>2026-04-21T15:32:29.973Z</time></trkpt><trkpt lat="43.8758059" lon="11.2325728"><ele>787.0</ele><time>2026-04-21T15:32:32.967Z</time></trkpt><trkpt lat="43.8758946" lon="11.232595"><ele>787.0</ele><time>2026-04-21T15:32:35.95Z</time></trkpt><trkpt lat="43.8759586" lon="11.2326185"><ele>786.9999999999999</ele><time>2026-04-21T15:32:38.03Z</time></trkpt><trkpt lat="43.8760465" lon="11.2326423"><ele>787.0</ele><time>2026-04-21T15:32:40.958Z</time></trkpt><trkpt lat="43.8761209" lon="11.2326976"><ele>786.9999999999999</ele><time>2026-04-21T15:32:43.96Z</time></trkpt><trkpt lat="43.8761759" lon="11.232779"><ele>787.0</ele><time>2026-04-21T15:32:46.957Z</time></trkpt><trkpt lat="43.8761569" lon="11.2328656"><ele>787.0</ele><time>2026-04-21T15:32:51.964Z</time></trkpt><trkpt lat="43.8760844" lon="11.2328419"><ele>787.0</ele><time>2026-04-21T15:36:04.951Z</time></trkpt><trkpt lat="43.8760098" lon="11.2328598"><ele>786.9999999999999</ele><time>2026-04-21T15:36:07.956Z</time></trkpt><trkpt lat="43.8759111" lon="11.232875"><ele>787.0</ele><time>2026-04-21T15:36:10.953Z</time></trkpt><trkpt lat="43.875825" lon="11.2329134"><ele>787.0</ele><time>2026-04-21T15:36:12.949Z</time></trkpt><trkpt lat="43.875755" lon="11.23294"><ele>787.0</ele><time>2026-04-21T15:36:14.95Z</time></trkpt><trkpt lat="43.8756651" lon="11.2329717"><ele>787.0</ele><time>2026-04-21T15:36:16.948Z</time></trkpt><trkpt lat="43.8755774" lon="11.2329888"><ele>787.0</ele><time>2026-04-21T15:36:18.937Z</time></trkpt><trkpt lat="43.8754707" lon="11.2330128"><ele>787.0</ele><time>2026-04-21T15:36:20.951Z</time></trkpt><trkpt lat="43.8753675" lon="11.2330466"><ele>787.0</ele><time>2026-04-21T15:36:22.953Z</time></trkpt><trkpt lat="43.8752566" lon="11.2330619"><ele>787.0</ele><time>2026-04-21T15:36:24.952Z</time></trkpt><trkpt lat="43.8751496" lon="11.2330824"><ele>787.0</ele><time>2026-04-21T15:36:26.952Z</time></trkpt><trkpt lat="43.8750452" lon="11.2330923"><ele>787.0</ele><time>2026-04-21T15:36:28.954Z</time></trkpt><trkpt lat="43.8749426" lon="11.2330908"><ele>787.0</ele><time>2026-04-21T15:36:30.949Z</time></trkpt><trkpt lat="43.8748366" lon="11.2330911"><ele>784.5</ele><time>2026-04-21T15:36:32.95Z</time></trkpt><trkpt lat="43.8747139" lon="11.2330745"><ele>782.0</ele><time>2026-04-21T15:36:34.952Z</time></trkpt><trkpt lat="43.874599" lon="11.233045"><ele>779.5</ele><time>2026-04-21T15:36:36.95Z</time></trkpt><trkpt lat="43.8744823" lon="11.2330203"><ele>777.0</ele><time>2026-04-21T15:36:39.015Z</time></trkpt><trkpt lat="43.8743744" lon="11.2329938"><ele>776.6</ele><time>2026-04-21T15:36:40.955Z</time></trkpt><trkpt lat="43.8742668" lon="11.2329624"><ele>776.2</ele><time>2026-04-21T15:36:42.954Z</time></trkpt><trkpt lat="43.8741604" lon="11.2329295"><ele>775.8</ele><time>2026-04-21T15:36:44.955Z</time></trkpt><trkpt lat="43.8740574" lon="11.2328847"><ele>775.4</ele><time>2026-04-21T15:36:46.949Z</time></trkpt><trkpt lat="43.8739576" lon="11.2328274"><ele>775.0</ele><time>2026-04-21T15:36:49.011Z</time></trkpt><trkpt lat="43.873851" lon="11.2327689"><ele>774.9999999999999</ele><time>2026-04-21T15:36:50.953Z</time></trkpt><trkpt lat="43.8737577" lon="11.2327002"><ele>775.0</ele><time>2026-04-21T15:36:52.955Z</time></trkpt><trkpt lat="43.8736568" lon="11.2326345"><ele>775.0</ele><time>2026-04-21T15:36:54.961Z</time></trkpt><trkpt lat="43.873599" lon="11.2325966"><ele>775.0</ele><time>2026-04-21T15:36:55.953Z</time></trkpt><trkpt lat="43.8735395" lon="11.2325602"><ele>774.9999999999999</ele><time>2026-04-21T15:36:56.952Z</time></trkpt><trkpt lat="43.8734773" lon="11.2325248"><ele>775.0</ele><time>2026-04-21T15:36:57.985Z</time></trkpt><trkpt lat="43.8734099" lon="11.2324949"><ele>775.1666666666666</ele><time>2026-04-21T15:36:58.947Z</time></trkpt><trkpt lat="43.8733397" lon="11.232472"><ele>775.3333333333333</ele><time>2026-04-21T15:36:59.941Z</time></trkpt><trkpt lat="43.873275" lon="11.2324414"><ele>775.5</ele><time>2026-04-21T15:37:00.957Z</time></trkpt><trkpt lat="43.8732093" lon="11.2324153"><ele>775.6666666666667</ele><time>2026-04-21T15:37:01.948Z</time></trkpt><trkpt lat="43.8731432" lon="11.2324034"><ele>775.8333333333334</ele><time>2026-04-21T15:37:02.952Z</time></trkpt><trkpt lat="43.8730106" lon="11.2323924"><ele>776.0</ele><time>2026-04-21T15:37:04.955Z</time></trkpt><trkpt lat="43.8729455" lon="11.2323864"><ele>776.0</ele><time>2026-04-21T15:37:05.96Z</time></trkpt><trkpt lat="43.8728805" lon="11.2323781"><ele>776.0</ele><time>2026-04-21T15:37:07.011Z</time></trkpt><trkpt lat="43.8728173" lon="11.232362"><ele>776.0</ele><time>2026-04-21T15:37:07.955Z</time></trkpt><trkpt lat="43.8727483" lon="11.2323485"><ele>776.0</ele><time>2026-04-21T15:37:08.947Z</time></trkpt><trkpt lat="43.8726773" lon="11.2323457"><ele>776.0</ele><time>2026-04-21T15:37:09.952Z</time></trkpt><trkpt lat="43.8726103" lon="11.232348"><ele>776.0</ele><time>2026-04-21T15:37:10.962Z</time></trkpt><trkpt lat="43.872543" lon="11.232351"><ele>776.0</ele><time>2026-04-21T15:37:11.951Z</time></trkpt><trkpt lat="43.872477" lon="11.2323491"><ele>775.1428571428571</ele><time>2026-04-21T15:37:12.953Z</time></trkpt><trkpt lat="43.8724076" lon="11.2323467"><ele>774.2857142857143</ele><time>2026-04-21T15:37:13.955Z</time></trkpt><trkpt lat="43.8723342" lon="11.2323491"><ele>773.4285714285714</ele><time>2026-04-21T15:37:14.958Z</time></trkpt><trkpt lat="43.8722607" lon="11.2323476"><ele>772.5714285714286</ele><time>2026-04-21T15:37:15.949Z</time></trkpt><trkpt lat="43.8721858" lon="11.232344"><ele>771.7142857142858</ele><time>2026-04-21T15:37:16.95Z</time></trkpt><trkpt lat="43.8721114" lon="11.2323488"><ele>770.8571428571429</ele><time>2026-04-21T15:37:17.954Z</time></trkpt><trkpt lat="43.8720351" lon="11.2323557"><ele>770.0</ele><time>2026-04-21T15:37:18.943Z</time></trkpt><trkpt lat="43.8719159" lon="11.2323978"><ele>770.0</ele><time>2026-04-21T15:37:20.952Z</time></trkpt><trkpt lat="43.8717975" lon="11.2324477"><ele>770.0</ele><time>2026-04-21T15:37:22.946Z</time></trkpt><trkpt lat="43.8716779" lon="11.2324931"><ele>770.0</ele><time>2026-04-21T15:37:24.958Z</time></trkpt><trkpt lat="43.8715539" lon="11.2325532"><ele>770.0</ele><time>2026-04-21T15:37:26.957Z</time></trkpt><trkpt lat="43.8714912" lon="11.232584"><ele>770.0</ele><time>2026-04-21T15:37:27.958Z</time></trkpt><trkpt lat="43.8714284" lon="11.232621"><ele>768.0</ele><time>2026-04-21T15:37:28.953Z</time></trkpt><trkpt lat="43.8713632" lon="11.2326554"><ele>766.0</ele><time>2026-04-21T15:37:29.952Z</time></trkpt><trkpt lat="43.8712989" lon="11.2326804"><ele>764.0</ele><time>2026-04-21T15:37:30.95Z</time></trkpt><trkpt lat="43.8712301" lon="11.2326923"><ele>762.0</ele><time>2026-04-21T15:37:31.961Z</time></trkpt><trkpt lat="43.871161" lon="11.2327081"><ele>760.0</ele><time>2026-04-21T15:37:32.949Z</time></trkpt><trkpt lat="43.8710948" lon="11.2327091"><ele>758.0</ele><time>2026-04-21T15:37:33.957Z</time></trkpt><trkpt lat="43.8710319" lon="11.2327039"><ele>756.0</ele><time>2026-04-21T15:37:34.96Z</time></trkpt><trkpt lat="43.870969" lon="11.2326964"><ele>753.8571428571429</ele><time>2026-04-21T15:37:35.949Z</time></trkpt><trkpt lat="43.8709031" lon="11.2326851"><ele>751.7142857142858</ele><time>2026-04-21T15:37:36.949Z</time></trkpt><trkpt lat="43.870838" lon="11.2326655"><ele>749.5714285714286</ele><time>2026-04-21T15:37:37.979Z</time></trkpt><trkpt lat="43.8707698" lon="11.2326464"><ele>747.4285714285714</ele><time>2026-04-21T15:37:38.946Z</time></trkpt><trkpt lat="43.8707032" lon="11.2326355"><ele>745.2857142857143</ele><time>2026-04-21T15:37:39.947Z</time></trkpt><trkpt lat="43.8706357" lon="11.232621"><ele>743.1428571428571</ele><time>2026-04-21T15:37:40.945Z</time></trkpt><trkpt lat="43.8705676" lon="11.2326063"><ele>741.0</ele><time>2026-04-21T15:37:41.953Z</time></trkpt><trkpt lat="43.8704986" lon="11.232601"><ele>741.0</ele><time>2026-04-21T15:37:42.94Z</time></trkpt><trkpt lat="43.8704305" lon="11.2325993"><ele>741.0</ele><time>2026-04-21T15:37:43.949Z</time></trkpt><trkpt lat="43.870318" lon="11.2326274"><ele>741.0</ele><time>2026-04-21T15:37:45.95Z</time></trkpt><trkpt lat="43.8702374" lon="11.2326847"><ele>741.0</ele><time>2026-04-21T15:37:47.957Z</time></trkpt><trkpt lat="43.8701747" lon="11.2327507"><ele>741.0</ele><time>2026-04-21T15:37:49.947Z</time></trkpt><trkpt lat="43.870099" lon="11.2328282"><ele>741.0</ele><time>2026-04-21T15:37:51.947Z</time></trkpt><trkpt lat="43.8700257" lon="11.232929"><ele>738.0</ele><time>2026-04-21T15:37:53.952Z</time></trkpt><trkpt lat="43.8699707" lon="11.233066"><ele>735.0</ele><time>2026-04-21T15:37:55.955Z</time></trkpt><trkpt lat="43.8699299" lon="11.2332135"><ele>732.0</ele><time>2026-04-21T15:37:57.951Z</time></trkpt><trkpt lat="43.8699079" lon="11.2333676"><ele>729.0</ele><time>2026-04-21T15:37:59.951Z</time></trkpt><trkpt lat="43.8698838" lon="11.2335247"><ele>729.0</ele><time>2026-04-21T15:38:01.954Z</time></trkpt><trkpt lat="43.8698672" lon="11.2336993"><ele>729.0</ele><time>2026-04-21T15:38:03.955Z</time></trkpt><trkpt lat="43.8698659" lon="11.2338796"><ele>729.0</ele><time>2026-04-21T15:38:05.947Z</time></trkpt><trkpt lat="43.8698639" lon="11.2339723"><ele>729.0</ele><time>2026-04-21T15:38:06.951Z</time></trkpt><trkpt lat="43.869867" lon="11.2340598"><ele>729.0</ele><time>2026-04-21T15:38:07.947Z</time></trkpt><trkpt lat="43.8698661" lon="11.2342209"><ele>728.0</ele><time>2026-04-21T15:38:09.953Z</time></trkpt><trkpt lat="43.8698666" lon="11.2343749"><ele>727.0</ele><time>2026-04-21T15:38:11.948Z</time></trkpt><trkpt lat="43.8698858" lon="11.2345293"><ele>726.0</ele><time>2026-04-21T15:38:13.95Z</time></trkpt><trkpt lat="43.8699024" lon="11.2346739"><ele>725.0</ele><time>2026-04-21T15:38:15.958Z</time></trkpt><trkpt lat="43.8699381" lon="11.2348303"><ele>724.0</ele><time>2026-04-21T15:38:17.954Z</time></trkpt><trkpt lat="43.8699884" lon="11.2349897"><ele>724.0</ele><time>2026-04-21T15:38:20.029Z</time></trkpt><trkpt lat="43.8700219" lon="11.2351515"><ele>724.0</ele><time>2026-04-21T15:38:22.029Z</time></trkpt><trkpt lat="43.8700469" lon="11.2352983"><ele>724.0</ele><time>2026-04-21T15:38:24.046Z</time></trkpt><trkpt lat="43.8700688" lon="11.235457"><ele>724.0</ele><time>2026-04-21T15:38:25.968Z</time></trkpt><trkpt lat="43.8700968" lon="11.235608"><ele>719.5</ele><time>2026-04-21T15:38:27.967Z</time></trkpt><trkpt lat="43.8701028" lon="11.2356954"><ele>715.0</ele><time>2026-04-21T15:38:28.989Z</time></trkpt><trkpt lat="43.8701201" lon="11.2359549"><ele>710.5</ele><time>2026-04-21T15:38:31.989Z</time></trkpt><trkpt lat="43.8701179" lon="11.2361287"><ele>706.0</ele><time>2026-04-21T15:38:33.98Z</time></trkpt><trkpt lat="43.8701206" lon="11.2362855"><ele>705.3333333333334</ele><time>2026-04-21T15:38:35.967Z</time></trkpt><trkpt lat="43.8701302" lon="11.236427"><ele>704.6666666666667</ele><time>2026-04-21T15:38:37.973Z</time></trkpt><trkpt lat="43.8701356" lon="11.2365975"><ele>704.0</ele><time>2026-04-21T15:38:40.049Z</time></trkpt><trkpt lat="43.8701231" lon="11.2366965"><ele>703.3333333333334</ele><time>2026-04-21T15:38:40.962Z</time></trkpt><trkpt lat="43.8700867" lon="11.2367852"><ele>702.6666666666666</ele><time>2026-04-21T15:38:41.96Z</time></trkpt><trkpt lat="43.8700429" lon="11.2368619"><ele>702.0</ele><time>2026-04-21T15:38:42.981Z</time></trkpt><trkpt lat="43.8699887" lon="11.2369098"><ele>702.0</ele><time>2026-04-21T15:38:44.038Z</time></trkpt><trkpt lat="43.8698751" lon="11.2369744"><ele>702.0</ele><time>2026-04-21T15:38:45.949Z</time></trkpt><trkpt lat="43.8698155" lon="11.23702"><ele>702.0</ele><time>2026-04-21T15:38:47.028Z</time></trkpt><trkpt lat="43.8697572" lon="11.2370596"><ele>702.0</ele><time>2026-04-21T15:38:47.968Z</time></trkpt><trkpt lat="43.8696954" lon="11.2370998"><ele>702.0</ele><time>2026-04-21T15:38:48.97Z</time></trkpt><trkpt lat="43.8696347" lon="11.2371418"><ele>702.0</ele><time>2026-04-21T15:38:49.966Z</time></trkpt><trkpt lat="43.8695774" lon="11.2371871"><ele>702.0000000000001</ele><time>2026-04-21T15:38:50.969Z</time></trkpt><trkpt lat="43.8695211" lon="11.2372446"><ele>702.0</ele><time>2026-04-21T15:38:51.971Z</time></trkpt><trkpt lat="43.8694591" lon="11.2372952"><ele>702.0</ele><time>2026-04-21T15:38:53.033Z</time></trkpt><trkpt lat="43.8694055" lon="11.2373435"><ele>702.0</ele><time>2026-04-21T15:38:54.041Z</time></trkpt><trkpt lat="43.8693498" lon="11.2374048"><ele>702.0</ele><time>2026-04-21T15:38:54.957Z</time></trkpt><trkpt lat="43.8692931" lon="11.2374603"><ele>702.0000000000001</ele><time>2026-04-21T15:38:55.961Z</time></trkpt><trkpt lat="43.8692361" lon="11.237505"><ele>702.0</ele><time>2026-04-21T15:38:56.954Z</time></trkpt><trkpt lat="43.8691821" lon="11.2375508"><ele>699.5</ele><time>2026-04-21T15:38:57.955Z</time></trkpt><trkpt lat="43.8691266" lon="11.2375934"><ele>697.0</ele><time>2026-04-21T15:38:58.956Z</time></trkpt><trkpt lat="43.8690306" lon="11.2376905"><ele>694.5</ele><time>2026-04-21T15:39:00.96Z</time></trkpt><trkpt lat="43.8689758" lon="11.2377456"><ele>692.0</ele><time>2026-04-21T15:39:01.963Z</time></trkpt><trkpt lat="43.8689286" lon="11.2378071"><ele>689.5</ele><time>2026-04-21T15:39:02.958Z</time></trkpt><trkpt lat="43.8688504" lon="11.2379344"><ele>687.0</ele><time>2026-04-21T15:39:04.965Z</time></trkpt><trkpt lat="43.8687865" lon="11.2380763"><ele>692.1666666666666</ele><time>2026-04-21T15:39:06.961Z</time></trkpt><trkpt lat="43.8687676" lon="11.2381601"><ele>697.3333333333334</ele><time>2026-04-21T15:39:07.959Z</time></trkpt><trkpt lat="43.868749" lon="11.2382469"><ele>702.5</ele><time>2026-04-21T15:39:08.958Z</time></trkpt><trkpt lat="43.8687187" lon="11.2383288"><ele>707.6666666666667</ele><time>2026-04-21T15:39:10.033Z</time></trkpt><trkpt lat="43.8686536" lon="11.2384761"><ele>712.8333333333334</ele><time>2026-04-21T15:39:11.946Z</time></trkpt><trkpt lat="43.8686054" lon="11.2385438"><ele>718.0</ele><time>2026-04-21T15:39:12.961Z</time></trkpt><trkpt lat="43.8685582" lon="11.2386098"><ele>718.0</ele><time>2026-04-21T15:39:14.015Z</time></trkpt><trkpt lat="43.8685025" lon="11.2386662"><ele>718.0</ele><time>2026-04-21T15:39:15.029Z</time></trkpt><trkpt lat="43.8684362" lon="11.2387162"><ele>718.0</ele><time>2026-04-21T15:39:15.975Z</time></trkpt><trkpt lat="43.868374" lon="11.2387603"><ele>718.0</ele><time>2026-04-21T15:39:16.976Z</time></trkpt><trkpt lat="43.868302" lon="11.2387982"><ele>718.0</ele><time>2026-04-21T15:39:17.967Z</time></trkpt><trkpt lat="43.8682229" lon="11.2388412"><ele>718.0</ele><time>2026-04-21T15:39:19.033Z</time></trkpt><trkpt lat="43.8681441" lon="11.2388759"><ele>715.6666666666667</ele><time>2026-04-21T15:39:20.034Z</time></trkpt><trkpt lat="43.8680569" lon="11.2389055"><ele>713.3333333333334</ele><time>2026-04-21T15:39:20.946Z</time></trkpt><trkpt lat="43.8679765" lon="11.2389361"><ele>711.0</ele><time>2026-04-21T15:39:21.955Z</time></trkpt><trkpt lat="43.8678935" lon="11.2389698"><ele>708.6666666666666</ele><time>2026-04-21T15:39:22.974Z</time></trkpt><trkpt lat="43.8678128" lon="11.2390058"><ele>706.3333333333333</ele><time>2026-04-21T15:39:24.029Z</time></trkpt><trkpt lat="43.8677387" lon="11.2390503"><ele>704.0</ele><time>2026-04-21T15:39:25.037Z</time></trkpt><trkpt lat="43.8676639" lon="11.2390884"><ele>700.3333333333333</ele><time>2026-04-21T15:39:25.957Z</time></trkpt><trkpt lat="43.8675835" lon="11.2391236"><ele>696.6666666666666</ele><time>2026-04-21T15:39:26.961Z</time></trkpt><trkpt lat="43.8675073" lon="11.2391538"><ele>693.0</ele><time>2026-04-21T15:39:27.994Z</time></trkpt><trkpt lat="43.8674267" lon="11.2391793"><ele>689.3333333333334</ele><time>2026-04-21T15:39:29.029Z</time></trkpt><trkpt lat="43.8673528" lon="11.2392017"><ele>685.6666666666667</ele><time>2026-04-21T15:39:30.027Z</time></trkpt><trkpt lat="43.8672827" lon="11.2392137"><ele>682.0</ele><time>2026-04-21T15:39:30.962Z</time></trkpt><trkpt lat="43.8672179" lon="11.2392173"><ele>682.0</ele><time>2026-04-21T15:39:31.957Z</time></trkpt><trkpt lat="43.8671538" lon="11.2392143"><ele>682.0</ele><time>2026-04-21T15:39:32.965Z</time></trkpt><trkpt lat="43.8670834" lon="11.2392127"><ele>682.0</ele><time>2026-04-21T15:39:33.956Z</time></trkpt><trkpt lat="43.8669591" lon="11.2392127"><ele>682.0</ele><time>2026-04-21T15:39:35.958Z</time></trkpt><trkpt lat="43.8668405" lon="11.2392155"><ele>682.0</ele><time>2026-04-21T15:39:37.952Z</time></trkpt><trkpt lat="43.8667174" lon="11.2392339"><ele>681.6</ele><time>2026-04-21T15:39:39.959Z</time></trkpt><trkpt lat="43.8666113" lon="11.2392789"><ele>681.2</ele><time>2026-04-21T15:39:41.964Z</time></trkpt><trkpt lat="43.8665197" lon="11.2393437"><ele>680.8</ele><time>2026-04-21T15:39:43.958Z</time></trkpt><trkpt lat="43.8664393" lon="11.2394463"><ele>680.4</ele><time>2026-04-21T15:39:45.962Z</time></trkpt><trkpt lat="43.866371" lon="11.2395695"><ele>680.0</ele><time>2026-04-21T15:39:47.953Z</time></trkpt><trkpt lat="43.8663112" lon="11.2397114"><ele>680.6</ele><time>2026-04-21T15:39:49.96Z</time></trkpt><trkpt lat="43.866259" lon="11.2398544"><ele>681.2</ele><time>2026-04-21T15:39:51.955Z</time></trkpt><trkpt lat="43.8662118" lon="11.23998"><ele>681.8</ele><time>2026-04-21T15:39:53.959Z</time></trkpt><trkpt lat="43.8661494" lon="11.2401062"><ele>682.4</ele><time>2026-04-21T15:39:55.959Z</time></trkpt><trkpt lat="43.8660711" lon="11.2402145"><ele>683.0</ele><time>2026-04-21T15:39:57.965Z</time></trkpt><trkpt lat="43.865975" lon="11.2403055"><ele>680.8</ele><time>2026-04-21T15:39:59.959Z</time></trkpt><trkpt lat="43.8658702" lon="11.2403574"><ele>678.5999999999999</ele><time>2026-04-21T15:40:01.96Z</time></trkpt><trkpt lat="43.8658047" lon="11.2403783"><ele>676.4000000000001</ele><time>2026-04-21T15:40:02.95Z</time></trkpt><trkpt lat="43.865701" lon="11.2403789"><ele>674.2</ele><time>2026-04-21T15:40:04.96Z</time></trkpt><trkpt lat="43.8656021" lon="11.2403795"><ele>672.0</ele><time>2026-04-21T15:40:06.963Z</time></trkpt><trkpt lat="43.8655005" lon="11.2403815"><ele>672.0</ele><time>2026-04-21T15:40:08.965Z</time></trkpt><trkpt lat="43.8654356" lon="11.2403803"><ele>672.0</ele><time>2026-04-21T15:40:09.993Z</time></trkpt><trkpt lat="43.8653196" lon="11.2403697"><ele>672.0</ele><time>2026-04-21T15:40:11.958Z</time></trkpt><trkpt lat="43.8652051" lon="11.2403681"><ele>672.0</ele><time>2026-04-21T15:40:13.958Z</time></trkpt><trkpt lat="43.8650883" lon="11.240386"><ele>672.0</ele><time>2026-04-21T15:40:15.966Z</time></trkpt><trkpt lat="43.8649656" lon="11.2403812"><ele>670.2857142857143</ele><time>2026-04-21T15:40:17.955Z</time></trkpt><trkpt lat="43.8648922" lon="11.2403695"><ele>668.5714285714286</ele><time>2026-04-21T15:40:18.958Z</time></trkpt><trkpt lat="43.8648273" lon="11.2403578"><ele>666.8571428571429</ele><time>2026-04-21T15:40:19.961Z</time></trkpt><trkpt lat="43.8647632" lon="11.2403508"><ele>665.1428571428571</ele><time>2026-04-21T15:40:20.954Z</time></trkpt><trkpt lat="43.8646946" lon="11.2403549"><ele>663.4285714285714</ele><time>2026-04-21T15:40:21.948Z</time></trkpt><trkpt lat="43.8646285" lon="11.2403575"><ele>661.7142857142858</ele><time>2026-04-21T15:40:22.962Z</time></trkpt><trkpt lat="43.8645647" lon="11.24036"><ele>660.0</ele><time>2026-04-21T15:40:23.96Z</time></trkpt><trkpt lat="43.8644923" lon="11.2403533"><ele>660.0000000000001</ele><time>2026-04-21T15:40:24.958Z</time></trkpt><trkpt lat="43.8644203" lon="11.240343"><ele>660.0</ele><time>2026-04-21T15:40:25.96Z</time></trkpt><trkpt lat="43.864343" lon="11.2403373"><ele>660.0</ele><time>2026-04-21T15:40:26.962Z</time></trkpt><trkpt lat="43.864269" lon="11.2403326"><ele>660.0</ele><time>2026-04-21T15:40:27.954Z</time></trkpt><trkpt lat="43.8642029" lon="11.2403269"><ele>660.0</ele><time>2026-04-21T15:40:28.958Z</time></trkpt><trkpt lat="43.8641377" lon="11.2403181"><ele>660.0000000000001</ele><time>2026-04-21T15:40:29.957Z</time></trkpt><trkpt lat="43.8640721" lon="11.2403091"><ele>660.0</ele><time>2026-04-21T15:40:30.958Z</time></trkpt><trkpt lat="43.8639981" lon="11.2402894"><ele>659.7142857142858</ele><time>2026-04-21T15:40:31.954Z</time></trkpt><trkpt lat="43.8639292" lon="11.2402743"><ele>659.4285714285714</ele><time>2026-04-21T15:40:32.962Z</time></trkpt><trkpt lat="43.8638502" lon="11.2402655"><ele>659.1428571428571</ele><time>2026-04-21T15:40:33.951Z</time></trkpt><trkpt lat="43.86377" lon="11.2402561"><ele>658.8571428571429</ele><time>2026-04-21T15:40:34.959Z</time></trkpt><trkpt lat="43.8636982" lon="11.2402517"><ele>658.5714285714286</ele><time>2026-04-21T15:40:35.961Z</time></trkpt><trkpt lat="43.8636281" lon="11.2402429"><ele>658.2857142857143</ele><time>2026-04-21T15:40:36.957Z</time></trkpt><trkpt lat="43.863561" lon="11.240229"><ele>658.0</ele><time>2026-04-21T15:40:37.958Z</time></trkpt><trkpt lat="43.8634905" lon="11.2402151"><ele>658.0</ele><time>2026-04-21T15:40:38.955Z</time></trkpt><trkpt lat="43.8634244" lon="11.2402076"><ele>658.0</ele><time>2026-04-21T15:40:39.96Z</time></trkpt><trkpt lat="43.8633601" lon="11.240207"><ele>658.0</ele><time>2026-04-21T15:40:40.957Z</time></trkpt><trkpt lat="43.8632502" lon="11.2401864"><ele>658.0</ele><time>2026-04-21T15:40:42.962Z</time></trkpt><trkpt lat="43.8631868" lon="11.2401772"><ele>658.0</ele><time>2026-04-21T15:40:43.958Z</time></trkpt><trkpt lat="43.8630689" lon="11.240169"><ele>658.0</ele><time>2026-04-21T15:40:45.952Z</time></trkpt><trkpt lat="43.8629505" lon="11.2401677"><ele>658.0</ele><time>2026-04-21T15:40:47.956Z</time></trkpt><trkpt lat="43.8628313" lon="11.2401651"><ele>658.0</ele><time>2026-04-21T15:40:49.954Z</time></trkpt><trkpt lat="43.8627675" lon="11.2401491"><ele>658.0</ele><time>2026-04-21T15:40:50.959Z</time></trkpt><trkpt lat="43.8627018" lon="11.2401289"><ele>658.0</ele><time>2026-04-21T15:40:51.954Z</time></trkpt><trkpt lat="43.8626389" lon="11.24012"><ele>658.0</ele><time>2026-04-21T15:40:52.959Z</time></trkpt><trkpt lat="43.8625218" lon="11.2400992"><ele>658.0</ele><time>2026-04-21T15:40:54.953Z</time></trkpt><trkpt lat="43.8624562" lon="11.2400768"><ele>658.8</ele><time>2026-04-21T15:40:55.953Z</time></trkpt><trkpt lat="43.8623926" lon="11.2400493"><ele>659.5999999999999</ele><time>2026-04-21T15:40:56.956Z</time></trkpt><trkpt lat="43.8622749" lon="11.2400162"><ele>660.4000000000001</ele><time>2026-04-21T15:40:58.959Z</time></trkpt><trkpt lat="43.8621652" lon="11.2399976"><ele>661.2</ele><time>2026-04-21T15:41:00.957Z</time></trkpt><trkpt lat="43.862044" lon="11.2399928"><ele>662.0</ele><time>2026-04-21T15:41:02.958Z</time></trkpt><trkpt lat="43.8619749" lon="11.2399932"><ele>662.0</ele><time>2026-04-21T15:41:03.961Z</time></trkpt><trkpt lat="43.8619075" lon="11.2399915"><ele>662.0</ele><time>2026-04-21T15:41:04.96Z</time></trkpt><trkpt lat="43.8618381" lon="11.2399762"><ele>662.0</ele><time>2026-04-21T15:41:05.954Z</time></trkpt><trkpt lat="43.8617766" lon="11.2399467"><ele>662.0</ele><time>2026-04-21T15:41:06.961Z</time></trkpt><trkpt lat="43.8617163" lon="11.2399078"><ele>662.0</ele><time>2026-04-21T15:41:07.951Z</time></trkpt><trkpt lat="43.8616507" lon="11.2398694"><ele>662.0</ele><time>2026-04-21T15:41:08.96Z</time></trkpt><trkpt lat="43.8615258" lon="11.2397871"><ele>659.7142857142858</ele><time>2026-04-21T15:41:10.957Z</time></trkpt><trkpt lat="43.8614573" lon="11.2397519"><ele>657.4285714285714</ele><time>2026-04-21T15:41:11.959Z</time></trkpt><trkpt lat="43.8613941" lon="11.2397349"><ele>655.1428571428571</ele><time>2026-04-21T15:41:12.956Z</time></trkpt><trkpt lat="43.8613276" lon="11.2397264"><ele>652.8571428571429</ele><time>2026-04-21T15:41:13.951Z</time></trkpt><trkpt lat="43.8612553" lon="11.2397087"><ele>650.5714285714286</ele><time>2026-04-21T15:41:14.956Z</time></trkpt><trkpt lat="43.8611866" lon="11.2397117"><ele>648.2857142857143</ele><time>2026-04-21T15:41:15.959Z</time></trkpt><trkpt lat="43.8611101" lon="11.2397219"><ele>646.0</ele><time>2026-04-21T15:41:16.96Z</time></trkpt><trkpt lat="43.8610369" lon="11.2397264"><ele>646.0</ele><time>2026-04-21T15:41:17.96Z</time></trkpt><trkpt lat="43.8609673" lon="11.2397191"><ele>646.0</ele><time>2026-04-21T15:41:18.96Z</time></trkpt><trkpt lat="43.8608999" lon="11.2397197"><ele>646.0</ele><time>2026-04-21T15:41:19.957Z</time></trkpt><trkpt lat="43.8607825" lon="11.2397228"><ele>646.0</ele><time>2026-04-21T15:41:21.959Z</time></trkpt><trkpt lat="43.8606634" lon="11.2397125"><ele>646.0</ele><time>2026-04-21T15:41:23.957Z</time></trkpt><trkpt lat="43.8605509" lon="11.2396924"><ele>646.0</ele><time>2026-04-21T15:41:25.952Z</time></trkpt><trkpt lat="43.860477" lon="11.2396955"><ele>646.0</ele><time>2026-04-21T15:41:27.961Z</time></trkpt><trkpt lat="43.8604157" lon="11.2397375"><ele>646.0</ele><time>2026-04-21T15:41:30.961Z</time></trkpt><trkpt lat="43.8603492" lon="11.2397428"><ele>646.0</ele><time>2026-04-21T15:41:48.965Z</time></trkpt><trkpt lat="43.8602478" lon="11.2397237"><ele>646.0</ele><time>2026-04-21T15:41:52.047Z</time></trkpt><trkpt lat="43.8601377" lon="11.2397157"><ele>646.0</ele><time>2026-04-21T15:41:53.958Z</time></trkpt><trkpt lat="43.8600266" lon="11.2397113"><ele>646.1666666666667</ele><time>2026-04-21T15:41:55.952Z</time></trkpt><trkpt lat="43.8599581" lon="11.2397105"><ele>646.3333333333334</ele><time>2026-04-21T15:41:56.949Z</time></trkpt><trkpt lat="43.8598855" lon="11.2397061"><ele>646.5</ele><time>2026-04-21T15:41:57.959Z</time></trkpt><trkpt lat="43.8598134" lon="11.2397089"><ele>646.6666666666666</ele><time>2026-04-21T15:41:58.962Z</time></trkpt><trkpt lat="43.8597488" lon="11.239711"><ele>646.8333333333333</ele><time>2026-04-21T15:42:00.017Z</time></trkpt><trkpt lat="43.8596249" lon="11.239703"><ele>647.0</ele><time>2026-04-21T15:42:01.959Z</time></trkpt><trkpt lat="43.8595046" lon="11.2397158"><ele>647.0</ele><time>2026-04-21T15:42:03.963Z</time></trkpt><trkpt lat="43.8594365" lon="11.2397298"><ele>647.0</ele><time>2026-04-21T15:42:05.015Z</time></trkpt><trkpt lat="43.8593665" lon="11.2397499"><ele>647.0</ele><time>2026-04-21T15:42:06.028Z</time></trkpt><trkpt lat="43.8592886" lon="11.2397675"><ele>647.0</ele><time>2026-04-21T15:42:06.958Z</time></trkpt><trkpt lat="43.8592151" lon="11.2397842"><ele>647.0</ele><time>2026-04-21T15:42:07.958Z</time></trkpt><trkpt lat="43.8591415" lon="11.2398013"><ele>647.0</ele><time>2026-04-21T15:42:08.962Z</time></trkpt><trkpt lat="43.8590684" lon="11.239818"><ele>647.0</ele><time>2026-04-21T15:42:09.958Z</time></trkpt><trkpt lat="43.858991" lon="11.2398245"><ele>647.1666666666666</ele><time>2026-04-21T15:42:10.983Z</time></trkpt><trkpt lat="43.8589169" lon="11.239833"><ele>647.3333333333333</ele><time>2026-04-21T15:42:11.953Z</time></trkpt><trkpt lat="43.858841" lon="11.2398374"><ele>647.5</ele><time>2026-04-21T15:42:12.96Z</time></trkpt><trkpt lat="43.8587674" lon="11.2398444"><ele>647.6666666666666</ele><time>2026-04-21T15:42:14.055Z</time></trkpt><trkpt lat="43.8586916" lon="11.2398618"><ele>647.8333333333334</ele><time>2026-04-21T15:42:14.961Z</time></trkpt><trkpt lat="43.8586082" lon="11.2398829"><ele>648.0</ele><time>2026-04-21T15:42:15.959Z</time></trkpt><trkpt lat="43.8585264" lon="11.2399083"><ele>648.1666666666666</ele><time>2026-04-21T15:42:16.955Z</time></trkpt><trkpt lat="43.8584498" lon="11.2399432"><ele>648.3333333333334</ele><time>2026-04-21T15:42:17.956Z</time></trkpt><trkpt lat="43.858377" lon="11.2399822"><ele>648.5</ele><time>2026-04-21T15:42:18.961Z</time></trkpt><trkpt lat="43.8583118" lon="11.2400343"><ele>648.6666666666667</ele><time>2026-04-21T15:42:19.954Z</time></trkpt><trkpt lat="43.8582471" lon="11.240088"><ele>648.8333333333334</ele><time>2026-04-21T15:42:20.957Z</time></trkpt><trkpt lat="43.8581869" lon="11.2401478"><ele>649.0</ele><time>2026-04-21T15:42:21.96Z</time></trkpt><trkpt lat="43.8581358" lon="11.2402241"><ele>649.0</ele><time>2026-04-21T15:42:22.951Z</time></trkpt><trkpt lat="43.8580825" lon="11.2403037"><ele>649.0</ele><time>2026-04-21T15:42:23.961Z</time></trkpt><trkpt lat="43.8580278" lon="11.2403922"><ele>649.0</ele><time>2026-04-21T15:42:24.945Z</time></trkpt><trkpt lat="43.8579767" lon="11.2404766"><ele>649.0</ele><time>2026-04-21T15:42:25.962Z</time></trkpt><trkpt lat="43.857923" lon="11.2405507"><ele>649.0</ele><time>2026-04-21T15:42:26.951Z</time></trkpt><trkpt lat="43.8578745" lon="11.2406169"><ele>649.0</ele><time>2026-04-21T15:42:27.964Z</time></trkpt><trkpt lat="43.8578163" lon="11.2406732"><ele>648.0</ele><time>2026-04-21T15:42:28.96Z</time></trkpt><trkpt lat="43.857753" lon="11.2407203"><ele>647.0</ele><time>2026-04-21T15:42:29.962Z</time></trkpt><trkpt lat="43.8576833" lon="11.2407611"><ele>646.0</ele><time>2026-04-21T15:42:31.004Z</time></trkpt><trkpt lat="43.8576181" lon="11.2407908"><ele>645.0</ele><time>2026-04-21T15:42:31.957Z</time></trkpt><trkpt lat="43.857539" lon="11.240773"><ele>644.0</ele><time>2026-04-21T15:42:32.952Z</time></trkpt><trkpt lat="43.8574565" lon="11.2407298"><ele>643.0</ele><time>2026-04-21T15:42:33.956Z</time></trkpt><trkpt lat="43.857372" lon="11.2406859"><ele>643.0</ele><time>2026-04-21T15:42:34.95Z</time></trkpt><trkpt lat="43.8572908" lon="11.2406455"><ele>643.0</ele><time>2026-04-21T15:42:35.953Z</time></trkpt><trkpt lat="43.8572075" lon="11.2405973"><ele>643.0</ele><time>2026-04-21T15:42:36.958Z</time></trkpt><trkpt lat="43.8571251" lon="11.2405442"><ele>643.0</ele><time>2026-04-21T15:42:37.959Z</time></trkpt><trkpt lat="43.857046" lon="11.2404864"><ele>643.0</ele><time>2026-04-21T15:42:38.953Z</time></trkpt><trkpt lat="43.8569714" lon="11.2404157"><ele>643.0</ele><time>2026-04-21T15:42:39.954Z</time></trkpt><trkpt lat="43.8568975" lon="11.2403436"><ele>644.2</ele><time>2026-04-21T15:42:40.956Z</time></trkpt><trkpt lat="43.8568229" lon="11.2402839"><ele>645.4</ele><time>2026-04-21T15:42:41.959Z</time></trkpt><trkpt lat="43.8567396" lon="11.2402337"><ele>646.6</ele><time>2026-04-21T15:42:42.954Z</time></trkpt><trkpt lat="43.8566472" lon="11.2401885"><ele>647.8000000000001</ele><time>2026-04-21T15:42:43.953Z</time></trkpt><trkpt lat="43.8565546" lon="11.2401461"><ele>649.0</ele><time>2026-04-21T15:42:44.992Z</time></trkpt><trkpt lat="43.856458" lon="11.240114"><ele>649.0</ele><time>2026-04-21T15:42:45.961Z</time></trkpt><trkpt lat="43.8563724" lon="11.2400865"><ele>649.0</ele><time>2026-04-21T15:42:46.953Z</time></trkpt><trkpt lat="43.8562892" lon="11.2400607"><ele>649.0</ele><time>2026-04-21T15:42:47.957Z</time></trkpt><trkpt lat="43.8562087" lon="11.2400371"><ele>649.0</ele><time>2026-04-21T15:42:48.951Z</time></trkpt><trkpt lat="43.8561326" lon="11.2400051"><ele>649.0</ele><time>2026-04-21T15:42:49.952Z</time></trkpt><trkpt lat="43.8560567" lon="11.2399665"><ele>649.0</ele><time>2026-04-21T15:42:50.957Z</time></trkpt><trkpt lat="43.8559944" lon="11.2399072"><ele>647.6666666666667</ele><time>2026-04-21T15:42:51.957Z</time></trkpt><trkpt lat="43.8559363" lon="11.2398413"><ele>646.3333333333334</ele><time>2026-04-21T15:42:52.954Z</time></trkpt><trkpt lat="43.8558799" lon="11.239775"><ele>645.0</ele><time>2026-04-21T15:42:53.951Z</time></trkpt><trkpt lat="43.8558175" lon="11.2397208"><ele>643.6666666666666</ele><time>2026-04-21T15:42:54.955Z</time></trkpt><trkpt lat="43.8557638" lon="11.2396628"><ele>642.3333333333333</ele><time>2026-04-21T15:42:55.957Z</time></trkpt><trkpt lat="43.8557182" lon="11.2395995"><ele>641.0</ele><time>2026-04-21T15:42:56.96Z</time></trkpt><trkpt lat="43.8556279" lon="11.2395017"><ele>641.0</ele><time>2026-04-21T15:42:58.96Z</time></trkpt><trkpt lat="43.8555371" lon="11.2393965"><ele>641.0</ele><time>2026-04-21T15:43:00.958Z</time></trkpt><trkpt lat="43.8554579" lon="11.2392846"><ele>641.0</ele><time>2026-04-21T15:43:02.961Z</time></trkpt><trkpt lat="43.8553945" lon="11.2391891"><ele>641.0</ele><time>2026-04-21T15:43:04.959Z</time></trkpt><trkpt lat="43.8553379" lon="11.2391403"><ele>641.0</ele><time>2026-04-21T15:43:06.959Z</time></trkpt><trkpt lat="43.855253" lon="11.2390902"><ele>641.0</ele><time>2026-04-21T15:43:08.96Z</time></trkpt><trkpt lat="43.8551956" lon="11.2390506"><ele>641.0</ele><time>2026-04-21T15:43:09.955Z</time></trkpt><trkpt lat="43.8550731" lon="11.2389705"><ele>641.0</ele><time>2026-04-21T15:43:11.949Z</time></trkpt><trkpt lat="43.8550024" lon="11.2389263"><ele>641.0</ele><time>2026-04-21T15:43:12.963Z</time></trkpt><trkpt lat="43.8549241" lon="11.2388867"><ele>641.0</ele><time>2026-04-21T15:43:13.961Z</time></trkpt><trkpt lat="43.8548472" lon="11.2388443"><ele>641.0</ele><time>2026-04-21T15:43:14.961Z</time></trkpt><trkpt lat="43.8547725" lon="11.2388073"><ele>637.8333333333333</ele><time>2026-04-21T15:43:15.958Z</time></trkpt><trkpt lat="43.8546984" lon="11.2387611"><ele>634.6666666666666</ele><time>2026-04-21T15:43:16.959Z</time></trkpt><trkpt lat="43.8546273" lon="11.2387058"><ele>631.5</ele><time>2026-04-21T15:43:17.958Z</time></trkpt><trkpt lat="43.8545548" lon="11.2386564"><ele>628.3333333333334</ele><time>2026-04-21T15:43:18.962Z</time></trkpt><trkpt lat="43.8544862" lon="11.2385956"><ele>625.1666666666667</ele><time>2026-04-21T15:43:19.96Z</time></trkpt><trkpt lat="43.8544182" lon="11.2385382"><ele>622.0</ele><time>2026-04-21T15:43:20.954Z</time></trkpt><trkpt lat="43.8543504" lon="11.238481"><ele>622.8333333333334</ele><time>2026-04-21T15:43:21.958Z</time></trkpt><trkpt lat="43.8542772" lon="11.2384256"><ele>623.6666666666667</ele><time>2026-04-21T15:43:22.957Z</time></trkpt><trkpt lat="43.8542019" lon="11.2383709"><ele>624.5</ele><time>2026-04-21T15:43:23.953Z</time></trkpt><trkpt lat="43.8541205" lon="11.2383138"><ele>625.3333333333334</ele><time>2026-04-21T15:43:24.959Z</time></trkpt><trkpt lat="43.8540383" lon="11.2382611"><ele>626.1666666666666</ele><time>2026-04-21T15:43:25.947Z</time></trkpt><trkpt lat="43.8539557" lon="11.2382137"><ele>627.0</ele><time>2026-04-21T15:43:26.958Z</time></trkpt><trkpt lat="43.8538748" lon="11.2381666"><ele>624.1428571428571</ele><time>2026-04-21T15:43:27.948Z</time></trkpt><trkpt lat="43.8538041" lon="11.238123"><ele>621.2857142857142</ele><time>2026-04-21T15:43:28.956Z</time></trkpt><trkpt lat="43.8537364" lon="11.2380936"><ele>618.4285714285713</ele><time>2026-04-21T15:43:29.954Z</time></trkpt><trkpt lat="43.8536689" lon="11.2380806"><ele>615.5714285714286</ele><time>2026-04-21T15:43:30.955Z</time></trkpt><trkpt lat="43.8535978" lon="11.2380668"><ele>612.7142857142857</ele><time>2026-04-21T15:43:31.947Z</time></trkpt><trkpt lat="43.8535289" lon="11.238049"><ele>609.8571428571428</ele><time>2026-04-21T15:43:32.961Z</time></trkpt><trkpt lat="43.8534638" lon="11.2380361"><ele>607.0</ele><time>2026-04-21T15:43:33.944Z</time></trkpt><trkpt lat="43.8534006" lon="11.2380462"><ele>607.0</ele><time>2026-04-21T15:43:34.948Z</time></trkpt><trkpt lat="43.8533306" lon="11.2380598"><ele>607.0</ele><time>2026-04-21T15:43:35.95Z</time></trkpt><trkpt lat="43.8532623" lon="11.2380859"><ele>607.0</ele><time>2026-04-21T15:43:36.954Z</time></trkpt><trkpt lat="43.8531432" lon="11.2381415"><ele>607.0</ele><time>2026-04-21T15:43:38.956Z</time></trkpt><trkpt lat="43.8530844" lon="11.2381732"><ele>607.0</ele><time>2026-04-21T15:43:39.948Z</time></trkpt><trkpt lat="43.8529698" lon="11.238233"><ele>607.6666666666667</ele><time>2026-04-21T15:43:41.958Z</time></trkpt><trkpt lat="43.8529078" lon="11.2382751"><ele>608.3333333333334</ele><time>2026-04-21T15:43:42.951Z</time></trkpt><trkpt lat="43.8528479" lon="11.2383068"><ele>609.0</ele><time>2026-04-21T15:43:43.954Z</time></trkpt><trkpt lat="43.8527344" lon="11.238365"><ele>609.6666666666666</ele><time>2026-04-21T15:43:45.955Z</time></trkpt><trkpt lat="43.8526187" lon="11.2384074"><ele>610.3333333333333</ele><time>2026-04-21T15:43:47.951Z</time></trkpt><trkpt lat="43.8525482" lon="11.2384154"><ele>611.0</ele><time>2026-04-21T15:43:48.956Z</time></trkpt><trkpt lat="43.8524836" lon="11.2384311"><ele>611.0</ele><time>2026-04-21T15:43:49.954Z</time></trkpt><trkpt lat="43.8523946" lon="11.2384725"><ele>611.0</ele><time>2026-04-21T15:43:51.958Z</time></trkpt><trkpt lat="43.8523298" lon="11.2385104"><ele>611.0</ele><time>2026-04-21T15:43:53.963Z</time></trkpt><trkpt lat="43.8522467" lon="11.2385605"><ele>611.0</ele><time>2026-04-21T15:43:55.948Z</time></trkpt><trkpt lat="43.8521378" lon="11.2386194"><ele>611.0</ele><time>2026-04-21T15:43:57.961Z</time></trkpt><trkpt lat="43.8520762" lon="11.2386395"><ele>611.0</ele><time>2026-04-21T15:43:58.955Z</time></trkpt><trkpt lat="43.852008" lon="11.2386535"><ele>611.0</ele><time>2026-04-21T15:43:59.95Z</time></trkpt><trkpt lat="43.8519262" lon="11.2386664"><ele>611.0</ele><time>2026-04-21T15:44:00.955Z</time></trkpt><trkpt lat="43.8518511" lon="11.2386646"><ele>611.0</ele><time>2026-04-21T15:44:01.954Z</time></trkpt><trkpt lat="43.8517334" lon="11.2386696"><ele>611.0</ele><time>2026-04-21T15:44:03.957Z</time></trkpt><trkpt lat="43.8516135" lon="11.2386568"><ele>611.0</ele><time>2026-04-21T15:44:05.957Z</time></trkpt><trkpt lat="43.8515455" lon="11.2386387"><ele>607.4</ele><time>2026-04-21T15:44:06.953Z</time></trkpt><trkpt lat="43.8514309" lon="11.2386048"><ele>603.8</ele><time>2026-04-21T15:44:08.956Z</time></trkpt><trkpt lat="43.8513235" lon="11.2385464"><ele>600.1999999999999</ele><time>2026-04-21T15:44:10.956Z</time></trkpt><trkpt lat="43.8512435" lon="11.2384933"><ele>596.6</ele><time>2026-04-21T15:44:12.963Z</time></trkpt><trkpt lat="43.8511619" lon="11.2384885"><ele>593.0</ele><time>2026-04-21T15:44:15.957Z</time></trkpt><trkpt lat="43.8511056" lon="11.2384409"><ele>593.0</ele><time>2026-04-21T15:44:19.958Z</time></trkpt><trkpt lat="43.8510863" lon="11.2383426"><ele>593.0</ele><time>2026-04-21T15:44:21.955Z</time></trkpt><trkpt lat="43.8510546" lon="11.2382223"><ele>593.0</ele><time>2026-04-21T15:44:23.956Z</time></trkpt><trkpt lat="43.8510181" lon="11.2381457"><ele>593.0</ele><time>2026-04-21T15:44:24.956Z</time></trkpt><trkpt lat="43.8509748" lon="11.2380665"><ele>593.0</ele><time>2026-04-21T15:44:25.955Z</time></trkpt><trkpt lat="43.8509189" lon="11.2379938"><ele>593.0</ele><time>2026-04-21T15:44:26.953Z</time></trkpt><trkpt lat="43.8508509" lon="11.2379223"><ele>592.1999999999999</ele><time>2026-04-21T15:44:27.954Z</time></trkpt><trkpt lat="43.8507779" lon="11.2378539"><ele>591.4</ele><time>2026-04-21T15:44:28.96Z</time></trkpt><trkpt lat="43.850706" lon="11.2377854"><ele>590.5999999999999</ele><time>2026-04-21T15:44:29.957Z</time></trkpt><trkpt lat="43.850631" lon="11.2377198"><ele>589.8</ele><time>2026-04-21T15:44:30.952Z</time></trkpt><trkpt lat="43.8505485" lon="11.2376483"><ele>589.0</ele><time>2026-04-21T15:44:31.95Z</time></trkpt><trkpt lat="43.8504571" lon="11.2375767"><ele>589.0</ele><time>2026-04-21T15:44:32.956Z</time></trkpt><trkpt lat="43.8503592" lon="11.237495"><ele>589.0</ele><time>2026-04-21T15:44:33.956Z</time></trkpt><trkpt lat="43.8502585" lon="11.2374078"><ele>589.0</ele><time>2026-04-21T15:44:34.962Z</time></trkpt><trkpt lat="43.8501636" lon="11.2373146"><ele>589.0</ele><time>2026-04-21T15:44:35.959Z</time></trkpt><trkpt lat="43.8500779" lon="11.2372075"><ele>590.0</ele><time>2026-04-21T15:44:36.959Z</time></trkpt><trkpt lat="43.8499949" lon="11.2370836"><ele>591.0</ele><time>2026-04-21T15:44:37.954Z</time></trkpt><trkpt lat="43.8499142" lon="11.2369364"><ele>592.0</ele><time>2026-04-21T15:44:38.955Z</time></trkpt><trkpt lat="43.8498397" lon="11.2367865"><ele>593.0</ele><time>2026-04-21T15:44:39.954Z</time></trkpt><trkpt lat="43.8497706" lon="11.2366193"><ele>595.3333333333333</ele><time>2026-04-21T15:44:40.958Z</time></trkpt><trkpt lat="43.8496994" lon="11.2364412"><ele>597.6666666666666</ele><time>2026-04-21T15:44:41.943Z</time></trkpt><trkpt lat="43.8496205" lon="11.2362578"><ele>600.0</ele><time>2026-04-21T15:44:42.95Z</time></trkpt><trkpt lat="43.8495385" lon="11.2360587"><ele>600.0</ele><time>2026-04-21T15:44:43.959Z</time></trkpt><trkpt lat="43.8494592" lon="11.2358629"><ele>600.0</ele><time>2026-04-21T15:44:44.961Z</time></trkpt><trkpt lat="43.8493761" lon="11.2356643"><ele>600.0</ele><time>2026-04-21T15:44:45.956Z</time></trkpt><trkpt lat="43.8492931" lon="11.2354764"><ele>596.6666666666666</ele><time>2026-04-21T15:44:46.959Z</time></trkpt><trkpt lat="43.8492152" lon="11.2352812"><ele>593.3333333333333</ele><time>2026-04-21T15:44:47.955Z</time></trkpt><trkpt lat="43.8491412" lon="11.2350865"><ele>590.0</ele><time>2026-04-21T15:44:48.957Z</time></trkpt><trkpt lat="43.8490671" lon="11.2348916"><ele>592.6666666666666</ele><time>2026-04-21T15:44:49.956Z</time></trkpt><trkpt lat="43.8489855" lon="11.2346981"><ele>595.3333333333334</ele><time>2026-04-21T15:44:50.955Z</time></trkpt><trkpt lat="43.848907" lon="11.2345004"><ele>598.0</ele><time>2026-04-21T15:44:51.951Z</time></trkpt><trkpt lat="43.8488289" lon="11.2343064"><ele>598.0</ele><time>2026-04-21T15:44:52.955Z</time></trkpt><trkpt lat="43.8487469" lon="11.2341052"><ele>598.0</ele><time>2026-04-21T15:44:53.961Z</time></trkpt><trkpt lat="43.8486589" lon="11.2339034"><ele>598.0</ele><time>2026-04-21T15:44:54.95Z</time></trkpt><trkpt lat="43.8485671" lon="11.233713"><ele>600.0</ele><time>2026-04-21T15:44:55.961Z</time></trkpt><trkpt lat="43.8484746" lon="11.2335242"><ele>602.0</ele><time>2026-04-21T15:44:56.952Z</time></trkpt><trkpt lat="43.8483838" lon="11.2333357"><ele>604.0</ele><time>2026-04-21T15:44:57.961Z</time></trkpt><trkpt lat="43.8482961" lon="11.2331487"><ele>600.0</ele><time>2026-04-21T15:44:58.952Z</time></trkpt><trkpt lat="43.8482076" lon="11.2329637"><ele>596.0</ele><time>2026-04-21T15:44:59.951Z</time></trkpt><trkpt lat="43.8481169" lon="11.232778"><ele>592.0</ele><time>2026-04-21T15:45:00.961Z</time></trkpt><trkpt lat="43.8480343" lon="11.2325846"><ele>592.0</ele><time>2026-04-21T15:45:01.959Z</time></trkpt><trkpt lat="43.847963" lon="11.2323955"><ele>592.0</ele><time>2026-04-21T15:45:02.957Z</time></trkpt><trkpt lat="43.847912" lon="11.2322051"><ele>592.0</ele><time>2026-04-21T15:45:03.964Z</time></trkpt><trkpt lat="43.8478901" lon="11.2319993"><ele>591.25</ele><time>2026-04-21T15:45:04.956Z</time></trkpt><trkpt lat="43.8478981" lon="11.2317934"><ele>590.5</ele><time>2026-04-21T15:45:05.961Z</time></trkpt><trkpt lat="43.8479287" lon="11.2316139"><ele>589.75</ele><time>2026-04-21T15:45:06.956Z</time></trkpt><trkpt lat="43.8480001" lon="11.2314603"><ele>589.0</ele><time>2026-04-21T15:45:07.954Z</time></trkpt><trkpt lat="43.8480883" lon="11.2313127"><ele>584.0</ele><time>2026-04-21T15:45:08.962Z</time></trkpt><trkpt lat="43.8482022" lon="11.2312036"><ele>579.0</ele><time>2026-04-21T15:45:09.963Z</time></trkpt><trkpt lat="43.8483409" lon="11.2311101"><ele>574.0</ele><time>2026-04-21T15:45:10.957Z</time></trkpt><trkpt lat="43.8485077" lon="11.2310611"><ele>573.6666666666667</ele><time>2026-04-21T15:45:11.952Z</time></trkpt><trkpt lat="43.8486909" lon="11.2310671"><ele>573.3333333333334</ele><time>2026-04-21T15:45:12.962Z</time></trkpt><trkpt lat="43.8488567" lon="11.2310765"><ele>573.0</ele><time>2026-04-21T15:45:13.952Z</time></trkpt><trkpt lat="43.849017" lon="11.2311038"><ele>573.0</ele><time>2026-04-21T15:45:14.953Z</time></trkpt><trkpt lat="43.849171" lon="11.2311362"><ele>573.0</ele><time>2026-04-21T15:45:15.961Z</time></trkpt><trkpt lat="43.8493053" lon="11.2312151"><ele>573.0</ele><time>2026-04-21T15:45:16.951Z</time></trkpt><trkpt lat="43.8494333" lon="11.2313778"><ele>572.0</ele><time>2026-04-21T15:45:17.955Z</time></trkpt><trkpt lat="43.8495511" lon="11.2315795"><ele>571.0</ele><time>2026-04-21T15:45:18.955Z</time></trkpt><trkpt lat="43.8496727" lon="11.231801"><ele>570.0</ele><time>2026-04-21T15:45:19.958Z</time></trkpt><trkpt lat="43.8497872" lon="11.2320271"><ele>570.0</ele><time>2026-04-21T15:45:20.957Z</time></trkpt><trkpt lat="43.8499059" lon="11.232266"><ele>570.0</ele><time>2026-04-21T15:45:21.943Z</time></trkpt><trkpt lat="43.8500224" lon="11.2324974"><ele>570.0</ele><time>2026-04-21T15:45:22.952Z</time></trkpt><trkpt lat="43.8501465" lon="11.2327417"><ele>563.5</ele><time>2026-04-21T15:45:23.951Z</time></trkpt><trkpt lat="43.8502702" lon="11.2330013"><ele>557.0</ele><time>2026-04-21T15:45:24.956Z</time></trkpt><trkpt lat="43.8503873" lon="11.2332737"><ele>557.0</ele><time>2026-04-21T15:45:25.951Z</time></trkpt><trkpt lat="43.8504877" lon="11.2335742"><ele>557.0</ele><time>2026-04-21T15:45:26.996Z</time></trkpt><trkpt lat="43.8505782" lon="11.2338805"><ele>562.5</ele><time>2026-04-21T15:45:27.951Z</time></trkpt><trkpt lat="43.850659" lon="11.2341953"><ele>568.0</ele><time>2026-04-21T15:45:28.952Z</time></trkpt><trkpt lat="43.8507255" lon="11.2345216"><ele>571.5</ele><time>2026-04-21T15:45:29.953Z</time></trkpt><trkpt lat="43.8507918" lon="11.2348537"><ele>575.0</ele><time>2026-04-21T15:45:30.958Z</time></trkpt><trkpt lat="43.8508461" lon="11.2351729"><ele>575.0</ele><time>2026-04-21T15:45:31.957Z</time></trkpt><trkpt lat="43.8508958" lon="11.2354671"><ele>575.0</ele><time>2026-04-21T15:45:32.956Z</time></trkpt><trkpt lat="43.8509553" lon="11.2357337"><ele>575.0</ele><time>2026-04-21T15:45:33.953Z</time></trkpt><trkpt lat="43.8509988" lon="11.2359924"><ele>570.6666666666666</ele><time>2026-04-21T15:45:34.958Z</time></trkpt><trkpt lat="43.8510462" lon="11.2362285"><ele>566.3333333333334</ele><time>2026-04-21T15:45:35.953Z</time></trkpt><trkpt lat="43.8510953" lon="11.2364478"><ele>562.0</ele><time>2026-04-21T15:45:36.961Z</time></trkpt><trkpt lat="43.8511417" lon="11.2366462"><ele>562.0</ele><time>2026-04-21T15:45:37.955Z</time></trkpt><trkpt lat="43.8512041" lon="11.236809"><ele>562.0</ele><time>2026-04-21T15:45:38.952Z</time></trkpt><trkpt lat="43.8512867" lon="11.2369461"><ele>562.0</ele><time>2026-04-21T15:45:39.954Z</time></trkpt><trkpt lat="43.851387" lon="11.2370656"><ele>562.0</ele><time>2026-04-21T15:45:40.949Z</time></trkpt><trkpt lat="43.8514939" lon="11.2371096"><ele>562.0</ele><time>2026-04-21T15:45:41.953Z</time></trkpt><trkpt lat="43.8516133" lon="11.237101"><ele>562.0</ele><time>2026-04-21T15:45:42.952Z</time></trkpt><trkpt lat="43.8517253" lon="11.2370331"><ele>562.0</ele><time>2026-04-21T15:45:43.956Z</time></trkpt><trkpt lat="43.8518297" lon="11.2369132"><ele>562.0</ele><time>2026-04-21T15:45:44.954Z</time></trkpt><trkpt lat="43.8519378" lon="11.2368022"><ele>565.0</ele><time>2026-04-21T15:45:45.947Z</time></trkpt><trkpt lat="43.8520574" lon="11.2366843"><ele>568.0</ele><time>2026-04-21T15:45:46.956Z</time></trkpt><trkpt lat="43.8521944" lon="11.2365709"><ele>571.0</ele><time>2026-04-21T15:45:47.955Z</time></trkpt><trkpt lat="43.8523371" lon="11.2364508"><ele>562.6666666666667</ele><time>2026-04-21T15:45:48.948Z</time></trkpt><trkpt lat="43.8524885" lon="11.2363436"><ele>554.3333333333334</ele><time>2026-04-21T15:45:49.949Z</time></trkpt><trkpt lat="43.8526506" lon="11.2362495"><ele>546.0</ele><time>2026-04-21T15:45:50.954Z</time></trkpt><trkpt lat="43.8528172" lon="11.2361584"><ele>546.0</ele><time>2026-04-21T15:45:51.952Z</time></trkpt><trkpt lat="43.8529992" lon="11.2360892"><ele>546.0</ele><time>2026-04-21T15:45:52.957Z</time></trkpt><trkpt lat="43.853194" lon="11.2360304"><ele>546.0</ele><time>2026-04-21T15:45:53.947Z</time></trkpt><trkpt lat="43.8533894" lon="11.2359679"><ele>547.6666666666666</ele><time>2026-04-21T15:45:54.952Z</time></trkpt><trkpt lat="43.8535747" lon="11.2359024"><ele>549.3333333333333</ele><time>2026-04-21T15:45:55.943Z</time></trkpt><trkpt lat="43.8537629" lon="11.2358455"><ele>551.0</ele><time>2026-04-21T15:45:56.956Z</time></trkpt><trkpt lat="43.8539403" lon="11.2358016"><ele>551.0</ele><time>2026-04-21T15:45:57.963Z</time></trkpt><trkpt lat="43.8540997" lon="11.2357728"><ele>551.0</ele><time>2026-04-21T15:45:58.957Z</time></trkpt><trkpt lat="43.8542583" lon="11.2357768"><ele>551.0</ele><time>2026-04-21T15:45:59.955Z</time></trkpt><trkpt lat="43.8544272" lon="11.2358417"><ele>548.6666666666666</ele><time>2026-04-21T15:46:00.958Z</time></trkpt><trkpt lat="43.8546015" lon="11.2359065"><ele>546.3333333333334</ele><time>2026-04-21T15:46:01.958Z</time></trkpt><trkpt lat="43.8547922" lon="11.2359309"><ele>544.0</ele><time>2026-04-21T15:46:02.959Z</time></trkpt><trkpt lat="43.8549812" lon="11.2359244"><ele>544.0</ele><time>2026-04-21T15:46:03.957Z</time></trkpt><trkpt lat="43.8551741" lon="11.2358788"><ele>544.0</ele><time>2026-04-21T15:46:04.951Z</time></trkpt><trkpt lat="43.8553573" lon="11.2358398"><ele>544.0</ele><time>2026-04-21T15:46:05.953Z</time></trkpt><trkpt lat="43.8555424" lon="11.2357931"><ele>544.0</ele><time>2026-04-21T15:46:06.955Z</time></trkpt><trkpt lat="43.8557271" lon="11.2357478"><ele>544.0</ele><time>2026-04-21T15:46:07.954Z</time></trkpt><trkpt lat="43.8559121" lon="11.2356908"><ele>544.0</ele><time>2026-04-21T15:46:08.961Z</time></trkpt><trkpt lat="43.8560962" lon="11.235618"><ele>538.6666666666667</ele><time>2026-04-21T15:46:09.965Z</time></trkpt><trkpt lat="43.8562782" lon="11.2355419"><ele>533.3333333333334</ele><time>2026-04-21T15:46:10.944Z</time></trkpt><trkpt lat="43.8564552" lon="11.2354486"><ele>528.0</ele><time>2026-04-21T15:46:11.957Z</time></trkpt><trkpt lat="43.8566341" lon="11.235346"><ele>533.0</ele><time>2026-04-21T15:46:12.946Z</time></trkpt><trkpt lat="43.8568126" lon="11.2352444"><ele>538.0</ele><time>2026-04-21T15:46:13.957Z</time></trkpt><trkpt lat="43.8569921" lon="11.235149"><ele>543.0</ele><time>2026-04-21T15:46:14.953Z</time></trkpt><trkpt lat="43.8571724" lon="11.2350578"><ele>543.0</ele><time>2026-04-21T15:46:15.958Z</time></trkpt><trkpt lat="43.8573517" lon="11.2349575"><ele>543.0</ele><time>2026-04-21T15:46:16.951Z</time></trkpt><trkpt lat="43.8575251" lon="11.2348415"><ele>543.0</ele><time>2026-04-21T15:46:17.957Z</time></trkpt><trkpt lat="43.8576929" lon="11.2347183"><ele>542.6666666666666</ele><time>2026-04-21T15:46:18.952Z</time></trkpt><trkpt lat="43.857851" lon="11.2345814"><ele>542.3333333333333</ele><time>2026-04-21T15:46:19.96Z</time></trkpt><trkpt lat="43.8580045" lon="11.2344334"><ele>542.0</ele><time>2026-04-21T15:46:20.953Z</time></trkpt><trkpt lat="43.8581457" lon="11.234276"><ele>542.0</ele><time>2026-04-21T15:46:21.956Z</time></trkpt><trkpt lat="43.8582842" lon="11.2341246"><ele>542.0</ele><time>2026-04-21T15:46:22.954Z</time></trkpt><trkpt lat="43.8584204" lon="11.2339684"><ele>542.0</ele><time>2026-04-21T15:46:23.959Z</time></trkpt><trkpt lat="43.8585536" lon="11.2338313"><ele>537.3333333333333</ele><time>2026-04-21T15:46:24.943Z</time></trkpt><trkpt lat="43.8586902" lon="11.2336948"><ele>532.6666666666666</ele><time>2026-04-21T15:46:25.955Z</time></trkpt><trkpt lat="43.8588259" lon="11.2335599"><ele>528.0</ele><time>2026-04-21T15:46:26.949Z</time></trkpt><trkpt lat="43.8589719" lon="11.233442"><ele>528.0</ele><time>2026-04-21T15:46:27.955Z</time></trkpt><trkpt lat="43.8591247" lon="11.2333566"><ele>528.0</ele><time>2026-04-21T15:46:28.956Z</time></trkpt><trkpt lat="43.8592866" lon="11.2333031"><ele>528.0</ele><time>2026-04-21T15:46:29.96Z</time></trkpt><trkpt lat="43.8594367" lon="11.2332072"><ele>526.0</ele><time>2026-04-21T15:46:30.957Z</time></trkpt><trkpt lat="43.8595897" lon="11.2331445"><ele>524.0</ele><time>2026-04-21T15:46:31.952Z</time></trkpt><trkpt lat="43.8597552" lon="11.2331332"><ele>522.0</ele><time>2026-04-21T15:46:32.953Z</time></trkpt><trkpt lat="43.8599255" lon="11.233166"><ele>522.0</ele><time>2026-04-21T15:46:33.953Z</time></trkpt><trkpt lat="43.8601028" lon="11.2332296"><ele>522.0</ele><time>2026-04-21T15:46:34.954Z</time></trkpt><trkpt lat="43.8602751" lon="11.2332981"><ele>522.0</ele><time>2026-04-21T15:46:35.96Z</time></trkpt><trkpt lat="43.8604401" lon="11.2333782"><ele>519.0</ele><time>2026-04-21T15:46:36.952Z</time></trkpt><trkpt lat="43.8606014" lon="11.2335248"><ele>516.0</ele><time>2026-04-21T15:46:37.952Z</time></trkpt><trkpt lat="43.8607657" lon="11.2337099"><ele>513.0</ele><time>2026-04-21T15:46:38.956Z</time></trkpt><trkpt lat="43.8609157" lon="11.2339057"><ele>512.6666666666666</ele><time>2026-04-21T15:46:39.951Z</time></trkpt><trkpt lat="43.861059" lon="11.234129"><ele>512.3333333333333</ele><time>2026-04-21T15:46:40.955Z</time></trkpt><trkpt lat="43.8611935" lon="11.2343233"><ele>512.0</ele><time>2026-04-21T15:46:41.949Z</time></trkpt><trkpt lat="43.8613154" lon="11.2345021"><ele>512.0</ele><time>2026-04-21T15:46:42.955Z</time></trkpt><trkpt lat="43.861453" lon="11.2346706"><ele>512.0</ele><time>2026-04-21T15:46:43.951Z</time></trkpt><trkpt lat="43.8616308" lon="11.2347767"><ele>512.0</ele><time>2026-04-21T15:46:44.954Z</time></trkpt><trkpt lat="43.8618162" lon="11.2348355"><ele>514.0</ele><time>2026-04-21T15:46:45.955Z</time></trkpt><trkpt lat="43.8620124" lon="11.2348595"><ele>516.0</ele><time>2026-04-21T15:46:46.955Z</time></trkpt><trkpt lat="43.8622047" lon="11.2348392"><ele>518.0</ele><time>2026-04-21T15:46:47.956Z</time></trkpt><trkpt lat="43.8623946" lon="11.2347806"><ele>511.66666666666663</ele><time>2026-04-21T15:46:48.949Z</time></trkpt><trkpt lat="43.8625714" lon="11.2347024"><ele>505.33333333333337</ele><time>2026-04-21T15:46:49.953Z</time></trkpt><trkpt lat="43.8627553" lon="11.2346058"><ele>499.0</ele><time>2026-04-21T15:46:50.951Z</time></trkpt><trkpt lat="43.8629309" lon="11.2345239"><ele>498.0</ele><time>2026-04-21T15:46:51.95Z</time></trkpt><trkpt lat="43.8630859" lon="11.2344314"><ele>497.0</ele><time>2026-04-21T15:46:52.951Z</time></trkpt><trkpt lat="43.8632382" lon="11.2343198"><ele>496.0</ele><time>2026-04-21T15:46:53.955Z</time></trkpt><trkpt lat="43.863382" lon="11.2341996"><ele>498.0</ele><time>2026-04-21T15:46:54.953Z</time></trkpt><trkpt lat="43.863524" lon="11.2340651"><ele>500.0</ele><time>2026-04-21T15:46:55.95Z</time></trkpt><trkpt lat="43.8636692" lon="11.2339533"><ele>502.0</ele><time>2026-04-21T15:46:56.953Z</time></trkpt><trkpt lat="43.8637949" lon="11.2338307"><ele>497.5</ele><time>2026-04-21T15:46:57.95Z</time></trkpt><trkpt lat="43.8639286" lon="11.2337153"><ele>493.0</ele><time>2026-04-21T15:46:58.957Z</time></trkpt><trkpt lat="43.8640441" lon="11.2336096"><ele>488.5</ele><time>2026-04-21T15:46:59.958Z</time></trkpt><trkpt lat="43.8641714" lon="11.2335221"><ele>484.0</ele><time>2026-04-21T15:47:00.956Z</time></trkpt><trkpt lat="43.8643072" lon="11.2334646"><ele>484.0</ele><time>2026-04-21T15:47:01.952Z</time></trkpt><trkpt lat="43.8644541" lon="11.2334127"><ele>484.0</ele><time>2026-04-21T15:47:02.958Z</time></trkpt><trkpt lat="43.8646073" lon="11.2333774"><ele>484.0</ele><time>2026-04-21T15:47:03.954Z</time></trkpt><trkpt lat="43.8647702" lon="11.2333515"><ele>484.0</ele><time>2026-04-21T15:47:04.953Z</time></trkpt><trkpt lat="43.8649363" lon="11.2333299"><ele>484.0</ele><time>2026-04-21T15:47:05.955Z</time></trkpt><trkpt lat="43.8650999" lon="11.2333074"><ele>484.0</ele><time>2026-04-21T15:47:06.954Z</time></trkpt><trkpt lat="43.86526" lon="11.2332819"><ele>484.0</ele><time>2026-04-21T15:47:07.948Z</time></trkpt><trkpt lat="43.8654129" lon="11.233253"><ele>484.0</ele><time>2026-04-21T15:47:08.955Z</time></trkpt><trkpt lat="43.8655486" lon="11.2332269"><ele>484.0</ele><time>2026-04-21T15:47:09.951Z</time></trkpt><trkpt lat="43.8656809" lon="11.2332034"><ele>484.0</ele><time>2026-04-21T15:47:10.954Z</time></trkpt><trkpt lat="43.8658099" lon="11.2331826"><ele>484.0</ele><time>2026-04-21T15:47:11.949Z</time></trkpt><trkpt lat="43.8659332" lon="11.2331542"><ele>484.0</ele><time>2026-04-21T15:47:12.954Z</time></trkpt><trkpt lat="43.8660378" lon="11.2331083"><ele>484.0</ele><time>2026-04-21T15:47:13.959Z</time></trkpt><trkpt lat="43.8661154" lon="11.233049"><ele>484.0</ele><time>2026-04-21T15:47:14.954Z</time></trkpt><trkpt lat="43.8661854" lon="11.232984"><ele>484.0</ele><time>2026-04-21T15:47:15.95Z</time></trkpt><trkpt lat="43.8662403" lon="11.2329103"><ele>486.0</ele><time>2026-04-21T15:47:16.954Z</time></trkpt><trkpt lat="43.866278" lon="11.2328368"><ele>487.99999999999994</ele><time>2026-04-21T15:47:17.958Z</time></trkpt><trkpt lat="43.8663114" lon="11.2327554"><ele>490.0</ele><time>2026-04-21T15:47:18.96Z</time></trkpt><trkpt lat="43.8663427" lon="11.2326746"><ele>492.0</ele><time>2026-04-21T15:47:19.956Z</time></trkpt><trkpt lat="43.8663668" lon="11.2325915"><ele>493.99999999999994</ele><time>2026-04-21T15:47:20.952Z</time></trkpt><trkpt lat="43.8664059" lon="11.2324508"><ele>496.0</ele><time>2026-04-21T15:47:22.948Z</time></trkpt><trkpt lat="43.866453" lon="11.2323918"><ele>498.0</ele><time>2026-04-21T15:47:31.958Z</time></trkpt><trkpt lat="43.8664876" lon="11.2324928"><ele>498.0</ele><time>2026-04-21T15:47:36.951Z</time></trkpt><trkpt lat="43.866522" lon="11.2325863"><ele>498.0</ele><time>2026-04-21T15:47:39.96Z</time></trkpt><trkpt lat="43.8665484" lon="11.2326884"><ele>498.0</ele><time>2026-04-21T15:47:42.954Z</time></trkpt><trkpt lat="43.8665828" lon="11.2327693"><ele>498.0</ele><time>2026-04-21T15:47:47.955Z</time></trkpt><trkpt lat="43.8666173" lon="11.2328642"><ele>498.0</ele><time>2026-04-21T15:47:50.949Z</time></trkpt><trkpt lat="43.8666168" lon="11.2329563"><ele>498.0</ele><time>2026-04-21T15:47:55.955Z</time></trkpt><trkpt lat="43.866592" lon="11.2330765"><ele>498.0</ele><time>2026-04-21T15:48:20.95Z</time></trkpt><trkpt lat="43.8665048" lon="11.2331232"><ele>498.0</ele><time>2026-04-21T15:48:56.953Z</time></trkpt><trkpt lat="43.8665493" lon="11.2330527"><ele>498.0</ele><time>2026-04-21T15:50:11.957Z</time></trkpt><trkpt lat="43.8665263" lon="11.232964"><ele>498.0</ele><time>2026-04-21T15:50:14.951Z</time></trkpt><trkpt lat="43.8664834" lon="11.2328632"><ele>498.0</ele><time>2026-04-21T15:50:17.951Z</time></trkpt><trkpt lat="43.8664513" lon="11.2327614"><ele>498.0</ele><time>2026-04-21T15:50:20.947Z</time></trkpt><trkpt lat="43.866429" lon="11.2326734"><ele>498.0</ele><time>2026-04-21T15:50:22.954Z</time></trkpt><trkpt lat="43.8664161" lon="11.2325448"><ele>498.0</ele><time>2026-04-21T15:50:24.949Z</time></trkpt><trkpt lat="43.8664133" lon="11.232449"><ele>498.0</ele><time>2026-04-21T15:50:26.95Z</time></trkpt><trkpt lat="43.8664024" lon="11.232363"><ele>498.0</ele><time>2026-04-21T15:50:28.952Z</time></trkpt><trkpt lat="43.8663761" lon="11.2322429"><ele>498.0</ele><time>2026-04-21T15:50:30.958Z</time></trkpt><trkpt lat="43.8663481" lon="11.2320903"><ele>498.0</ele><time>2026-04-21T15:50:32.952Z</time></trkpt><trkpt lat="43.8663167" lon="11.2319288"><ele>497.79999999999995</ele><time>2026-04-21T15:50:34.957Z</time></trkpt><trkpt lat="43.8662969" lon="11.2317798"><ele>497.59999999999997</ele><time>2026-04-21T15:50:36.95Z</time></trkpt><trkpt lat="43.866258" lon="11.2316077"><ele>497.40000000000003</ele><time>2026-04-21T15:50:38.954Z</time></trkpt><trkpt lat="43.8662411" lon="11.2315042"><ele>497.20000000000005</ele><time>2026-04-21T15:50:39.946Z</time></trkpt><trkpt lat="43.8662257" lon="11.2313918"><ele>497.0</ele><time>2026-04-21T15:50:40.957Z</time></trkpt><trkpt lat="43.8662172" lon="11.2312699"><ele>496.99999999999994</ele><time>2026-04-21T15:50:41.956Z</time></trkpt><trkpt lat="43.8662183" lon="11.2311525"><ele>497.0</ele><time>2026-04-21T15:50:42.952Z</time></trkpt><trkpt lat="43.8662278" lon="11.2310395"><ele>497.0</ele><time>2026-04-21T15:50:43.946Z</time></trkpt><trkpt lat="43.8662377" lon="11.2309199"><ele>497.0</ele><time>2026-04-21T15:50:44.951Z</time></trkpt><trkpt lat="43.8662464" lon="11.2307941"><ele>496.99999999999994</ele><time>2026-04-21T15:50:45.95Z</time></trkpt><trkpt lat="43.8662488" lon="11.2306648"><ele>497.0</ele><time>2026-04-21T15:50:46.949Z</time></trkpt><trkpt lat="43.866243" lon="11.230536"><ele>496.40000000000003</ele><time>2026-04-21T15:50:47.948Z</time></trkpt><trkpt lat="43.8662268" lon="11.2304036"><ele>495.80000000000007</ele><time>2026-04-21T15:50:48.957Z</time></trkpt><trkpt lat="43.8662079" lon="11.2302682"><ele>495.2</ele><time>2026-04-21T15:50:49.947Z</time></trkpt><trkpt lat="43.8661801" lon="11.2301234"><ele>494.6</ele><time>2026-04-21T15:50:50.959Z</time></trkpt><trkpt lat="43.8661513" lon="11.22997"><ele>494.0</ele><time>2026-04-21T15:50:51.951Z</time></trkpt><trkpt lat="43.8661192" lon="11.2298079"><ele>496.5</ele><time>2026-04-21T15:50:52.956Z</time></trkpt><trkpt lat="43.8660941" lon="11.2296427"><ele>499.0</ele><time>2026-04-21T15:50:53.958Z</time></trkpt><trkpt lat="43.8660655" lon="11.2294708"><ele>501.5</ele><time>2026-04-21T15:50:54.954Z</time></trkpt><trkpt lat="43.8660342" lon="11.2293013"><ele>504.0</ele><time>2026-04-21T15:50:55.952Z</time></trkpt><trkpt lat="43.8660065" lon="11.2291398"><ele>504.0</ele><time>2026-04-21T15:50:56.956Z</time></trkpt><trkpt lat="43.8659766" lon="11.2289806"><ele>504.0</ele><time>2026-04-21T15:50:57.95Z</time></trkpt><trkpt lat="43.8659484" lon="11.2288155"><ele>504.0</ele><time>2026-04-21T15:50:58.955Z</time></trkpt><trkpt lat="43.8659174" lon="11.228641"><ele>504.0</ele><time>2026-04-21T15:50:59.947Z</time></trkpt><trkpt lat="43.865884" lon="11.2284724"><ele>493.0</ele><time>2026-04-21T15:51:00.953Z</time></trkpt><trkpt lat="43.8658491" lon="11.228298"><ele>482.0</ele><time>2026-04-21T15:51:01.956Z</time></trkpt><trkpt lat="43.8658058" lon="11.2281317"><ele>471.0</ele><time>2026-04-21T15:51:02.951Z</time></trkpt><trkpt lat="43.8657581" lon="11.2279879"><ele>460.0</ele><time>2026-04-21T15:51:03.948Z</time></trkpt><trkpt lat="43.8657178" lon="11.2278347"><ele>460.0</ele><time>2026-04-21T15:51:04.956Z</time></trkpt><trkpt lat="43.865678" lon="11.2276822"><ele>460.0</ele><time>2026-04-21T15:51:05.953Z</time></trkpt><trkpt lat="43.865638" lon="11.2275257"><ele>460.0</ele><time>2026-04-21T15:51:06.957Z</time></trkpt><trkpt lat="43.8655954" lon="11.2273689"><ele>460.0</ele><time>2026-04-21T15:51:07.952Z</time></trkpt><trkpt lat="43.8655586" lon="11.2272208"><ele>463.0</ele><time>2026-04-21T15:51:08.957Z</time></trkpt><trkpt lat="43.8655157" lon="11.2270625"><ele>466.0</ele><time>2026-04-21T15:51:09.953Z</time></trkpt><trkpt lat="43.8654734" lon="11.226905"><ele>469.0</ele><time>2026-04-21T15:51:10.955Z</time></trkpt><trkpt lat="43.865426" lon="11.2267518"><ele>472.0</ele><time>2026-04-21T15:51:11.952Z</time></trkpt><trkpt lat="43.8653778" lon="11.226594"><ele>472.25</ele><time>2026-04-21T15:51:12.954Z</time></trkpt><trkpt lat="43.8653296" lon="11.2264304"><ele>472.5</ele><time>2026-04-21T15:51:13.951Z</time></trkpt><trkpt lat="43.8652812" lon="11.2262691"><ele>472.75</ele><time>2026-04-21T15:51:14.949Z</time></trkpt><trkpt lat="43.8652277" lon="11.2261062"><ele>473.0</ele><time>2026-04-21T15:51:15.955Z</time></trkpt><trkpt lat="43.865164" lon="11.2259549"><ele>464.0</ele><time>2026-04-21T15:51:16.971Z</time></trkpt><trkpt lat="43.865088" lon="11.2258252"><ele>455.0</ele><time>2026-04-21T15:51:17.955Z</time></trkpt><trkpt lat="43.8650027" lon="11.2257052"><ele>446.0</ele><time>2026-04-21T15:51:18.952Z</time></trkpt><trkpt lat="43.8649103" lon="11.2255892"><ele>437.0</ele><time>2026-04-21T15:51:19.949Z</time></trkpt><trkpt lat="43.8648235" lon="11.2254787"><ele>437.0</ele><time>2026-04-21T15:51:20.957Z</time></trkpt><trkpt lat="43.8647397" lon="11.2253668"><ele>437.0</ele><time>2026-04-21T15:51:21.955Z</time></trkpt><trkpt lat="43.8646499" lon="11.2252649"><ele>437.0</ele><time>2026-04-21T15:51:22.959Z</time></trkpt><trkpt lat="43.8645568" lon="11.2251724"><ele>437.0</ele><time>2026-04-21T15:51:23.958Z</time></trkpt><trkpt lat="43.8644562" lon="11.2251117"><ele>437.0</ele><time>2026-04-21T15:51:24.958Z</time></trkpt><trkpt lat="43.8643452" lon="11.2250615"><ele>437.0</ele><time>2026-04-21T15:51:25.962Z</time></trkpt><trkpt lat="43.8642253" lon="11.2250262"><ele>437.0</ele><time>2026-04-21T15:51:26.958Z</time></trkpt><trkpt lat="43.8641053" lon="11.2249864"><ele>437.0</ele><time>2026-04-21T15:51:27.957Z</time></trkpt><trkpt lat="43.8639868" lon="11.2249518"><ele>432.75</ele><time>2026-04-21T15:51:28.957Z</time></trkpt><trkpt lat="43.8638785" lon="11.2249026"><ele>428.5</ele><time>2026-04-21T15:51:29.961Z</time></trkpt><trkpt lat="43.8637725" lon="11.2248434"><ele>424.25</ele><time>2026-04-21T15:51:30.949Z</time></trkpt><trkpt lat="43.8636742" lon="11.2247567"><ele>420.0</ele><time>2026-04-21T15:51:31.961Z</time></trkpt><trkpt lat="43.8635849" lon="11.2246581"><ele>417.75</ele><time>2026-04-21T15:51:32.957Z</time></trkpt><trkpt lat="43.8634953" lon="11.2245628"><ele>415.5</ele><time>2026-04-21T15:51:33.955Z</time></trkpt><trkpt lat="43.8634022" lon="11.2244611"><ele>413.25</ele><time>2026-04-21T15:51:34.959Z</time></trkpt><trkpt lat="43.863303" lon="11.2243675"><ele>411.0</ele><time>2026-04-21T15:51:35.958Z</time></trkpt><trkpt lat="43.8632025" lon="11.2242657"><ele>410.5</ele><time>2026-04-21T15:51:36.955Z</time></trkpt><trkpt lat="43.8631121" lon="11.2241429"><ele>410.0</ele><time>2026-04-21T15:51:37.947Z</time></trkpt><trkpt lat="43.8630451" lon="11.2240007"><ele>409.5</ele><time>2026-04-21T15:51:38.961Z</time></trkpt><trkpt lat="43.8629948" lon="11.2238502"><ele>409.0</ele><time>2026-04-21T15:51:39.959Z</time></trkpt><trkpt lat="43.8629612" lon="11.2236896"><ele>405.75</ele><time>2026-04-21T15:51:40.96Z</time></trkpt><trkpt lat="43.8629538" lon="11.2235446"><ele>402.5</ele><time>2026-04-21T15:51:41.957Z</time></trkpt><trkpt lat="43.8629548" lon="11.223388"><ele>399.25</ele><time>2026-04-21T15:51:42.955Z</time></trkpt><trkpt lat="43.8629463" lon="11.2232124"><ele>396.0</ele><time>2026-04-21T15:51:43.959Z</time></trkpt><trkpt lat="43.8629222" lon="11.2230283"><ele>392.0</ele><time>2026-04-21T15:51:44.954Z</time></trkpt><trkpt lat="43.8628987" lon="11.2228502"><ele>388.0</ele><time>2026-04-21T15:51:45.953Z</time></trkpt><trkpt lat="43.8628678" lon="11.222668"><ele>384.0</ele><time>2026-04-21T15:51:46.953Z</time></trkpt><trkpt lat="43.8628286" lon="11.2224927"><ele>380.0</ele><time>2026-04-21T15:51:47.957Z</time></trkpt><trkpt lat="43.8627685" lon="11.2223232"><ele>377.25</ele><time>2026-04-21T15:51:48.958Z</time></trkpt><trkpt lat="43.8626816" lon="11.2221473"><ele>374.5</ele><time>2026-04-21T15:51:49.951Z</time></trkpt><trkpt lat="43.8625948" lon="11.2219847"><ele>371.75</ele><time>2026-04-21T15:51:50.96Z</time></trkpt><trkpt lat="43.8625219" lon="11.2218088"><ele>369.0</ele><time>2026-04-21T15:51:51.955Z</time></trkpt><trkpt lat="43.8624673" lon="11.2216164"><ele>365.75</ele><time>2026-04-21T15:51:52.959Z</time></trkpt><trkpt lat="43.8624292" lon="11.2214197"><ele>362.5</ele><time>2026-04-21T15:51:53.957Z</time></trkpt><trkpt lat="43.8623936" lon="11.2212204"><ele>359.25</ele><time>2026-04-21T15:51:54.958Z</time></trkpt><trkpt lat="43.862342" lon="11.2210251"><ele>356.0</ele><time>2026-04-21T15:51:55.956Z</time></trkpt><trkpt lat="43.8622657" lon="11.2208304"><ele>356.0</ele><time>2026-04-21T15:51:56.955Z</time></trkpt><trkpt lat="43.8621706" lon="11.2206603"><ele>356.0</ele><time>2026-04-21T15:51:57.959Z</time></trkpt><trkpt lat="43.8620786" lon="11.2204973"><ele>356.0</ele><time>2026-04-21T15:51:58.955Z</time></trkpt><trkpt lat="43.8619853" lon="11.2203449"><ele>356.0</ele><time>2026-04-21T15:51:59.954Z</time></trkpt><trkpt lat="43.8618966" lon="11.2201815"><ele>353.25</ele><time>2026-04-21T15:52:00.96Z</time></trkpt><trkpt lat="43.8618048" lon="11.2200134"><ele>350.5</ele><time>2026-04-21T15:52:01.957Z</time></trkpt><trkpt lat="43.8617143" lon="11.2198516"><ele>347.75</ele><time>2026-04-21T15:52:02.957Z</time></trkpt><trkpt lat="43.8616274" lon="11.219689"><ele>345.0</ele><time>2026-04-21T15:52:03.954Z</time></trkpt><trkpt lat="43.8615482" lon="11.2195367"><ele>343.0</ele><time>2026-04-21T15:52:04.961Z</time></trkpt><trkpt lat="43.861477" lon="11.2194025"><ele>341.0</ele><time>2026-04-21T15:52:05.956Z</time></trkpt><trkpt lat="43.8614111" lon="11.2192618"><ele>339.0</ele><time>2026-04-21T15:52:06.96Z</time></trkpt><trkpt lat="43.8613643" lon="11.2190999"><ele>337.0</ele><time>2026-04-21T15:52:07.958Z</time></trkpt><trkpt lat="43.86134" lon="11.2189421"><ele>335.5</ele><time>2026-04-21T15:52:08.953Z</time></trkpt><trkpt lat="43.8613217" lon="11.2187698"><ele>334.0</ele><time>2026-04-21T15:52:09.945Z</time></trkpt><trkpt lat="43.8613066" lon="11.2185934"><ele>332.5</ele><time>2026-04-21T15:52:10.957Z</time></trkpt><trkpt lat="43.8612968" lon="11.2184334"><ele>331.0</ele><time>2026-04-21T15:52:11.961Z</time></trkpt><trkpt lat="43.8612778" lon="11.2182663"><ele>330.20000000000005</ele><time>2026-04-21T15:52:12.966Z</time></trkpt><trkpt lat="43.861266" lon="11.2181127"><ele>329.40000000000003</ele><time>2026-04-21T15:52:13.96Z</time></trkpt><trkpt lat="43.861248" lon="11.2179709"><ele>328.6</ele><time>2026-04-21T15:52:14.959Z</time></trkpt><trkpt lat="43.8612273" lon="11.217828"><ele>327.8</ele><time>2026-04-21T15:52:15.962Z</time></trkpt><trkpt lat="43.8612117" lon="11.2177008"><ele>327.0</ele><time>2026-04-21T15:52:16.963Z</time></trkpt><trkpt lat="43.8611925" lon="11.2175708"><ele>327.0</ele><time>2026-04-21T15:52:17.953Z</time></trkpt><trkpt lat="43.8611833" lon="11.2174828"><ele>327.0</ele><time>2026-04-21T15:52:18.956Z</time></trkpt><trkpt lat="43.8611799" lon="11.2173807"><ele>327.0</ele><time>2026-04-21T15:52:21.965Z</time></trkpt><trkpt lat="43.8612665" lon="11.2173645"><ele>327.0</ele><time>2026-04-21T15:52:25.958Z</time></trkpt><trkpt lat="43.8613457" lon="11.2173633"><ele>327.0</ele><time>2026-04-21T15:52:27.958Z</time></trkpt><trkpt lat="43.8614614" lon="11.2174361"><ele>327.0</ele><time>2026-04-21T15:52:30.031Z</time></trkpt><trkpt lat="43.8615315" lon="11.2174775"><ele>327.0</ele><time>2026-04-21T15:52:31.009Z</time></trkpt><trkpt lat="43.8616009" lon="11.2175222"><ele>327.0</ele><time>2026-04-21T15:52:32.015Z</time></trkpt><trkpt lat="43.8616752" lon="11.217563"><ele>327.0</ele><time>2026-04-21T15:52:32.946Z</time></trkpt><trkpt lat="43.8617344" lon="11.2176096"><ele>327.0</ele><time>2026-04-21T15:52:33.965Z</time></trkpt><trkpt lat="43.8617952" lon="11.217672"><ele>327.0</ele><time>2026-04-21T15:52:34.955Z</time></trkpt><trkpt lat="43.8618566" lon="11.2177276"><ele>327.0</ele><time>2026-04-21T15:52:35.955Z</time></trkpt><trkpt lat="43.8619225" lon="11.2177777"><ele>327.0</ele><time>2026-04-21T15:52:36.959Z</time></trkpt><trkpt lat="43.8619936" lon="11.217832"><ele>325.5</ele><time>2026-04-21T15:52:37.954Z</time></trkpt><trkpt lat="43.8620733" lon="11.2178971"><ele>324.0</ele><time>2026-04-21T15:52:39.015Z</time></trkpt><trkpt lat="43.8621599" lon="11.2179615"><ele>322.5</ele><time>2026-04-21T15:52:40.018Z</time></trkpt><trkpt lat="43.8622377" lon="11.218023"><ele>321.0</ele><time>2026-04-21T15:52:41.024Z</time></trkpt><trkpt lat="43.8623072" lon="11.2180676"><ele>319.5</ele><time>2026-04-21T15:52:41.95Z</time></trkpt><trkpt lat="43.8623742" lon="11.2181057"><ele>318.0</ele><time>2026-04-21T15:52:42.95Z</time></trkpt><trkpt lat="43.8624475" lon="11.2181337"><ele>318.0</ele><time>2026-04-21T15:52:43.952Z</time></trkpt><trkpt lat="43.8625242" lon="11.2181438"><ele>318.0</ele><time>2026-04-21T15:52:44.949Z</time></trkpt><trkpt lat="43.8626029" lon="11.2181494"><ele>318.0</ele><time>2026-04-21T15:52:45.955Z</time></trkpt><trkpt lat="43.8626815" lon="11.21816"><ele>318.0</ele><time>2026-04-21T15:52:47.032Z</time></trkpt><trkpt lat="43.8627547" lon="11.2181807"><ele>318.0</ele><time>2026-04-21T15:52:47.951Z</time></trkpt><trkpt lat="43.8628329" lon="11.2182217"><ele>318.0</ele><time>2026-04-21T15:52:48.947Z</time></trkpt><trkpt lat="43.8629107" lon="11.2182736"><ele>318.5</ele><time>2026-04-21T15:52:49.956Z</time></trkpt><trkpt lat="43.8629958" lon="11.218335"><ele>319.0</ele><time>2026-04-21T15:52:51.021Z</time></trkpt><trkpt lat="43.8630924" lon="11.2183921"><ele>319.5</ele><time>2026-04-21T15:52:52.058Z</time></trkpt><trkpt lat="43.8632939" lon="11.2184754"><ele>320.0</ele><time>2026-04-21T15:52:53.948Z</time></trkpt><trkpt lat="43.8633926" lon="11.2185106"><ele>320.0</ele><time>2026-04-21T15:52:54.946Z</time></trkpt><trkpt lat="43.8634888" lon="11.2185477"><ele>320.0</ele><time>2026-04-21T15:52:56.028Z</time></trkpt><trkpt lat="43.8635806" lon="11.2185717"><ele>320.0</ele><time>2026-04-21T15:52:56.948Z</time></trkpt><trkpt lat="43.8636691" lon="11.2185542"><ele>320.0</ele><time>2026-04-21T15:52:57.946Z</time></trkpt><trkpt lat="43.8637609" lon="11.2184883"><ele>320.0</ele><time>2026-04-21T15:52:58.95Z</time></trkpt><trkpt lat="43.8638424" lon="11.2184126"><ele>320.0</ele><time>2026-04-21T15:52:59.937Z</time></trkpt><trkpt lat="43.8639243" lon="11.2183471"><ele>320.0</ele><time>2026-04-21T15:53:00.937Z</time></trkpt><trkpt lat="43.8640056" lon="11.2182894"><ele>320.0</ele><time>2026-04-21T15:53:01.938Z</time></trkpt><trkpt lat="43.8640882" lon="11.2182292"><ele>320.0</ele><time>2026-04-21T15:53:02.951Z</time></trkpt><trkpt lat="43.8641575" lon="11.2181578"><ele>320.0</ele><time>2026-04-21T15:53:03.944Z</time></trkpt><trkpt lat="43.8642067" lon="11.2180751"><ele>320.0</ele><time>2026-04-21T15:53:04.952Z</time></trkpt><trkpt lat="43.8642398" lon="11.2179889"><ele>319.1666666666667</ele><time>2026-04-21T15:53:06.047Z</time></trkpt><trkpt lat="43.8642558" lon="11.2178849"><ele>318.33333333333337</ele><time>2026-04-21T15:53:06.953Z</time></trkpt><trkpt lat="43.8642712" lon="11.2177797"><ele>317.5</ele><time>2026-04-21T15:53:07.948Z</time></trkpt><trkpt lat="43.8642887" lon="11.2176683"><ele>316.6666666666667</ele><time>2026-04-21T15:53:08.955Z</time></trkpt><trkpt lat="43.8643115" lon="11.2175596"><ele>315.8333333333333</ele><time>2026-04-21T15:53:10.007Z</time></trkpt><trkpt lat="43.8643341" lon="11.2174562"><ele>315.0</ele><time>2026-04-21T15:53:10.956Z</time></trkpt><trkpt lat="43.8643568" lon="11.2173604"><ele>313.3333333333333</ele><time>2026-04-21T15:53:11.955Z</time></trkpt><trkpt lat="43.8643858" lon="11.2172751"><ele>311.6666666666667</ele><time>2026-04-21T15:53:12.961Z</time></trkpt><trkpt lat="43.8644275" lon="11.2171811"><ele>310.0</ele><time>2026-04-21T15:53:13.943Z</time></trkpt><trkpt lat="43.864473" lon="11.2170826"><ele>308.33333333333337</ele><time>2026-04-21T15:53:14.948Z</time></trkpt><trkpt lat="43.864523" lon="11.2169896"><ele>306.6666666666667</ele><time>2026-04-21T15:53:15.943Z</time></trkpt><trkpt lat="43.8645786" lon="11.2168845"><ele>305.0</ele><time>2026-04-21T15:53:16.954Z</time></trkpt><trkpt lat="43.8646454" lon="11.2167746"><ele>305.0</ele><time>2026-04-21T15:53:17.956Z</time></trkpt><trkpt lat="43.8647237" lon="11.2166683"><ele>305.0</ele><time>2026-04-21T15:53:18.956Z</time></trkpt><trkpt lat="43.8648076" lon="11.2165663"><ele>305.0</ele><time>2026-04-21T15:53:20.029Z</time></trkpt><trkpt lat="43.86489" lon="11.2164725"><ele>305.0</ele><time>2026-04-21T15:53:21.02Z</time></trkpt><trkpt lat="43.864969" lon="11.2163802"><ele>305.0</ele><time>2026-04-21T15:53:22.039Z</time></trkpt><trkpt lat="43.8650381" lon="11.2162888"><ele>304.5</ele><time>2026-04-21T15:53:22.974Z</time></trkpt><trkpt lat="43.8650986" lon="11.216193"><ele>304.0</ele><time>2026-04-21T15:53:23.96Z</time></trkpt><trkpt lat="43.8651513" lon="11.2160972"><ele>303.5</ele><time>2026-04-21T15:53:24.984Z</time></trkpt><trkpt lat="43.8652111" lon="11.2160101"><ele>303.0</ele><time>2026-04-21T15:53:25.962Z</time></trkpt><trkpt lat="43.8652704" lon="11.2159437"><ele>302.5</ele><time>2026-04-21T15:53:26.963Z</time></trkpt><trkpt lat="43.8653325" lon="11.2158908"><ele>302.0</ele><time>2026-04-21T15:53:27.954Z</time></trkpt><trkpt lat="43.8653991" lon="11.2158541"><ele>301.5</ele><time>2026-04-21T15:53:29.029Z</time></trkpt><trkpt lat="43.8654609" lon="11.2158236"><ele>301.0</ele><time>2026-04-21T15:53:29.96Z</time></trkpt><trkpt lat="43.8655244" lon="11.2158121"><ele>300.5</ele><time>2026-04-21T15:53:31.036Z</time></trkpt><trkpt lat="43.8656485" lon="11.215816"><ele>300.0</ele><time>2026-04-21T15:53:32.956Z</time></trkpt><trkpt lat="43.8657268" lon="11.2157963"><ele>299.5</ele><time>2026-04-21T15:53:33.964Z</time></trkpt><trkpt lat="43.8658032" lon="11.2157477"><ele>299.0</ele><time>2026-04-21T15:53:34.957Z</time></trkpt><trkpt lat="43.8658899" lon="11.2157016"><ele>296.59999999999997</ele><time>2026-04-21T15:53:35.955Z</time></trkpt><trkpt lat="43.8659898" lon="11.2156375"><ele>294.2</ele><time>2026-04-21T15:53:36.956Z</time></trkpt><trkpt lat="43.8660983" lon="11.2155902"><ele>291.79999999999995</ele><time>2026-04-21T15:53:37.952Z</time></trkpt><trkpt lat="43.8661919" lon="11.2155291"><ele>289.4</ele><time>2026-04-21T15:53:38.959Z</time></trkpt><trkpt lat="43.8662805" lon="11.2154604"><ele>287.0</ele><time>2026-04-21T15:53:40.046Z</time></trkpt><trkpt lat="43.8663522" lon="11.2153962"><ele>287.0</ele><time>2026-04-21T15:53:41.035Z</time></trkpt><trkpt lat="43.8664282" lon="11.2153488"><ele>287.0</ele><time>2026-04-21T15:53:42.031Z</time></trkpt><trkpt lat="43.8665051" lon="11.2153281"><ele>287.0</ele><time>2026-04-21T15:53:42.965Z</time></trkpt><trkpt lat="43.8665977" lon="11.2153211"><ele>287.0</ele><time>2026-04-21T15:53:43.955Z</time></trkpt><trkpt lat="43.8666966" lon="11.2153398"><ele>287.0</ele><time>2026-04-21T15:53:44.986Z</time></trkpt><trkpt lat="43.8668007" lon="11.2153452"><ele>287.0</ele><time>2026-04-21T15:53:46.026Z</time></trkpt><trkpt lat="43.8669068" lon="11.2153551"><ele>287.0</ele><time>2026-04-21T15:53:47.032Z</time></trkpt><trkpt lat="43.8670068" lon="11.215373"><ele>287.0</ele><time>2026-04-21T15:53:47.955Z</time></trkpt><trkpt lat="43.8671021" lon="11.2153861"><ele>287.0</ele><time>2026-04-21T15:53:48.957Z</time></trkpt><trkpt lat="43.8671901" lon="11.2154225"><ele>287.0</ele><time>2026-04-21T15:53:49.956Z</time></trkpt><trkpt lat="43.8672779" lon="11.215463"><ele>287.0</ele><time>2026-04-21T15:53:50.947Z</time></trkpt><trkpt lat="43.8673655" lon="11.2154982"><ele>287.0</ele><time>2026-04-21T15:53:51.948Z</time></trkpt><trkpt lat="43.8674506" lon="11.2155209"><ele>287.0</ele><time>2026-04-21T15:53:52.96Z</time></trkpt><trkpt lat="43.8675321" lon="11.2155397"><ele>287.0</ele><time>2026-04-21T15:53:53.95Z</time></trkpt><trkpt lat="43.8675986" lon="11.2155574"><ele>287.0</ele><time>2026-04-21T15:53:54.957Z</time></trkpt><trkpt lat="43.8677148" lon="11.2156165"><ele>285.8</ele><time>2026-04-21T15:53:57.029Z</time></trkpt><trkpt lat="43.8678213" lon="11.2156375"><ele>284.6</ele><time>2026-04-21T15:53:58.955Z</time></trkpt><trkpt lat="43.867912" lon="11.2155412"><ele>283.40000000000003</ele><time>2026-04-21T15:54:01.033Z</time></trkpt><trkpt lat="43.8679383" lon="11.2154613"><ele>282.2</ele><time>2026-04-21T15:54:02.028Z</time></trkpt><trkpt lat="43.8679818" lon="11.2152915"><ele>281.0</ele><time>2026-04-21T15:54:03.944Z</time></trkpt><trkpt lat="43.8680218" lon="11.2152039"><ele>281.0</ele><time>2026-04-21T15:54:04.956Z</time></trkpt><trkpt lat="43.8680805" lon="11.2151117"><ele>281.0</ele><time>2026-04-21T15:54:05.961Z</time></trkpt><trkpt lat="43.8681417" lon="11.2150308"><ele>281.0</ele><time>2026-04-21T15:54:06.944Z</time></trkpt><trkpt lat="43.8682045" lon="11.2149346"><ele>281.0</ele><time>2026-04-21T15:54:07.95Z</time></trkpt><trkpt lat="43.8682712" lon="11.2148399"><ele>281.0</ele><time>2026-04-21T15:54:08.952Z</time></trkpt><trkpt lat="43.8683393" lon="11.2147286"><ele>279.40000000000003</ele><time>2026-04-21T15:54:09.951Z</time></trkpt><trkpt lat="43.8684079" lon="11.2146222"><ele>277.8</ele><time>2026-04-21T15:54:10.956Z</time></trkpt><trkpt lat="43.8684797" lon="11.2145187"><ele>276.20000000000005</ele><time>2026-04-21T15:54:12.034Z</time></trkpt><trkpt lat="43.8685514" lon="11.2144082"><ele>274.6</ele><time>2026-04-21T15:54:12.951Z</time></trkpt><trkpt lat="43.8686215" lon="11.2143019"><ele>273.0</ele><time>2026-04-21T15:54:13.956Z</time></trkpt><trkpt lat="43.8686721" lon="11.2142071"><ele>272.1666666666667</ele><time>2026-04-21T15:54:14.951Z</time></trkpt><trkpt lat="43.868708" lon="11.2141162"><ele>271.3333333333333</ele><time>2026-04-21T15:54:15.952Z</time></trkpt><trkpt lat="43.8687195" lon="11.2140185"><ele>270.5</ele><time>2026-04-21T15:54:16.953Z</time></trkpt><trkpt lat="43.8686984" lon="11.2138982"><ele>269.66666666666663</ele><time>2026-04-21T15:54:17.954Z</time></trkpt><trkpt lat="43.8686569" lon="11.2137856"><ele>268.8333333333333</ele><time>2026-04-21T15:54:18.957Z</time></trkpt><trkpt lat="43.8685896" lon="11.2136665"><ele>268.0</ele><time>2026-04-21T15:54:20.044Z</time></trkpt><trkpt lat="43.8685209" lon="11.2135772"><ele>267.0</ele><time>2026-04-21T15:54:21.029Z</time></trkpt><trkpt lat="43.8684445" lon="11.2134965"><ele>266.0</ele><time>2026-04-21T15:54:21.954Z</time></trkpt><trkpt lat="43.8683854" lon="11.2133974"><ele>265.0</ele><time>2026-04-21T15:54:22.956Z</time></trkpt><trkpt lat="43.8683436" lon="11.2132801"><ele>264.0</ele><time>2026-04-21T15:54:23.955Z</time></trkpt><trkpt lat="43.8683097" lon="11.2131711"><ele>263.0</ele><time>2026-04-21T15:54:24.955Z</time></trkpt><trkpt lat="43.8682944" lon="11.2130537"><ele>261.2</ele><time>2026-04-21T15:54:25.952Z</time></trkpt><trkpt lat="43.8682943" lon="11.2129196"><ele>259.4</ele><time>2026-04-21T15:54:26.956Z</time></trkpt><trkpt lat="43.8683155" lon="11.2127897"><ele>257.59999999999997</ele><time>2026-04-21T15:54:27.951Z</time></trkpt><trkpt lat="43.868354" lon="11.2126734"><ele>255.79999999999998</ele><time>2026-04-21T15:54:28.953Z</time></trkpt><trkpt lat="43.868397" lon="11.2125522"><ele>254.0</ele><time>2026-04-21T15:54:29.958Z</time></trkpt><trkpt lat="43.8684395" lon="11.2124383"><ele>252.66666666666669</ele><time>2026-04-21T15:54:30.953Z</time></trkpt><trkpt lat="43.8684866" lon="11.2123323"><ele>251.33333333333334</ele><time>2026-04-21T15:54:32.022Z</time></trkpt><trkpt lat="43.8685287" lon="11.2122342"><ele>250.0</ele><time>2026-04-21T15:54:32.954Z</time></trkpt><trkpt lat="43.8685579" lon="11.2121414"><ele>248.66666666666669</ele><time>2026-04-21T15:54:33.95Z</time></trkpt><trkpt lat="43.8685674" lon="11.2120507"><ele>247.33333333333334</ele><time>2026-04-21T15:54:34.952Z</time></trkpt><trkpt lat="43.8685465" lon="11.2119476"><ele>246.0</ele><time>2026-04-21T15:54:36.04Z</time></trkpt><trkpt lat="43.8684921" lon="11.2118412"><ele>246.0</ele><time>2026-04-21T15:54:37.043Z</time></trkpt><trkpt lat="43.8684288" lon="11.2117289"><ele>246.00000000000003</ele><time>2026-04-21T15:54:37.972Z</time></trkpt><trkpt lat="43.8683722" lon="11.2116085"><ele>246.00000000000003</ele><time>2026-04-21T15:54:38.964Z</time></trkpt><trkpt lat="43.8683084" lon="11.2114896"><ele>246.0</ele><time>2026-04-21T15:54:39.976Z</time></trkpt><trkpt lat="43.8682655" lon="11.2113769"><ele>246.0</ele><time>2026-04-21T15:54:41.037Z</time></trkpt><trkpt lat="43.8682461" lon="11.2112587"><ele>243.8</ele><time>2026-04-21T15:54:42.034Z</time></trkpt><trkpt lat="43.8682475" lon="11.211122"><ele>241.60000000000002</ele><time>2026-04-21T15:54:42.957Z</time></trkpt><trkpt lat="43.8682608" lon="11.2109723"><ele>239.4</ele><time>2026-04-21T15:54:43.95Z</time></trkpt><trkpt lat="43.8682912" lon="11.210828"><ele>237.2</ele><time>2026-04-21T15:54:44.984Z</time></trkpt><trkpt lat="43.8683187" lon="11.2106726"><ele>235.0</ele><time>2026-04-21T15:54:45.953Z</time></trkpt><trkpt lat="43.8683519" lon="11.210513"><ele>233.25</ele><time>2026-04-21T15:54:46.957Z</time></trkpt><trkpt lat="43.8683839" lon="11.2103545"><ele>231.5</ele><time>2026-04-21T15:54:47.955Z</time></trkpt><trkpt lat="43.8684201" lon="11.2101995"><ele>229.75</ele><time>2026-04-21T15:54:48.959Z</time></trkpt><trkpt lat="43.8684616" lon="11.210035"><ele>228.0</ele><time>2026-04-21T15:54:49.959Z</time></trkpt><trkpt lat="43.8684983" lon="11.2098711"><ele>225.25</ele><time>2026-04-21T15:54:50.949Z</time></trkpt><trkpt lat="43.8685318" lon="11.209713"><ele>222.5</ele><time>2026-04-21T15:54:51.954Z</time></trkpt><trkpt lat="43.8685712" lon="11.2095657"><ele>219.75</ele><time>2026-04-21T15:54:52.955Z</time></trkpt><trkpt lat="43.8686125" lon="11.2094033"><ele>217.0</ele><time>2026-04-21T15:54:53.956Z</time></trkpt><trkpt lat="43.8686551" lon="11.2092342"><ele>217.0</ele><time>2026-04-21T15:54:54.959Z</time></trkpt><trkpt lat="43.868701" lon="11.2090693"><ele>217.0</ele><time>2026-04-21T15:54:55.952Z</time></trkpt><trkpt lat="43.8687443" lon="11.2089213"><ele>217.0</ele><time>2026-04-21T15:54:56.955Z</time></trkpt><trkpt lat="43.8687887" lon="11.2087725"><ele>217.0</ele><time>2026-04-21T15:54:57.955Z</time></trkpt><trkpt lat="43.8688195" lon="11.2086307"><ele>215.6</ele><time>2026-04-21T15:54:58.958Z</time></trkpt><trkpt lat="43.8688373" lon="11.2084919"><ele>214.2</ele><time>2026-04-21T15:55:00.019Z</time></trkpt><trkpt lat="43.8688496" lon="11.2083626"><ele>212.8</ele><time>2026-04-21T15:55:01.02Z</time></trkpt><trkpt lat="43.8688587" lon="11.2082377"><ele>211.4</ele><time>2026-04-21T15:55:02.01Z</time></trkpt><trkpt lat="43.8688807" lon="11.2081173"><ele>210.0</ele><time>2026-04-21T15:55:02.944Z</time></trkpt><trkpt lat="43.8689157" lon="11.2080137"><ele>209.42857142857142</ele><time>2026-04-21T15:55:04.012Z</time></trkpt><trkpt lat="43.8689601" lon="11.207909"><ele>208.85714285714286</ele><time>2026-04-21T15:55:05.014Z</time></trkpt><trkpt lat="43.8690079" lon="11.2078104"><ele>208.28571428571428</ele><time>2026-04-21T15:55:06.012Z</time></trkpt><trkpt lat="43.8690495" lon="11.2077231"><ele>207.71428571428572</ele><time>2026-04-21T15:55:06.973Z</time></trkpt><trkpt lat="43.8690825" lon="11.2076376"><ele>207.14285714285714</ele><time>2026-04-21T15:55:07.954Z</time></trkpt><trkpt lat="43.8690915" lon="11.2075461"><ele>206.57142857142856</ele><time>2026-04-21T15:55:08.955Z</time></trkpt><trkpt lat="43.8690864" lon="11.2074574"><ele>206.0</ele><time>2026-04-21T15:55:09.992Z</time></trkpt><trkpt lat="43.8690667" lon="11.2073721"><ele>206.16666666666669</ele><time>2026-04-21T15:55:10.983Z</time></trkpt><trkpt lat="43.8690338" lon="11.2072827"><ele>206.33333333333334</ele><time>2026-04-21T15:55:11.954Z</time></trkpt><trkpt lat="43.8689764" lon="11.2072016"><ele>206.5</ele><time>2026-04-21T15:55:12.953Z</time></trkpt><trkpt lat="43.8689022" lon="11.2071199"><ele>206.66666666666669</ele><time>2026-04-21T15:55:13.953Z</time></trkpt><trkpt lat="43.868825" lon="11.2070531"><ele>206.83333333333334</ele><time>2026-04-21T15:55:14.949Z</time></trkpt><trkpt lat="43.8687478" lon="11.2069786"><ele>207.0</ele><time>2026-04-21T15:55:15.95Z</time></trkpt><trkpt lat="43.8686772" lon="11.206889"><ele>207.0</ele><time>2026-04-21T15:55:17.009Z</time></trkpt><trkpt lat="43.8686149" lon="11.2067926"><ele>207.0</ele><time>2026-04-21T15:55:17.951Z</time></trkpt><trkpt lat="43.8685518" lon="11.2066827"><ele>207.0</ele><time>2026-04-21T15:55:18.957Z</time></trkpt><trkpt lat="43.8684933" lon="11.2065641"><ele>207.0</ele><time>2026-04-21T15:55:19.966Z</time></trkpt><trkpt lat="43.8684354" lon="11.2064501"><ele>207.0</ele><time>2026-04-21T15:55:21.015Z</time></trkpt><trkpt lat="43.8683729" lon="11.2063454"><ele>206.2</ele><time>2026-04-21T15:55:22.01Z</time></trkpt><trkpt lat="43.8682953" lon="11.2062715"><ele>205.39999999999998</ele><time>2026-04-21T15:55:22.948Z</time></trkpt><trkpt lat="43.8682009" lon="11.2062179"><ele>204.60000000000002</ele><time>2026-04-21T15:55:23.953Z</time></trkpt><trkpt lat="43.8681034" lon="11.2061647"><ele>203.8</ele><time>2026-04-21T15:55:25.048Z</time></trkpt><trkpt lat="43.8679986" lon="11.2061097"><ele>203.0</ele><time>2026-04-21T15:55:25.95Z</time></trkpt><trkpt lat="43.867906" lon="11.2060535"><ele>203.0</ele><time>2026-04-21T15:55:26.955Z</time></trkpt><trkpt lat="43.8678193" lon="11.2060048"><ele>203.0</ele><time>2026-04-21T15:55:27.953Z</time></trkpt><trkpt lat="43.8677404" lon="11.2059394"><ele>203.0</ele><time>2026-04-21T15:55:28.951Z</time></trkpt><trkpt lat="43.8676747" lon="11.2058633"><ele>203.0</ele><time>2026-04-21T15:55:29.955Z</time></trkpt><trkpt lat="43.867601" lon="11.2057798"><ele>203.0</ele><time>2026-04-21T15:55:30.952Z</time></trkpt><trkpt lat="43.8675275" lon="11.2056948"><ele>201.60000000000002</ele><time>2026-04-21T15:55:32.013Z</time></trkpt><trkpt lat="43.867452" lon="11.2056142"><ele>200.20000000000002</ele><time>2026-04-21T15:55:32.952Z</time></trkpt><trkpt lat="43.8673681" lon="11.205544"><ele>198.8</ele><time>2026-04-21T15:55:33.961Z</time></trkpt><trkpt lat="43.8672836" lon="11.2055053"><ele>197.4</ele><time>2026-04-21T15:55:34.957Z</time></trkpt><trkpt lat="43.8671992" lon="11.2054612"><ele>196.0</ele><time>2026-04-21T15:55:35.956Z</time></trkpt><trkpt lat="43.8671123" lon="11.2054101"><ele>195.99999999999997</ele><time>2026-04-21T15:55:36.957Z</time></trkpt><trkpt lat="43.8670374" lon="11.2053445"><ele>196.0</ele><time>2026-04-21T15:55:37.944Z</time></trkpt><trkpt lat="43.866986" lon="11.2052536"><ele>196.0</ele><time>2026-04-21T15:55:38.955Z</time></trkpt><trkpt lat="43.8669481" lon="11.2051598"><ele>196.0</ele><time>2026-04-21T15:55:39.954Z</time></trkpt><trkpt lat="43.8669008" lon="11.2050571"><ele>195.99999999999997</ele><time>2026-04-21T15:55:41.008Z</time></trkpt><trkpt lat="43.8668531" lon="11.2049517"><ele>196.0</ele><time>2026-04-21T15:55:42.013Z</time></trkpt><trkpt lat="43.8668098" lon="11.20486"><ele>194.0</ele><time>2026-04-21T15:55:42.957Z</time></trkpt><trkpt lat="43.8667757" lon="11.204779"><ele>192.0</ele><time>2026-04-21T15:55:43.961Z</time></trkpt><trkpt lat="43.8667319" lon="11.2046875"><ele>190.0</ele><time>2026-04-21T15:55:46.955Z</time></trkpt><trkpt lat="43.8666856" lon="11.2045966"><ele>188.0</ele><time>2026-04-21T15:55:50.954Z</time></trkpt><trkpt lat="43.8666514" lon="11.2045212"><ele>186.0</ele><time>2026-04-21T15:55:52.961Z</time></trkpt><trkpt lat="43.86662" lon="11.204429"><ele>184.0</ele><time>2026-04-21T15:55:55.969Z</time></trkpt><trkpt lat="43.8665804" lon="11.2043535"><ele>182.0</ele><time>2026-04-21T15:55:57.954Z</time></trkpt><trkpt lat="43.8665415" lon="11.2042796"><ele>182.0</ele><time>2026-04-21T15:55:59.947Z</time></trkpt><trkpt lat="43.8665032" lon="11.2042102"><ele>182.0</ele><time>2026-04-21T15:56:01.98Z</time></trkpt><trkpt lat="43.8664542" lon="11.2041315"><ele>182.0</ele><time>2026-04-21T15:56:04.027Z</time></trkpt><trkpt lat="43.8663913" lon="11.2040315"><ele>182.0</ele><time>2026-04-21T15:56:05.956Z</time></trkpt><trkpt lat="43.8663195" lon="11.2039544"><ele>182.0</ele><time>2026-04-21T15:56:07.955Z</time></trkpt><trkpt lat="43.8662464" lon="11.2038964"><ele>182.0</ele><time>2026-04-21T15:56:09.949Z</time></trkpt><trkpt lat="43.8661632" lon="11.2038264"><ele>182.2</ele><time>2026-04-21T15:56:11.951Z</time></trkpt><trkpt lat="43.8660578" lon="11.2037407"><ele>182.39999999999998</ele><time>2026-04-21T15:56:13.958Z</time></trkpt><trkpt lat="43.865991" lon="11.2036881"><ele>182.60000000000002</ele><time>2026-04-21T15:56:15.072Z</time></trkpt><trkpt lat="43.865869" lon="11.2035843"><ele>182.8</ele><time>2026-04-21T15:56:16.954Z</time></trkpt><trkpt lat="43.8658151" lon="11.2035305"><ele>183.0</ele><time>2026-04-21T15:56:17.958Z</time></trkpt><trkpt lat="43.8657579" lon="11.2034887"><ele>183.5</ele><time>2026-04-21T15:56:18.95Z</time></trkpt><trkpt lat="43.865663" lon="11.2033846"><ele>184.0</ele><time>2026-04-21T15:56:20.959Z</time></trkpt><trkpt lat="43.8656145" lon="11.2033286"><ele>184.5</ele><time>2026-04-21T15:56:22.027Z</time></trkpt><trkpt lat="43.865562" lon="11.2032658"><ele>185.0</ele><time>2026-04-21T15:56:22.944Z</time></trkpt><trkpt lat="43.8655195" lon="11.2031977"><ele>185.5</ele><time>2026-04-21T15:56:23.96Z</time></trkpt><trkpt lat="43.8654779" lon="11.2031297"><ele>186.0</ele><time>2026-04-21T15:56:24.964Z</time></trkpt><trkpt lat="43.8654117" lon="11.2030015"><ele>184.71428571428572</ele><time>2026-04-21T15:56:26.958Z</time></trkpt><trkpt lat="43.865379" lon="11.2029196"><ele>183.42857142857144</ele><time>2026-04-21T15:56:41.04Z</time></trkpt><trkpt lat="43.8654064" lon="11.202999"><ele>182.14285714285717</ele><time>2026-04-21T15:56:57.954Z</time></trkpt><trkpt lat="43.8654765" lon="11.2030405"><ele>180.85714285714286</ele><time>2026-04-21T15:57:01.956Z</time></trkpt><trkpt lat="43.8655454" lon="11.2031041"><ele>179.57142857142856</ele><time>2026-04-21T15:57:05.959Z</time></trkpt><trkpt lat="43.8656135" lon="11.2031079"><ele>178.2857142857143</ele><time>2026-04-21T15:57:09.95Z</time></trkpt><trkpt lat="43.8656796" lon="11.203051"><ele>177.0</ele><time>2026-04-21T15:57:24.021Z</time></trkpt><trkpt lat="43.8657234" lon="11.202971"><ele>177.0</ele><time>2026-04-21T15:57:28.955Z</time></trkpt><trkpt lat="43.8657674" lon="11.2029047"><ele>177.0</ele><time>2026-04-21T15:57:32.96Z</time></trkpt><trkpt lat="43.8657828" lon="11.2028137"><ele>177.0</ele><time>2026-04-21T15:57:37.953Z</time></trkpt><trkpt lat="43.8657586" lon="11.2027203"><ele>177.0</ele><time>2026-04-21T15:57:40.955Z</time></trkpt><trkpt lat="43.865709" lon="11.2026498"><ele>177.0</ele><time>2026-04-21T15:57:42.963Z</time></trkpt><trkpt lat="43.8656668" lon="11.202564"><ele>177.0</ele><time>2026-04-21T15:57:45.955Z</time></trkpt><trkpt lat="43.8656578" lon="11.2024673"><ele>177.0</ele><time>2026-04-21T15:58:04.951Z</time></trkpt><trkpt lat="43.8656757" lon="11.2023763"><ele>177.0</ele><time>2026-04-21T15:58:09.952Z</time></trkpt><trkpt lat="43.8657484" lon="11.2023401"><ele>177.0</ele><time>2026-04-21T15:58:30.953Z</time></trkpt><trkpt lat="43.865813" lon="11.2023273"><ele>177.0</ele><time>2026-04-21T15:58:35.95Z</time></trkpt><trkpt lat="43.8658868" lon="11.2023283"><ele>177.0</ele><time>2026-04-21T15:58:39.947Z</time></trkpt><trkpt lat="43.8659593" lon="11.2023251"><ele>177.0</ele><time>2026-04-21T15:58:43.953Z</time></trkpt><trkpt lat="43.8660432" lon="11.202396"><ele>177.0</ele><time>2026-04-21T15:59:00.952Z</time></trkpt><trkpt lat="43.8660901" lon="11.2024691"><ele>177.5</ele><time>2026-04-21T15:59:03.954Z</time></trkpt><trkpt lat="43.8661196" lon="11.2025555"><ele>178.0</ele><time>2026-04-21T15:59:20.03Z</time></trkpt><trkpt lat="43.8661655" lon="11.2026871"><ele>178.5</ele><time>2026-04-21T15:59:38.957Z</time></trkpt><trkpt lat="43.866203" lon="11.2026121"><ele>179.0</ele><time>2026-04-21T16:00:09.961Z</time></trkpt><trkpt lat="43.8661552" lon="11.2025381"><ele>179.5</ele><time>2026-04-21T16:00:16.952Z</time></trkpt><trkpt lat="43.8660968" lon="11.2024884"><ele>180.0</ele><time>2026-04-21T16:00:20.956Z</time></trkpt><trkpt lat="43.8660325" lon="11.2024395"><ele>180.0</ele><time>2026-04-21T16:00:25.022Z</time></trkpt><trkpt lat="43.8659674" lon="11.2023947"><ele>180.0</ele><time>2026-04-21T16:00:33.95Z</time></trkpt><trkpt lat="43.8658881" lon="11.202362"><ele>180.0</ele><time>2026-04-21T16:00:37.945Z</time></trkpt><trkpt lat="43.8658132" lon="11.2023661"><ele>180.0</ele><time>2026-04-21T16:00:42.953Z</time></trkpt><trkpt lat="43.8658656" lon="11.2023113"><ele>180.0</ele><time>2026-04-21T16:04:17.967Z</time></trkpt><trkpt lat="43.8659339" lon="11.2023185"><ele>180.0</ele><time>2026-04-21T16:04:21.965Z</time></trkpt><trkpt lat="43.8659946" lon="11.2023616"><ele>180.0</ele><time>2026-04-21T16:04:25.042Z</time></trkpt><trkpt lat="43.8659202" lon="11.2023312"><ele>179.57142857142856</ele><time>2026-04-21T16:04:31.969Z</time></trkpt><trkpt lat="43.865834" lon="11.2023182"><ele>179.14285714285717</ele><time>2026-04-21T16:04:34.968Z</time></trkpt><trkpt lat="43.8657595" lon="11.2023091"><ele>178.71428571428572</ele><time>2026-04-21T16:04:37.971Z</time></trkpt><trkpt lat="43.8656927" lon="11.202285"><ele>178.28571428571428</ele><time>2026-04-21T16:04:41.027Z</time></trkpt><trkpt lat="43.8656726" lon="11.2023756"><ele>177.85714285714283</ele><time>2026-04-21T16:04:44.97Z</time></trkpt><trkpt lat="43.8657038" lon="11.2024661"><ele>177.42857142857144</ele><time>2026-04-21T16:04:49.964Z</time></trkpt><trkpt lat="43.865752" lon="11.2025283"><ele>177.0</ele><time>2026-04-21T16:04:53.965Z</time></trkpt><trkpt lat="43.8657815" lon="11.2026229"><ele>177.0</ele><time>2026-04-21T16:05:04.962Z</time></trkpt><trkpt lat="43.8657862" lon="11.2027228"><ele>177.0</ele><time>2026-04-21T16:05:08.97Z</time></trkpt><trkpt lat="43.865785" lon="11.2028394"><ele>177.0</ele><time>2026-04-21T16:05:13.968Z</time></trkpt><trkpt lat="43.8657485" lon="11.202923"><ele>177.0</ele><time>2026-04-21T16:05:17.03Z</time></trkpt><trkpt lat="43.8656796" lon="11.2029379"><ele>177.0</ele><time>2026-04-21T16:05:20.983Z</time></trkpt><trkpt lat="43.8655797" lon="11.2028974"><ele>177.0</ele><time>2026-04-21T16:05:23.964Z</time></trkpt><trkpt lat="43.8655128" lon="11.2028837"><ele>177.0</ele><time>2026-04-21T16:05:25.972Z</time></trkpt><trkpt lat="43.8654719" lon="11.2027805"><ele>177.0</ele><time>2026-04-21T16:05:28.964Z</time></trkpt><trkpt lat="43.8654654" lon="11.2026666"><ele>177.0</ele><time>2026-04-21T16:05:30.984Z</time></trkpt><trkpt lat="43.8654123" lon="11.2025159"><ele>177.0</ele><time>2026-04-21T16:05:32.973Z</time></trkpt><trkpt lat="43.8653885" lon="11.2024314"><ele>177.0</ele><time>2026-04-21T16:05:33.971Z</time></trkpt><trkpt lat="43.8653657" lon="11.2023443"><ele>177.0</ele><time>2026-04-21T16:05:34.964Z</time></trkpt><trkpt lat="43.8653443" lon="11.2022377"><ele>176.66666666666666</ele><time>2026-04-21T16:05:35.97Z</time></trkpt><trkpt lat="43.8653245" lon="11.2021444"><ele>176.33333333333334</ele><time>2026-04-21T16:05:36.966Z</time></trkpt><trkpt lat="43.8652842" lon="11.2020421"><ele>176.0</ele><time>2026-04-21T16:05:37.967Z</time></trkpt><trkpt lat="43.8652434" lon="11.2019722"><ele>175.66666666666669</ele><time>2026-04-21T16:05:38.958Z</time></trkpt><trkpt lat="43.8651697" lon="11.2018604"><ele>175.33333333333334</ele><time>2026-04-21T16:05:40.979Z</time></trkpt><trkpt lat="43.8650821" lon="11.2018625"><ele>175.0</ele><time>2026-04-21T16:05:42.957Z</time></trkpt><trkpt lat="43.8649873" lon="11.2019204"><ele>177.83333333333334</ele><time>2026-04-21T16:05:44.969Z</time></trkpt><trkpt lat="43.8649292" lon="11.2019543"><ele>180.66666666666669</ele><time>2026-04-21T16:05:45.967Z</time></trkpt><trkpt lat="43.8648573" lon="11.2019676"><ele>183.5</ele><time>2026-04-21T16:05:46.969Z</time></trkpt><trkpt lat="43.8647906" lon="11.2019958"><ele>186.33333333333334</ele><time>2026-04-21T16:05:47.964Z</time></trkpt><trkpt lat="43.8647146" lon="11.2020128"><ele>189.16666666666666</ele><time>2026-04-21T16:05:48.971Z</time></trkpt><trkpt lat="43.8646221" lon="11.2020016"><ele>192.0</ele><time>2026-04-21T16:05:49.968Z</time></trkpt><trkpt lat="43.8645335" lon="11.2019847"><ele>192.0</ele><time>2026-04-21T16:05:50.96Z</time></trkpt><trkpt lat="43.8644533" lon="11.2019326"><ele>192.0</ele><time>2026-04-21T16:05:51.971Z</time></trkpt><trkpt lat="43.8643934" lon="11.2018536"><ele>192.0</ele><time>2026-04-21T16:05:52.973Z</time></trkpt><trkpt lat="43.8643543" lon="11.2017659"><ele>192.0</ele><time>2026-04-21T16:05:53.967Z</time></trkpt><trkpt lat="43.8643184" lon="11.2016227"><ele>192.0</ele><time>2026-04-21T16:05:55.966Z</time></trkpt><trkpt lat="43.864303" lon="11.2015093"><ele>192.0</ele><time>2026-04-21T16:05:57.974Z</time></trkpt><trkpt lat="43.8643203" lon="11.2014237"><ele>191.2</ele><time>2026-04-21T16:05:59.977Z</time></trkpt><trkpt lat="43.8643395" lon="11.201312"><ele>190.39999999999998</ele><time>2026-04-21T16:06:01.959Z</time></trkpt><trkpt lat="43.8643581" lon="11.2011739"><ele>189.60000000000002</ele><time>2026-04-21T16:06:03.971Z</time></trkpt><trkpt lat="43.8643589" lon="11.2010862"><ele>188.8</ele><time>2026-04-21T16:06:04.972Z</time></trkpt><trkpt lat="43.8643695" lon="11.2009043"><ele>188.0</ele><time>2026-04-21T16:06:06.97Z</time></trkpt><trkpt lat="43.8643662" lon="11.2007947"><ele>188.5</ele><time>2026-04-21T16:06:07.97Z</time></trkpt><trkpt lat="43.8643584" lon="11.2006445"><ele>189.0</ele><time>2026-04-21T16:06:08.978Z</time></trkpt><trkpt lat="43.8643359" lon="11.2004882"><ele>189.5</ele><time>2026-04-21T16:06:09.986Z</time></trkpt><trkpt lat="43.8643129" lon="11.2003314"><ele>190.0</ele><time>2026-04-21T16:06:10.971Z</time></trkpt><trkpt lat="43.8642886" lon="11.2001816"><ele>189.8</ele><time>2026-04-21T16:06:11.97Z</time></trkpt><trkpt lat="43.8642687" lon="11.2000427"><ele>189.6</ele><time>2026-04-21T16:06:12.963Z</time></trkpt><trkpt lat="43.8642535" lon="11.1999061"><ele>189.39999999999998</ele><time>2026-04-21T16:06:13.97Z</time></trkpt><trkpt lat="43.8642512" lon="11.1997688"><ele>189.2</ele><time>2026-04-21T16:06:14.969Z</time></trkpt><trkpt lat="43.8642539" lon="11.1996407"><ele>189.0</ele><time>2026-04-21T16:06:15.967Z</time></trkpt><trkpt lat="43.8642564" lon="11.1995057"><ele>189.0</ele><time>2026-04-21T16:06:16.974Z</time></trkpt><trkpt lat="43.864259" lon="11.1993608"><ele>189.0</ele><time>2026-04-21T16:06:17.967Z</time></trkpt><trkpt lat="43.8642672" lon="11.1992148"><ele>189.0</ele><time>2026-04-21T16:06:18.974Z</time></trkpt><trkpt lat="43.8642771" lon="11.1990612"><ele>189.0</ele><time>2026-04-21T16:06:19.966Z</time></trkpt><trkpt lat="43.864284" lon="11.1989129"><ele>189.0</ele><time>2026-04-21T16:06:21.022Z</time></trkpt><trkpt lat="43.8642981" lon="11.1987591"><ele>187.0</ele><time>2026-04-21T16:06:21.966Z</time></trkpt><trkpt lat="43.8643011" lon="11.1986246"><ele>185.0</ele><time>2026-04-21T16:06:22.967Z</time></trkpt><trkpt lat="43.8642982" lon="11.1985008"><ele>183.0</ele><time>2026-04-21T16:06:23.966Z</time></trkpt><trkpt lat="43.8642816" lon="11.1983655"><ele>181.0</ele><time>2026-04-21T16:06:24.969Z</time></trkpt><trkpt lat="43.8642423" lon="11.1982252"><ele>179.0</ele><time>2026-04-21T16:06:25.973Z</time></trkpt><trkpt lat="43.8641926" lon="11.1980921"><ele>178.0</ele><time>2026-04-21T16:06:26.991Z</time></trkpt><trkpt lat="43.8641481" lon="11.197948"><ele>177.0</ele><time>2026-04-21T16:06:27.974Z</time></trkpt><trkpt lat="43.8641117" lon="11.1978123"><ele>176.0</ele><time>2026-04-21T16:06:28.972Z</time></trkpt><trkpt lat="43.8640817" lon="11.1976813"><ele>175.0</ele><time>2026-04-21T16:06:29.964Z</time></trkpt><trkpt lat="43.8640429" lon="11.1975498"><ele>174.0</ele><time>2026-04-21T16:06:31.027Z</time></trkpt><trkpt lat="43.8640016" lon="11.1974359"><ele>174.0</ele><time>2026-04-21T16:06:31.972Z</time></trkpt><trkpt lat="43.8639787" lon="11.1973102"><ele>174.0</ele><time>2026-04-21T16:06:33.957Z</time></trkpt><trkpt lat="43.8639386" lon="11.1972349"><ele>174.0</ele><time>2026-04-21T16:06:36.957Z</time></trkpt><trkpt lat="43.8639717" lon="11.1973761"><ele>174.0</ele><time>2026-04-21T16:06:41.956Z</time></trkpt><trkpt lat="43.8640474" lon="11.1975077"><ele>174.0</ele><time>2026-04-21T16:06:43.958Z</time></trkpt><trkpt lat="43.8640903" lon="11.1975734"><ele>174.0</ele><time>2026-04-21T16:06:44.954Z</time></trkpt><trkpt lat="43.8641769" lon="11.1976474"><ele>174.0</ele><time>2026-04-21T16:06:46.952Z</time></trkpt><trkpt lat="43.8642415" lon="11.1976796"><ele>174.0</ele><time>2026-04-21T16:06:48.956Z</time></trkpt><trkpt lat="43.8643006" lon="11.1977301"><ele>174.0</ele><time>2026-04-21T16:06:52.959Z</time></trkpt><trkpt lat="43.8643576" lon="11.1977813"><ele>174.0</ele><time>2026-04-21T16:06:56.943Z</time></trkpt><trkpt lat="43.8644064" lon="11.1978517"><ele>174.0</ele><time>2026-04-21T16:07:00.962Z</time></trkpt><trkpt lat="43.8644491" lon="11.1979283"><ele>174.0</ele><time>2026-04-21T16:07:04.951Z</time></trkpt><trkpt lat="43.864466" lon="11.1980246"><ele>174.14285714285714</ele><time>2026-04-21T16:07:07.956Z</time></trkpt><trkpt lat="43.8644851" lon="11.1981116"><ele>174.28571428571428</ele><time>2026-04-21T16:07:10.957Z</time></trkpt><trkpt lat="43.8645026" lon="11.1982208"><ele>174.42857142857144</ele><time>2026-04-21T16:07:13.955Z</time></trkpt><trkpt lat="43.8645012" lon="11.1983195"><ele>174.57142857142856</ele><time>2026-04-21T16:07:17.959Z</time></trkpt><trkpt lat="43.8645109" lon="11.1984101"><ele>174.71428571428572</ele><time>2026-04-21T16:07:20.954Z</time></trkpt><trkpt lat="43.8645204" lon="11.1985067"><ele>174.85714285714286</ele><time>2026-04-21T16:07:23.955Z</time></trkpt><trkpt lat="43.8645449" lon="11.1986297"><ele>175.0</ele><time>2026-04-21T16:07:38.032Z</time></trkpt><trkpt lat="43.8645237" lon="11.1987219"><ele>175.0</ele><time>2026-04-21T16:07:43.951Z</time></trkpt><trkpt lat="43.8645037" lon="11.1986281"><ele>175.0</ele><time>2026-04-21T16:08:01.954Z</time></trkpt><trkpt lat="43.8644667" lon="11.1985152"><ele>175.0</ele><time>2026-04-21T16:08:04.958Z</time></trkpt><trkpt lat="43.8644491" lon="11.1984312"><ele>175.0</ele><time>2026-04-21T16:08:06.947Z</time></trkpt><trkpt lat="43.8644338" lon="11.1983448"><ele>175.0</ele><time>2026-04-21T16:08:08.958Z</time></trkpt><trkpt lat="43.8644181" lon="11.1982284"><ele>175.0</ele><time>2026-04-21T16:08:12.048Z</time></trkpt><trkpt lat="43.8644094" lon="11.1981226"><ele>175.0</ele><time>2026-04-21T16:08:14.963Z</time></trkpt><trkpt lat="43.86439" lon="11.1980391"><ele>174.83333333333334</ele><time>2026-04-21T16:08:17.953Z</time></trkpt><trkpt lat="43.8643682" lon="11.1979459"><ele>174.66666666666669</ele><time>2026-04-21T16:08:21.957Z</time></trkpt><trkpt lat="43.8643223" lon="11.1978713"><ele>174.5</ele><time>2026-04-21T16:08:24.957Z</time></trkpt><trkpt lat="43.8642499" lon="11.1977823"><ele>174.33333333333334</ele><time>2026-04-21T16:08:27.949Z</time></trkpt><trkpt lat="43.8641897" lon="11.1976683"><ele>174.16666666666666</ele><time>2026-04-21T16:08:29.95Z</time></trkpt><trkpt lat="43.8641309" lon="11.1975653"><ele>174.0</ele><time>2026-04-21T16:08:30.952Z</time></trkpt><trkpt lat="43.8640719" lon="11.1974498"><ele>172.6</ele><time>2026-04-21T16:08:32.033Z</time></trkpt><trkpt lat="43.8640227" lon="11.1973255"><ele>171.2</ele><time>2026-04-21T16:08:33.021Z</time></trkpt><trkpt lat="43.8639876" lon="11.1971844"><ele>169.79999999999998</ele><time>2026-04-21T16:08:34.04Z</time></trkpt><trkpt lat="43.8639668" lon="11.1970484"><ele>168.39999999999998</ele><time>2026-04-21T16:08:34.961Z</time></trkpt><trkpt lat="43.8639544" lon="11.1968964"><ele>167.0</ele><time>2026-04-21T16:08:35.956Z</time></trkpt><trkpt lat="43.8639422" lon="11.1967436"><ele>167.0</ele><time>2026-04-21T16:08:36.958Z</time></trkpt><trkpt lat="43.863921" lon="11.1965924"><ele>167.0</ele><time>2026-04-21T16:08:37.963Z</time></trkpt><trkpt lat="43.8638958" lon="11.1964453"><ele>167.0</ele><time>2026-04-21T16:08:38.968Z</time></trkpt><trkpt lat="43.8638623" lon="11.1963104"><ele>167.0</ele><time>2026-04-21T16:08:39.96Z</time></trkpt><trkpt lat="43.8638067" lon="11.1961909"><ele>167.0</ele><time>2026-04-21T16:08:40.971Z</time></trkpt><trkpt lat="43.8637359" lon="11.1960928"><ele>167.39999999999998</ele><time>2026-04-21T16:08:42.059Z</time></trkpt><trkpt lat="43.8636579" lon="11.1960032"><ele>167.79999999999998</ele><time>2026-04-21T16:08:42.963Z</time></trkpt><trkpt lat="43.8635862" lon="11.1959114"><ele>168.2</ele><time>2026-04-21T16:08:43.959Z</time></trkpt><trkpt lat="43.8635167" lon="11.1958273"><ele>168.6</ele><time>2026-04-21T16:08:44.962Z</time></trkpt><trkpt lat="43.8634426" lon="11.1957457"><ele>169.0</ele><time>2026-04-21T16:08:46.041Z</time></trkpt><trkpt lat="43.8633703" lon="11.1956664"><ele>166.75</ele><time>2026-04-21T16:08:47.023Z</time></trkpt><trkpt lat="43.8632905" lon="11.1955748"><ele>164.5</ele><time>2026-04-21T16:08:48.047Z</time></trkpt><trkpt lat="43.8632032" lon="11.1954761"><ele>162.25</ele><time>2026-04-21T16:08:49.036Z</time></trkpt><trkpt lat="43.8631066" lon="11.1953804"><ele>160.0</ele><time>2026-04-21T16:08:49.95Z</time></trkpt><trkpt lat="43.8630094" lon="11.1952826"><ele>160.0</ele><time>2026-04-21T16:08:50.955Z</time></trkpt><trkpt lat="43.8629316" lon="11.1952133"><ele>160.0</ele><time>2026-04-21T16:08:52.012Z</time></trkpt><trkpt lat="43.8628377" lon="11.1951251"><ele>160.0</ele><time>2026-04-21T16:08:53.945Z</time></trkpt><trkpt lat="43.8627881" lon="11.1950185"><ele>160.0</ele><time>2026-04-21T16:08:55.954Z</time></trkpt><trkpt lat="43.8627514" lon="11.1949187"><ele>160.0</ele><time>2026-04-21T16:08:57.963Z</time></trkpt><trkpt lat="43.8627127" lon="11.1947721"><ele>160.16666666666669</ele><time>2026-04-21T16:08:59.948Z</time></trkpt><trkpt lat="43.8626868" lon="11.1946777"><ele>160.33333333333334</ele><time>2026-04-21T16:09:00.955Z</time></trkpt><trkpt lat="43.8626572" lon="11.1945739"><ele>160.5</ele><time>2026-04-21T16:09:01.966Z</time></trkpt><trkpt lat="43.8626257" lon="11.1944532"><ele>160.66666666666666</ele><time>2026-04-21T16:09:03.028Z</time></trkpt><trkpt lat="43.8625944" lon="11.1943383"><ele>160.83333333333331</ele><time>2026-04-21T16:09:04.046Z</time></trkpt><trkpt lat="43.8625564" lon="11.1942148"><ele>161.0</ele><time>2026-04-21T16:09:04.963Z</time></trkpt><trkpt lat="43.8625145" lon="11.1940804"><ele>158.0</ele><time>2026-04-21T16:09:05.963Z</time></trkpt><trkpt lat="43.8624835" lon="11.1939485"><ele>155.0</ele><time>2026-04-21T16:09:06.965Z</time></trkpt><trkpt lat="43.8624433" lon="11.1938092"><ele>152.0</ele><time>2026-04-21T16:09:07.967Z</time></trkpt><trkpt lat="43.8624144" lon="11.1936742"><ele>149.0</ele><time>2026-04-21T16:09:08.963Z</time></trkpt><trkpt lat="43.8623956" lon="11.1935447"><ele>146.0</ele><time>2026-04-21T16:09:09.965Z</time></trkpt><trkpt lat="43.8623866" lon="11.1934217"><ele>146.0</ele><time>2026-04-21T16:09:10.964Z</time></trkpt><trkpt lat="43.8623705" lon="11.193291"><ele>146.0</ele><time>2026-04-21T16:09:11.989Z</time></trkpt><trkpt lat="43.8623664" lon="11.1931668"><ele>146.0</ele><time>2026-04-21T16:09:12.966Z</time></trkpt><trkpt lat="43.862374" lon="11.1930569"><ele>146.0</ele><time>2026-04-21T16:09:14.032Z</time></trkpt><trkpt lat="43.8623891" lon="11.1929342"><ele>146.0</ele><time>2026-04-21T16:09:14.965Z</time></trkpt><trkpt lat="43.8624126" lon="11.1928076"><ele>146.0</ele><time>2026-04-21T16:09:15.966Z</time></trkpt><trkpt lat="43.8624413" lon="11.1926668"><ele>144.25</ele><time>2026-04-21T16:09:16.966Z</time></trkpt><trkpt lat="43.8624812" lon="11.1925169"><ele>142.5</ele><time>2026-04-21T16:09:17.962Z</time></trkpt><trkpt lat="43.8625292" lon="11.1923538"><ele>140.75</ele><time>2026-04-21T16:09:18.961Z</time></trkpt><trkpt lat="43.8625806" lon="11.192203"><ele>139.0</ele><time>2026-04-21T16:09:19.963Z</time></trkpt><trkpt lat="43.8626213" lon="11.1920559"><ele>136.16666666666669</ele><time>2026-04-21T16:09:21.022Z</time></trkpt><trkpt lat="43.8626547" lon="11.1919279"><ele>133.33333333333334</ele><time>2026-04-21T16:09:21.967Z</time></trkpt><trkpt lat="43.8626749" lon="11.1918193"><ele>130.5</ele><time>2026-04-21T16:09:23.029Z</time></trkpt><trkpt lat="43.8626907" lon="11.1917259"><ele>127.66666666666666</ele><time>2026-04-21T16:09:24.026Z</time></trkpt><trkpt lat="43.8627468" lon="11.1916111"><ele>124.83333333333333</ele><time>2026-04-21T16:09:25.969Z</time></trkpt><trkpt lat="43.8628233" lon="11.1915527"><ele>122.0</ele><time>2026-04-21T16:09:27.983Z</time></trkpt><trkpt lat="43.8629013" lon="11.1914697"><ele>121.0</ele><time>2026-04-21T16:09:29.961Z</time></trkpt><trkpt lat="43.862973" lon="11.1913417"><ele>119.99999999999999</ele><time>2026-04-21T16:09:31.97Z</time></trkpt><trkpt lat="43.8630079" lon="11.1912675"><ele>118.99999999999999</ele><time>2026-04-21T16:09:33.027Z</time></trkpt><trkpt lat="43.8630763" lon="11.1911551"><ele>118.0</ele><time>2026-04-21T16:09:34.966Z</time></trkpt><trkpt lat="43.8631586" lon="11.1911538"><ele>117.0</ele><time>2026-04-21T16:09:38.041Z</time></trkpt><trkpt lat="43.8632435" lon="11.1913057"><ele>117.0</ele><time>2026-04-21T16:09:39.955Z</time></trkpt><trkpt lat="43.8632951" lon="11.1913945"><ele>117.0</ele><time>2026-04-21T16:09:40.963Z</time></trkpt><trkpt lat="43.8633542" lon="11.1914636"><ele>117.0</ele><time>2026-04-21T16:09:41.973Z</time></trkpt><trkpt lat="43.8634098" lon="11.1915092"><ele>117.0</ele><time>2026-04-21T16:09:43.045Z</time></trkpt><trkpt lat="43.8635219" lon="11.1915674"><ele>117.0</ele><time>2026-04-21T16:09:44.956Z</time></trkpt><trkpt lat="43.8636082" lon="11.1915544"><ele>117.0</ele><time>2026-04-21T16:09:46.97Z</time></trkpt><trkpt lat="43.8636846" lon="11.1915658"><ele>116.83333333333333</ele><time>2026-04-21T16:09:48.959Z</time></trkpt><trkpt lat="43.8637506" lon="11.1916046"><ele>116.66666666666666</ele><time>2026-04-21T16:09:50.957Z</time></trkpt><trkpt lat="43.8638367" lon="11.1916522"><ele>116.5</ele><time>2026-04-21T16:09:53.946Z</time></trkpt><trkpt lat="43.8639186" lon="11.1916962"><ele>116.33333333333333</ele><time>2026-04-21T16:09:55.954Z</time></trkpt><trkpt lat="43.8639941" lon="11.1917412"><ele>116.16666666666666</ele><time>2026-04-21T16:09:57.956Z</time></trkpt><trkpt lat="43.8640513" lon="11.1917861"><ele>116.0</ele><time>2026-04-21T16:09:59.954Z</time></trkpt><trkpt lat="43.8641026" lon="11.1918459"><ele>115.99999999999999</ele><time>2026-04-21T16:10:02.956Z</time></trkpt><trkpt lat="43.8641629" lon="11.1919191"><ele>116.0</ele><time>2026-04-21T16:10:12.947Z</time></trkpt><trkpt lat="43.8640898" lon="11.191859"><ele>116.0</ele><time>2026-04-21T16:10:19.956Z</time></trkpt><trkpt lat="43.8639969" lon="11.1918417"><ele>116.0</ele><time>2026-04-21T16:10:22.958Z</time></trkpt><trkpt lat="43.8639323" lon="11.1918068"><ele>115.99999999999999</ele><time>2026-04-21T16:10:24.95Z</time></trkpt><trkpt lat="43.8639713" lon="11.1919148"><ele>116.0</ele><time>2026-04-21T16:10:33.957Z</time></trkpt><trkpt lat="43.8640305" lon="11.1919942"><ele>115.99999999999999</ele><time>2026-04-21T16:10:35.952Z</time></trkpt><trkpt lat="43.8640682" lon="11.1921024"><ele>116.0</ele><time>2026-04-21T16:10:37.957Z</time></trkpt><trkpt lat="43.8640901" lon="11.192264"><ele>116.0</ele><time>2026-04-21T16:10:39.953Z</time></trkpt><trkpt lat="43.8641098" lon="11.1923626"><ele>116.0</ele><time>2026-04-21T16:10:40.958Z</time></trkpt><trkpt lat="43.8641362" lon="11.1924678"><ele>115.99999999999999</ele><time>2026-04-21T16:10:41.952Z</time></trkpt><trkpt lat="43.8641635" lon="11.1925673"><ele>116.0</ele><time>2026-04-21T16:10:42.957Z</time></trkpt><trkpt lat="43.864194" lon="11.1926825"><ele>117.6</ele><time>2026-04-21T16:10:43.955Z</time></trkpt><trkpt lat="43.8642178" lon="11.1927952"><ele>119.19999999999999</ele><time>2026-04-21T16:10:44.945Z</time></trkpt><trkpt lat="43.8642389" lon="11.1928998"><ele>120.80000000000001</ele><time>2026-04-21T16:10:45.955Z</time></trkpt><trkpt lat="43.8642625" lon="11.1930519"><ele>122.4</ele><time>2026-04-21T16:10:47.952Z</time></trkpt><trkpt lat="43.8642888" lon="11.1931724"><ele>124.0</ele><time>2026-04-21T16:10:49.945Z</time></trkpt><trkpt lat="43.8642956" lon="11.1933039"><ele>124.00000000000001</ele><time>2026-04-21T16:10:51.954Z</time></trkpt><trkpt lat="43.8643162" lon="11.1934118"><ele>124.0</ele><time>2026-04-21T16:10:53.952Z</time></trkpt><trkpt lat="43.8643573" lon="11.193502"><ele>124.0</ele><time>2026-04-21T16:10:55.953Z</time></trkpt><trkpt lat="43.8644125" lon="11.1935707"><ele>124.0</ele><time>2026-04-21T16:10:57.959Z</time></trkpt><trkpt lat="43.86446" lon="11.1936456"><ele>124.00000000000001</ele><time>2026-04-21T16:10:59.953Z</time></trkpt><trkpt lat="43.8645036" lon="11.1937798"><ele>124.0</ele><time>2026-04-21T16:11:01.952Z</time></trkpt><trkpt lat="43.8645345" lon="11.1939359"><ele>124.6</ele><time>2026-04-21T16:11:03.947Z</time></trkpt><trkpt lat="43.8645561" lon="11.1940945"><ele>125.2</ele><time>2026-04-21T16:11:05.96Z</time></trkpt><trkpt lat="43.8645567" lon="11.1942468"><ele>125.79999999999998</ele><time>2026-04-21T16:11:07.956Z</time></trkpt><trkpt lat="43.8645514" lon="11.1943989"><ele>126.39999999999999</ele><time>2026-04-21T16:11:09.952Z</time></trkpt><trkpt lat="43.8645244" lon="11.1945301"><ele>127.0</ele><time>2026-04-21T16:11:11.952Z</time></trkpt><trkpt lat="43.8645192" lon="11.1946662"><ele>127.0</ele><time>2026-04-21T16:11:13.956Z</time></trkpt><trkpt lat="43.8645221" lon="11.1947846"><ele>126.99999999999999</ele><time>2026-04-21T16:11:15.947Z</time></trkpt><trkpt lat="43.8645377" lon="11.1949078"><ele>126.99999999999999</ele><time>2026-04-21T16:11:17.96Z</time></trkpt><trkpt lat="43.8645535" lon="11.1950425"><ele>127.0</ele><time>2026-04-21T16:11:19.954Z</time></trkpt><trkpt lat="43.8645481" lon="11.1951703"><ele>127.0</ele><time>2026-04-21T16:11:21.955Z</time></trkpt><trkpt lat="43.8645713" lon="11.1952964"><ele>127.19999999999999</ele><time>2026-04-21T16:11:23.949Z</time></trkpt><trkpt lat="43.8646131" lon="11.1954153"><ele>127.39999999999999</ele><time>2026-04-21T16:11:25.956Z</time></trkpt><trkpt lat="43.86465" lon="11.195559"><ele>127.60000000000001</ele><time>2026-04-21T16:11:27.954Z</time></trkpt><trkpt lat="43.864699" lon="11.1957005"><ele>127.80000000000001</ele><time>2026-04-21T16:11:29.949Z</time></trkpt><trkpt lat="43.8647619" lon="11.195845"><ele>128.0</ele><time>2026-04-21T16:11:31.947Z</time></trkpt><trkpt lat="43.864851" lon="11.1959526"><ele>128.16666666666666</ele><time>2026-04-21T16:11:33.951Z</time></trkpt><trkpt lat="43.8649093" lon="11.1959891"><ele>128.33333333333331</ele><time>2026-04-21T16:11:34.953Z</time></trkpt><trkpt lat="43.8649894" lon="11.1960199"><ele>128.5</ele><time>2026-04-21T16:11:36.949Z</time></trkpt><trkpt lat="43.8650492" lon="11.1960651"><ele>128.66666666666666</ele><time>2026-04-21T16:11:38.954Z</time></trkpt><trkpt lat="43.86497" lon="11.1960418"><ele>128.83333333333334</ele><time>2026-04-21T16:11:47.955Z</time></trkpt><trkpt lat="43.8649083" lon="11.1960079"><ele>129.0</ele><time>2026-04-21T16:11:49.958Z</time></trkpt><trkpt lat="43.8648236" lon="11.1959666"><ele>129.0</ele><time>2026-04-21T16:11:51.956Z</time></trkpt><trkpt lat="43.8647442" lon="11.1958775"><ele>129.0</ele><time>2026-04-21T16:11:53.955Z</time></trkpt><trkpt lat="43.8646994" lon="11.195809"><ele>129.0</ele><time>2026-04-21T16:11:54.954Z</time></trkpt><trkpt lat="43.8646473" lon="11.1956643"><ele>129.0</ele><time>2026-04-21T16:11:56.954Z</time></trkpt><trkpt lat="43.8646114" lon="11.1955232"><ele>129.0</ele><time>2026-04-21T16:11:58.948Z</time></trkpt><trkpt lat="43.8645931" lon="11.1953898"><ele>128.83333333333334</ele><time>2026-04-21T16:12:00.949Z</time></trkpt><trkpt lat="43.8645951" lon="11.1952705"><ele>128.66666666666666</ele><time>2026-04-21T16:12:02.95Z</time></trkpt><trkpt lat="43.8645871" lon="11.1951409"><ele>128.5</ele><time>2026-04-21T16:12:04.953Z</time></trkpt><trkpt lat="43.8645678" lon="11.194989"><ele>128.33333333333331</ele><time>2026-04-21T16:12:06.95Z</time></trkpt><trkpt lat="43.8645539" lon="11.1948969"><ele>128.16666666666666</ele><time>2026-04-21T16:12:07.95Z</time></trkpt><trkpt lat="43.8645232" lon="11.1947889"><ele>128.0</ele><time>2026-04-21T16:12:09.951Z</time></trkpt><trkpt lat="43.8644587" lon="11.1947265"><ele>127.83333333333333</ele><time>2026-04-21T16:12:14.95Z</time></trkpt><trkpt lat="43.8643973" lon="11.1946666"><ele>127.66666666666666</ele><time>2026-04-21T16:12:17.952Z</time></trkpt><trkpt lat="43.8643402" lon="11.1946084"><ele>127.5</ele><time>2026-04-21T16:12:19.948Z</time></trkpt><trkpt lat="43.8642701" lon="11.1945431"><ele>127.33333333333334</ele><time>2026-04-21T16:12:21.956Z</time></trkpt><trkpt lat="43.8642401" lon="11.1944639"><ele>127.16666666666667</ele><time>2026-04-21T16:12:23.955Z</time></trkpt><trkpt lat="43.8642286" lon="11.1943399"><ele>127.0</ele><time>2026-04-21T16:12:26.957Z</time></trkpt><trkpt lat="43.8641839" lon="11.1942433"><ele>127.00000000000001</ele><time>2026-04-21T16:12:29.951Z</time></trkpt><trkpt lat="43.8642345" lon="11.1943348"><ele>127.0</ele><time>2026-04-21T16:12:38.956Z</time></trkpt><trkpt lat="43.8642721" lon="11.1944428"><ele>127.0</ele><time>2026-04-21T16:12:41.957Z</time></trkpt><trkpt lat="43.8643131" lon="11.1945113"><ele>127.0</ele><time>2026-04-21T16:12:43.948Z</time></trkpt><trkpt lat="43.8643701" lon="11.1945773"><ele>127.00000000000001</ele><time>2026-04-21T16:12:45.957Z</time></trkpt><trkpt lat="43.86444" lon="11.1946251"><ele>127.0</ele><time>2026-04-21T16:12:47.951Z</time></trkpt><trkpt lat="43.8645189" lon="11.1946236"><ele>127.0</ele><time>2026-04-21T16:12:50.957Z</time></trkpt><trkpt lat="43.8645572" lon="11.1945254"><ele>126.99999999999999</ele><time>2026-04-21T16:12:52.96Z</time></trkpt><trkpt lat="43.8645747" lon="11.1943886"><ele>126.99999999999999</ele><time>2026-04-21T16:12:54.952Z</time></trkpt><trkpt lat="43.864586" lon="11.1942215"><ele>127.0</ele><time>2026-04-21T16:12:56.957Z</time></trkpt><trkpt lat="43.8645831" lon="11.1940623"><ele>127.0</ele><time>2026-04-21T16:12:58.958Z</time></trkpt><trkpt lat="43.8645493" lon="11.1939081"><ele>126.50000000000001</ele><time>2026-04-21T16:13:00.96Z</time></trkpt><trkpt lat="43.8645034" lon="11.193778"><ele>126.0</ele><time>2026-04-21T16:13:02.957Z</time></trkpt><trkpt lat="43.8644366" lon="11.1936944"><ele>125.5</ele><time>2026-04-21T16:13:04.951Z</time></trkpt><trkpt lat="43.8643589" lon="11.1936263"><ele>125.0</ele><time>2026-04-21T16:13:06.95Z</time></trkpt><trkpt lat="43.8642912" lon="11.1935599"><ele>124.50000000000001</ele><time>2026-04-21T16:13:08.954Z</time></trkpt><trkpt lat="43.8642681" lon="11.1934716"><ele>124.0</ele><time>2026-04-21T16:13:10.956Z</time></trkpt><trkpt lat="43.8642568" lon="11.1933533"><ele>124.2</ele><time>2026-04-21T16:13:12.955Z</time></trkpt><trkpt lat="43.8642381" lon="11.1932204"><ele>124.4</ele><time>2026-04-21T16:13:14.955Z</time></trkpt><trkpt lat="43.8642154" lon="11.1930818"><ele>124.6</ele><time>2026-04-21T16:13:16.956Z</time></trkpt><trkpt lat="43.8642035" lon="11.1929369"><ele>124.8</ele><time>2026-04-21T16:13:18.954Z</time></trkpt><trkpt lat="43.8641651" lon="11.1927635"><ele>125.0</ele><time>2026-04-21T16:13:20.959Z</time></trkpt><trkpt lat="43.8641402" lon="11.1926617"><ele>124.99999999999999</ele><time>2026-04-21T16:13:21.961Z</time></trkpt><trkpt lat="43.8641241" lon="11.1925612"><ele>125.0</ele><time>2026-04-21T16:13:22.96Z</time></trkpt><trkpt lat="43.8641032" lon="11.1924623"><ele>125.0</ele><time>2026-04-21T16:13:23.957Z</time></trkpt><trkpt lat="43.8640813" lon="11.1923577"><ele>125.0</ele><time>2026-04-21T16:13:24.953Z</time></trkpt><trkpt lat="43.8640584" lon="11.1922707"><ele>124.99999999999999</ele><time>2026-04-21T16:13:25.955Z</time></trkpt><trkpt lat="43.8640005" lon="11.1921307"><ele>125.0</ele><time>2026-04-21T16:13:27.955Z</time></trkpt><trkpt lat="43.863915" lon="11.1920154"><ele>123.49999999999999</ele><time>2026-04-21T16:13:29.952Z</time></trkpt><trkpt lat="43.8638658" lon="11.1919479"><ele>122.0</ele><time>2026-04-21T16:13:30.956Z</time></trkpt><trkpt lat="43.863809" lon="11.191877"><ele>120.5</ele><time>2026-04-21T16:13:31.956Z</time></trkpt><trkpt lat="43.8637549" lon="11.1918135"><ele>119.0</ele><time>2026-04-21T16:13:32.959Z</time></trkpt><trkpt lat="43.8636956" lon="11.1917737"><ele>117.49999999999999</ele><time>2026-04-21T16:13:33.957Z</time></trkpt><trkpt lat="43.8635884" lon="11.1917184"><ele>116.0</ele><time>2026-04-21T16:13:35.952Z</time></trkpt><trkpt lat="43.863501" lon="11.1916363"><ele>116.14285714285717</ele><time>2026-04-21T16:13:37.953Z</time></trkpt><trkpt lat="43.863423" lon="11.1915206"><ele>116.28571428571429</ele><time>2026-04-21T16:13:39.954Z</time></trkpt><trkpt lat="43.8633872" lon="11.1914482"><ele>116.42857142857144</ele><time>2026-04-21T16:13:40.953Z</time></trkpt><trkpt lat="43.8633633" lon="11.1913674"><ele>116.57142857142858</ele><time>2026-04-21T16:13:41.955Z</time></trkpt><trkpt lat="43.8633292" lon="11.1912787"><ele>116.71428571428572</ele><time>2026-04-21T16:13:42.955Z</time></trkpt><trkpt lat="43.8632918" lon="11.1912001"><ele>116.85714285714286</ele><time>2026-04-21T16:13:43.95Z</time></trkpt><trkpt lat="43.8632376" lon="11.1911553"><ele>117.0</ele><time>2026-04-21T16:13:44.96Z</time></trkpt><trkpt lat="43.8631511" lon="11.1911317"><ele>117.0</ele><time>2026-04-21T16:13:46.953Z</time></trkpt><trkpt lat="43.8630988" lon="11.1912008"><ele>116.99999999999999</ele><time>2026-04-21T16:13:48.955Z</time></trkpt><trkpt lat="43.8630286" lon="11.1913388"><ele>116.99999999999999</ele><time>2026-04-21T16:13:50.953Z</time></trkpt><trkpt lat="43.8630009" lon="11.1914185"><ele>117.0</ele><time>2026-04-21T16:13:51.96Z</time></trkpt><trkpt lat="43.8629195" lon="11.1915238"><ele>117.0</ele><time>2026-04-21T16:13:53.952Z</time></trkpt><trkpt lat="43.8628453" lon="11.1915772"><ele>117.0</ele><time>2026-04-21T16:13:55.956Z</time></trkpt><trkpt lat="43.8627846" lon="11.1915336"><ele>117.0</ele><time>2026-04-21T16:13:57.958Z</time></trkpt><trkpt lat="43.8627173" lon="11.1914403"><ele>117.0</ele><time>2026-04-21T16:13:59.952Z</time></trkpt><trkpt lat="43.8626685" lon="11.1913671"><ele>117.0</ele><time>2026-04-21T16:14:00.956Z</time></trkpt><trkpt lat="43.862613" lon="11.1912784"><ele>117.0</ele><time>2026-04-21T16:14:01.957Z</time></trkpt><trkpt lat="43.8625485" lon="11.1911745"><ele>117.0</ele><time>2026-04-21T16:14:02.942Z</time></trkpt><trkpt lat="43.8624784" lon="11.19107"><ele>116.39999999999999</ele><time>2026-04-21T16:14:03.956Z</time></trkpt><trkpt lat="43.8624066" lon="11.1909571"><ele>115.79999999999998</ele><time>2026-04-21T16:14:04.952Z</time></trkpt><trkpt lat="43.8623377" lon="11.1908444"><ele>115.2</ele><time>2026-04-21T16:14:05.951Z</time></trkpt><trkpt lat="43.8622738" lon="11.1907434"><ele>114.6</ele><time>2026-04-21T16:14:06.953Z</time></trkpt><trkpt lat="43.8622094" lon="11.1906341"><ele>114.0</ele><time>2026-04-21T16:14:07.952Z</time></trkpt><trkpt lat="43.8621584" lon="11.1905229"><ele>114.0</ele><time>2026-04-21T16:14:08.955Z</time></trkpt><trkpt lat="43.8621341" lon="11.1904105"><ele>114.0</ele><time>2026-04-21T16:14:09.95Z</time></trkpt><trkpt lat="43.8621125" lon="11.1902951"><ele>114.0</ele><time>2026-04-21T16:14:10.946Z</time></trkpt><trkpt lat="43.8621107" lon="11.1901712"><ele>114.0</ele><time>2026-04-21T16:14:11.955Z</time></trkpt><trkpt lat="43.8621234" lon="11.1900443"><ele>114.0</ele><time>2026-04-21T16:14:12.949Z</time></trkpt><trkpt lat="43.8621366" lon="11.1899258"><ele>114.0</ele><time>2026-04-21T16:14:13.953Z</time></trkpt><trkpt lat="43.8621486" lon="11.1898044"><ele>113.66666666666667</ele><time>2026-04-21T16:14:14.948Z</time></trkpt><trkpt lat="43.8621652" lon="11.1896839"><ele>113.33333333333334</ele><time>2026-04-21T16:14:15.958Z</time></trkpt><trkpt lat="43.8621809" lon="11.1895594"><ele>113.0</ele><time>2026-04-21T16:14:16.952Z</time></trkpt><trkpt lat="43.8621908" lon="11.1894348"><ele>112.66666666666667</ele><time>2026-04-21T16:14:17.958Z</time></trkpt><trkpt lat="43.8622063" lon="11.1893159"><ele>112.33333333333334</ele><time>2026-04-21T16:14:18.951Z</time></trkpt><trkpt lat="43.8622147" lon="11.1892055"><ele>112.0</ele><time>2026-04-21T16:14:19.951Z</time></trkpt><trkpt lat="43.8622247" lon="11.1891035"><ele>112.00000000000001</ele><time>2026-04-21T16:14:20.952Z</time></trkpt><trkpt lat="43.8622365" lon="11.1890141"><ele>112.0</ele><time>2026-04-21T16:14:21.95Z</time></trkpt><trkpt lat="43.8622797" lon="11.1889005"><ele>112.0</ele><time>2026-04-21T16:14:23.954Z</time></trkpt><trkpt lat="43.8623707" lon="11.1889113"><ele>112.0</ele><time>2026-04-21T16:14:25.937Z</time></trkpt><trkpt lat="43.8624441" lon="11.1889661"><ele>112.00000000000001</ele><time>2026-04-21T16:14:26.937Z</time></trkpt><trkpt lat="43.8625147" lon="11.1890296"><ele>112.0</ele><time>2026-04-21T16:14:27.953Z</time></trkpt><trkpt lat="43.8625916" lon="11.1890758"><ele>110.8</ele><time>2026-04-21T16:14:28.957Z</time></trkpt><trkpt lat="43.8626787" lon="11.1891071"><ele>109.6</ele><time>2026-04-21T16:14:29.955Z</time></trkpt><trkpt lat="43.8627857" lon="11.1891275"><ele>108.39999999999999</ele><time>2026-04-21T16:14:30.945Z</time></trkpt><trkpt lat="43.8628862" lon="11.1891426"><ele>107.19999999999999</ele><time>2026-04-21T16:14:31.953Z</time></trkpt><trkpt lat="43.8629735" lon="11.1891667"><ele>106.0</ele><time>2026-04-21T16:14:32.941Z</time></trkpt><trkpt lat="43.8630551" lon="11.1891819"><ele>106.00000000000001</ele><time>2026-04-21T16:14:33.939Z</time></trkpt><trkpt lat="43.8631391" lon="11.1891848"><ele>106.0</ele><time>2026-04-21T16:14:34.94Z</time></trkpt><trkpt lat="43.8632193" lon="11.1891669"><ele>106.0</ele><time>2026-04-21T16:14:35.944Z</time></trkpt><trkpt lat="43.863297" lon="11.1891363"><ele>106.0</ele><time>2026-04-21T16:14:36.943Z</time></trkpt><trkpt lat="43.8633555" lon="11.1890799"><ele>106.00000000000001</ele><time>2026-04-21T16:14:37.957Z</time></trkpt><trkpt lat="43.8633934" lon="11.188987"><ele>106.0</ele><time>2026-04-21T16:14:38.954Z</time></trkpt><trkpt lat="43.8634059" lon="11.1888867"><ele>106.19999999999999</ele><time>2026-04-21T16:14:39.954Z</time></trkpt><trkpt lat="43.8634521" lon="11.1887661"><ele>106.39999999999999</ele><time>2026-04-21T16:14:41.958Z</time></trkpt><trkpt lat="43.8635576" lon="11.1887274"><ele>106.6</ele><time>2026-04-21T16:14:43.958Z</time></trkpt><trkpt lat="43.8636794" lon="11.1887109"><ele>106.8</ele><time>2026-04-21T16:14:45.959Z</time></trkpt><trkpt lat="43.863743" lon="11.1887005"><ele>107.0</ele><time>2026-04-21T16:14:46.959Z</time></trkpt><trkpt lat="43.8638115" lon="11.1886918"><ele>106.99999999999999</ele><time>2026-04-21T16:14:47.957Z</time></trkpt><trkpt lat="43.8638837" lon="11.1886835"><ele>107.0</ele><time>2026-04-21T16:14:48.953Z</time></trkpt><trkpt lat="43.8639562" lon="11.1886719"><ele>107.0</ele><time>2026-04-21T16:14:49.955Z</time></trkpt><trkpt lat="43.8640297" lon="11.1886556"><ele>107.0</ele><time>2026-04-21T16:14:50.954Z</time></trkpt><trkpt lat="43.8641134" lon="11.188638"><ele>106.99999999999999</ele><time>2026-04-21T16:14:51.959Z</time></trkpt><trkpt lat="43.8642004" lon="11.1886216"><ele>107.0</ele><time>2026-04-21T16:14:52.963Z</time></trkpt><trkpt lat="43.864286" lon="11.1885969"><ele>108.39999999999999</ele><time>2026-04-21T16:14:53.958Z</time></trkpt><trkpt lat="43.8643771" lon="11.1885757"><ele>109.79999999999998</ele><time>2026-04-21T16:14:54.959Z</time></trkpt><trkpt lat="43.8644796" lon="11.1885407"><ele>111.2</ele><time>2026-04-21T16:14:55.95Z</time></trkpt><trkpt lat="43.8645805" lon="11.1885024"><ele>112.6</ele><time>2026-04-21T16:14:56.963Z</time></trkpt><trkpt lat="43.8646801" lon="11.1884649"><ele>114.0</ele><time>2026-04-21T16:14:57.954Z</time></trkpt><trkpt lat="43.8647705" lon="11.1884187"><ele>114.0</ele><time>2026-04-21T16:14:58.958Z</time></trkpt><trkpt lat="43.8648361" lon="11.1883751"><ele>114.0</ele><time>2026-04-21T16:14:59.953Z</time></trkpt><trkpt lat="43.8649155" lon="11.1883421"><ele>114.0</ele><time>2026-04-21T16:15:01.949Z</time></trkpt><trkpt lat="43.8649172" lon="11.1882456"><ele>114.0</ele><time>2026-04-21T16:15:46.949Z</time></trkpt><trkpt lat="43.8648944" lon="11.1880591"><ele>114.0</ele><time>2026-04-21T16:15:48.945Z</time></trkpt><trkpt lat="43.8648869" lon="11.1879342"><ele>113.4</ele><time>2026-04-21T16:15:49.952Z</time></trkpt><trkpt lat="43.8648817" lon="11.1878012"><ele>112.80000000000001</ele><time>2026-04-21T16:15:50.95Z</time></trkpt><trkpt lat="43.8648836" lon="11.1876517"><ele>112.19999999999999</ele><time>2026-04-21T16:15:51.947Z</time></trkpt><trkpt lat="43.8648797" lon="11.1874901"><ele>111.6</ele><time>2026-04-21T16:15:52.948Z</time></trkpt><trkpt lat="43.864873" lon="11.1873154"><ele>111.0</ele><time>2026-04-21T16:15:53.954Z</time></trkpt><trkpt lat="43.8648698" lon="11.1871368"><ele>110.5</ele><time>2026-04-21T16:15:54.947Z</time></trkpt><trkpt lat="43.8648643" lon="11.1869549"><ele>110.0</ele><time>2026-04-21T16:15:55.955Z</time></trkpt><trkpt lat="43.8648559" lon="11.1867685"><ele>109.5</ele><time>2026-04-21T16:15:56.946Z</time></trkpt><trkpt lat="43.8648465" lon="11.1865798"><ele>109.0</ele><time>2026-04-21T16:15:57.947Z</time></trkpt><trkpt lat="43.8648406" lon="11.1863896"><ele>109.0</ele><time>2026-04-21T16:15:58.949Z</time></trkpt><trkpt lat="43.8648436" lon="11.1862082"><ele>109.0</ele><time>2026-04-21T16:15:59.949Z</time></trkpt><trkpt lat="43.864848" lon="11.1860241"><ele>109.0</ele><time>2026-04-21T16:16:00.951Z</time></trkpt><trkpt lat="43.8648516" lon="11.1858515"><ele>109.0</ele><time>2026-04-21T16:16:01.95Z</time></trkpt><trkpt lat="43.8648546" lon="11.1856757"><ele>109.0</ele><time>2026-04-21T16:16:02.949Z</time></trkpt><trkpt lat="43.8648573" lon="11.1854981"><ele>109.0</ele><time>2026-04-21T16:16:03.946Z</time></trkpt><trkpt lat="43.8648587" lon="11.1853275"><ele>109.0</ele><time>2026-04-21T16:16:04.949Z</time></trkpt><trkpt lat="43.8648553" lon="11.1851563"><ele>109.0</ele><time>2026-04-21T16:16:05.951Z</time></trkpt><trkpt lat="43.864849" lon="11.1849926"><ele>108.6</ele><time>2026-04-21T16:16:06.947Z</time></trkpt><trkpt lat="43.8648471" lon="11.1848404"><ele>108.2</ele><time>2026-04-21T16:16:07.953Z</time></trkpt><trkpt lat="43.8648499" lon="11.1846895"><ele>107.79999999999998</ele><time>2026-04-21T16:16:08.952Z</time></trkpt><trkpt lat="43.8648662" lon="11.1845394"><ele>107.39999999999999</ele><time>2026-04-21T16:16:09.948Z</time></trkpt><trkpt lat="43.8648967" lon="11.1843772"><ele>107.0</ele><time>2026-04-21T16:16:10.949Z</time></trkpt><trkpt lat="43.8649303" lon="11.1841985"><ele>106.25</ele><time>2026-04-21T16:16:11.946Z</time></trkpt><trkpt lat="43.8649655" lon="11.184006"><ele>105.5</ele><time>2026-04-21T16:16:12.946Z</time></trkpt><trkpt lat="43.8649985" lon="11.1838192"><ele>104.75</ele><time>2026-04-21T16:16:13.95Z</time></trkpt><trkpt lat="43.8650225" lon="11.1836358"><ele>104.0</ele><time>2026-04-21T16:16:14.947Z</time></trkpt><trkpt lat="43.8650549" lon="11.183457"><ele>104.0</ele><time>2026-04-21T16:16:15.946Z</time></trkpt><trkpt lat="43.8650849" lon="11.183284"><ele>104.0</ele><time>2026-04-21T16:16:16.951Z</time></trkpt><trkpt lat="43.8651257" lon="11.1831178"><ele>104.0</ele><time>2026-04-21T16:16:17.947Z</time></trkpt><trkpt lat="43.865162" lon="11.182963"><ele>104.0</ele><time>2026-04-21T16:16:18.95Z</time></trkpt><trkpt lat="43.8651945" lon="11.1828251"><ele>104.25</ele><time>2026-04-21T16:16:19.949Z</time></trkpt><trkpt lat="43.8652392" lon="11.182693"><ele>104.5</ele><time>2026-04-21T16:16:20.951Z</time></trkpt><trkpt lat="43.8653043" lon="11.1825636"><ele>104.75</ele><time>2026-04-21T16:16:21.952Z</time></trkpt><trkpt lat="43.8653737" lon="11.1824331"><ele>105.0</ele><time>2026-04-21T16:16:22.95Z</time></trkpt><trkpt lat="43.865447" lon="11.1822894"><ele>105.0</ele><time>2026-04-21T16:16:23.948Z</time></trkpt><trkpt lat="43.8655267" lon="11.1821352"><ele>105.0</ele><time>2026-04-21T16:16:24.949Z</time></trkpt><trkpt lat="43.865604" lon="11.1819686"><ele>105.0</ele><time>2026-04-21T16:16:25.947Z</time></trkpt><trkpt lat="43.8656775" lon="11.1818084"><ele>105.0</ele><time>2026-04-21T16:16:26.947Z</time></trkpt><trkpt lat="43.8657407" lon="11.181657"><ele>105.0</ele><time>2026-04-21T16:16:27.947Z</time></trkpt><trkpt lat="43.8658009" lon="11.1815019"><ele>105.0</ele><time>2026-04-21T16:16:28.947Z</time></trkpt><trkpt lat="43.865856" lon="11.1813473"><ele>105.0</ele><time>2026-04-21T16:16:29.947Z</time></trkpt><trkpt lat="43.8659135" lon="11.1811925"><ele>105.0</ele><time>2026-04-21T16:16:30.952Z</time></trkpt><trkpt lat="43.8659588" lon="11.1810164"><ele>105.0</ele><time>2026-04-21T16:16:31.946Z</time></trkpt><trkpt lat="43.8660034" lon="11.1808327"><ele>105.0</ele><time>2026-04-21T16:16:32.955Z</time></trkpt><trkpt lat="43.866037" lon="11.1806503"><ele>105.0</ele><time>2026-04-21T16:16:33.95Z</time></trkpt><trkpt lat="43.8660689" lon="11.1804818"><ele>105.0</ele><time>2026-04-21T16:16:34.947Z</time></trkpt><trkpt lat="43.8660999" lon="11.1803171"><ele>105.0</ele><time>2026-04-21T16:16:35.944Z</time></trkpt><trkpt lat="43.8661324" lon="11.1801632"><ele>105.0</ele><time>2026-04-21T16:16:36.95Z</time></trkpt><trkpt lat="43.8661642" lon="11.1800223"><ele>105.0</ele><time>2026-04-21T16:16:37.962Z</time></trkpt><trkpt lat="43.8661919" lon="11.1798752"><ele>105.0</ele><time>2026-04-21T16:16:38.947Z</time></trkpt><trkpt lat="43.8662183" lon="11.1797362"><ele>105.0</ele><time>2026-04-21T16:16:39.945Z</time></trkpt><trkpt lat="43.8662409" lon="11.1796052"><ele>104.33333333333333</ele><time>2026-04-21T16:16:40.95Z</time></trkpt><trkpt lat="43.866264" lon="11.1794767"><ele>103.66666666666666</ele><time>2026-04-21T16:16:41.949Z</time></trkpt><trkpt lat="43.8662915" lon="11.1793553"><ele>103.0</ele><time>2026-04-21T16:16:42.962Z</time></trkpt><trkpt lat="43.8663188" lon="11.1792341"><ele>102.33333333333333</ele><time>2026-04-21T16:16:43.951Z</time></trkpt><trkpt lat="43.8663445" lon="11.17913"><ele>101.66666666666666</ele><time>2026-04-21T16:16:44.948Z</time></trkpt><trkpt lat="43.8663691" lon="11.179018"><ele>101.0</ele><time>2026-04-21T16:16:45.944Z</time></trkpt><trkpt lat="43.8663885" lon="11.178926"><ele>100.0</ele><time>2026-04-21T16:16:46.946Z</time></trkpt><trkpt lat="43.8664095" lon="11.178836"><ele>99.0</ele><time>2026-04-21T16:16:47.953Z</time></trkpt><trkpt lat="43.8664404" lon="11.1786804"><ele>98.0</ele><time>2026-04-21T16:16:49.949Z</time></trkpt><trkpt lat="43.8664553" lon="11.1785337"><ele>97.0</ele><time>2026-04-21T16:16:51.951Z</time></trkpt><trkpt lat="43.8664597" lon="11.1783713"><ele>96.0</ele><time>2026-04-21T16:16:53.946Z</time></trkpt><trkpt lat="43.8664621" lon="11.1782647"><ele>95.8</ele><time>2026-04-21T16:16:54.947Z</time></trkpt><trkpt lat="43.8664475" lon="11.1781404"><ele>95.6</ele><time>2026-04-21T16:16:55.941Z</time></trkpt><trkpt lat="43.8664288" lon="11.1780051"><ele>95.4</ele><time>2026-04-21T16:16:56.944Z</time></trkpt><trkpt lat="43.8664134" lon="11.1778575"><ele>95.2</ele><time>2026-04-21T16:16:57.948Z</time></trkpt><trkpt lat="43.866386" lon="11.1777058"><ele>95.0</ele><time>2026-04-21T16:16:58.946Z</time></trkpt><trkpt lat="43.8663533" lon="11.1775503"><ele>95.0</ele><time>2026-04-21T16:16:59.943Z</time></trkpt><trkpt lat="43.8663107" lon="11.1773922"><ele>95.0</ele><time>2026-04-21T16:17:00.947Z</time></trkpt><trkpt lat="43.8662714" lon="11.1772418"><ele>95.0</ele><time>2026-04-21T16:17:01.95Z</time></trkpt><trkpt lat="43.8662446" lon="11.1770966"><ele>95.0</ele><time>2026-04-21T16:17:02.949Z</time></trkpt><trkpt lat="43.8662181" lon="11.1769663"><ele>95.0</ele><time>2026-04-21T16:17:03.951Z</time></trkpt><trkpt lat="43.8661922" lon="11.1768499"><ele>95.16666666666667</ele><time>2026-04-21T16:17:04.95Z</time></trkpt><trkpt lat="43.8661643" lon="11.176738"><ele>95.33333333333334</ele><time>2026-04-21T16:17:05.946Z</time></trkpt><trkpt lat="43.8661488" lon="11.1766278"><ele>95.5</ele><time>2026-04-21T16:17:06.954Z</time></trkpt><trkpt lat="43.8661378" lon="11.1765337"><ele>95.66666666666667</ele><time>2026-04-21T16:17:07.95Z</time></trkpt><trkpt lat="43.8661306" lon="11.1764461"><ele>95.83333333333333</ele><time>2026-04-21T16:17:08.948Z</time></trkpt><trkpt lat="43.8661371" lon="11.1763391"><ele>96.0</ele><time>2026-04-21T16:17:10.949Z</time></trkpt><trkpt lat="43.8662061" lon="11.1762959"><ele>95.4</ele><time>2026-04-21T16:17:13.948Z</time></trkpt><trkpt lat="43.8663299" lon="11.1762592"><ele>94.8</ele><time>2026-04-21T16:17:15.947Z</time></trkpt><trkpt lat="43.8664092" lon="11.1762349"><ele>94.2</ele><time>2026-04-21T16:17:16.945Z</time></trkpt><trkpt lat="43.8664901" lon="11.1762076"><ele>93.60000000000001</ele><time>2026-04-21T16:17:17.956Z</time></trkpt><trkpt lat="43.8665792" lon="11.1761803"><ele>93.0</ele><time>2026-04-21T16:17:18.944Z</time></trkpt><trkpt lat="43.8666758" lon="11.1761497"><ele>93.0</ele><time>2026-04-21T16:17:19.946Z</time></trkpt><trkpt lat="43.8667672" lon="11.1761305"><ele>93.0</ele><time>2026-04-21T16:17:20.95Z</time></trkpt><trkpt lat="43.866864" lon="11.1761239"><ele>93.0</ele><time>2026-04-21T16:17:21.948Z</time></trkpt><trkpt lat="43.8669653" lon="11.1761143"><ele>93.0</ele><time>2026-04-21T16:17:22.938Z</time></trkpt><trkpt lat="43.8670733" lon="11.1760991"><ele>93.0</ele><time>2026-04-21T16:17:23.952Z</time></trkpt><trkpt lat="43.8671754" lon="11.176071"><ele>93.80000000000001</ele><time>2026-04-21T16:17:24.949Z</time></trkpt><trkpt lat="43.867286" lon="11.1760312"><ele>94.6</ele><time>2026-04-21T16:17:25.956Z</time></trkpt><trkpt lat="43.8673874" lon="11.1759948"><ele>95.4</ele><time>2026-04-21T16:17:26.958Z</time></trkpt><trkpt lat="43.8674976" lon="11.1759482"><ele>96.19999999999999</ele><time>2026-04-21T16:17:27.948Z</time></trkpt><trkpt lat="43.8676009" lon="11.1758831"><ele>97.0</ele><time>2026-04-21T16:17:28.953Z</time></trkpt><trkpt lat="43.8676928" lon="11.1758269"><ele>97.8</ele><time>2026-04-21T16:17:29.953Z</time></trkpt><trkpt lat="43.8677877" lon="11.1757617"><ele>98.6</ele><time>2026-04-21T16:17:30.958Z</time></trkpt><trkpt lat="43.8678873" lon="11.1756969"><ele>99.39999999999999</ele><time>2026-04-21T16:17:31.953Z</time></trkpt><trkpt lat="43.8679816" lon="11.1756181"><ele>100.19999999999999</ele><time>2026-04-21T16:17:32.949Z</time></trkpt><trkpt lat="43.8680837" lon="11.1755396"><ele>101.0</ele><time>2026-04-21T16:17:33.95Z</time></trkpt><trkpt lat="43.8681899" lon="11.1754656"><ele>103.0</ele><time>2026-04-21T16:17:34.954Z</time></trkpt><trkpt lat="43.8682966" lon="11.1753935"><ele>105.0</ele><time>2026-04-21T16:17:35.954Z</time></trkpt><trkpt lat="43.868397" lon="11.1753172"><ele>107.0</ele><time>2026-04-21T16:17:36.957Z</time></trkpt><trkpt lat="43.8685002" lon="11.1752426"><ele>109.0</ele><time>2026-04-21T16:17:37.985Z</time></trkpt><trkpt lat="43.8686073" lon="11.1751781"><ele>111.0</ele><time>2026-04-21T16:17:38.956Z</time></trkpt><trkpt lat="43.8687166" lon="11.1751197"><ele>113.0</ele><time>2026-04-21T16:17:39.953Z</time></trkpt><trkpt lat="43.8688206" lon="11.1750648"><ele>115.0</ele><time>2026-04-21T16:17:40.957Z</time></trkpt><trkpt lat="43.8689237" lon="11.175009"><ele>117.0</ele><time>2026-04-21T16:17:41.956Z</time></trkpt><trkpt lat="43.8690341" lon="11.1749562"><ele>117.0</ele><time>2026-04-21T16:17:42.946Z</time></trkpt><trkpt lat="43.8691408" lon="11.174912"><ele>117.0</ele><time>2026-04-21T16:17:43.951Z</time></trkpt><trkpt lat="43.869232" lon="11.1748663"><ele>117.0</ele><time>2026-04-21T16:17:44.953Z</time></trkpt><trkpt lat="43.8693146" lon="11.1748251"><ele>117.0</ele><time>2026-04-21T16:17:45.955Z</time></trkpt><trkpt lat="43.8693887" lon="11.1747966"><ele>117.0</ele><time>2026-04-21T16:17:46.956Z</time></trkpt><trkpt lat="43.8694513" lon="11.1747793"><ele>117.0</ele><time>2026-04-21T16:17:47.953Z</time></trkpt><trkpt lat="43.8695626" lon="11.1747989"><ele>118.33333333333333</ele><time>2026-04-21T16:17:49.96Z</time></trkpt><trkpt lat="43.8696571" lon="11.1748808"><ele>119.66666666666666</ele><time>2026-04-21T16:17:51.952Z</time></trkpt><trkpt lat="43.8697122" lon="11.1749314"><ele>121.0</ele><time>2026-04-21T16:17:52.947Z</time></trkpt><trkpt lat="43.8697667" lon="11.1749879"><ele>122.33333333333333</ele><time>2026-04-21T16:17:53.96Z</time></trkpt><trkpt lat="43.8698126" lon="11.1750553"><ele>123.66666666666666</ele><time>2026-04-21T16:17:54.953Z</time></trkpt><trkpt lat="43.8698918" lon="11.1751207"><ele>125.0</ele><time>2026-04-21T16:17:56.954Z</time></trkpt><trkpt lat="43.8699772" lon="11.1751662"><ele>125.0</ele><time>2026-04-21T16:17:58.958Z</time></trkpt><trkpt lat="43.8700679" lon="11.1751635"><ele>125.0</ele><time>2026-04-21T16:18:00.955Z</time></trkpt><trkpt lat="43.870171" lon="11.1751955"><ele>125.0</ele><time>2026-04-21T16:18:02.963Z</time></trkpt><trkpt lat="43.8702562" lon="11.1752431"><ele>125.0</ele><time>2026-04-21T16:18:04.951Z</time></trkpt><trkpt lat="43.8703533" lon="11.1752962"><ele>125.0</ele><time>2026-04-21T16:18:06.958Z</time></trkpt><trkpt lat="43.8704747" lon="11.1753229"><ele>125.8</ele><time>2026-04-21T16:18:08.95Z</time></trkpt><trkpt lat="43.8705603" lon="11.1753389"><ele>126.6</ele><time>2026-04-21T16:18:10.955Z</time></trkpt><trkpt lat="43.8706424" lon="11.175375"><ele>127.4</ele><time>2026-04-21T16:18:12.955Z</time></trkpt><trkpt lat="43.8707458" lon="11.1754326"><ele>128.2</ele><time>2026-04-21T16:18:14.953Z</time></trkpt><trkpt lat="43.870831" lon="11.1754866"><ele>129.0</ele><time>2026-04-21T16:18:16.952Z</time></trkpt><trkpt lat="43.8709216" lon="11.1755184"><ele>130.2</ele><time>2026-04-21T16:18:18.952Z</time></trkpt><trkpt lat="43.8710116" lon="11.1755397"><ele>131.4</ele><time>2026-04-21T16:18:20.957Z</time></trkpt><trkpt lat="43.8711332" lon="11.1755661"><ele>132.6</ele><time>2026-04-21T16:18:22.956Z</time></trkpt><trkpt lat="43.871241" lon="11.1755499"><ele>133.8</ele><time>2026-04-21T16:18:24.958Z</time></trkpt><trkpt lat="43.871343" lon="11.1754884"><ele>135.0</ele><time>2026-04-21T16:18:26.951Z</time></trkpt><trkpt lat="43.8714443" lon="11.1754099"><ele>135.0</ele><time>2026-04-21T16:18:28.95Z</time></trkpt><trkpt lat="43.8715476" lon="11.1753433"><ele>135.0</ele><time>2026-04-21T16:18:30.959Z</time></trkpt><trkpt lat="43.8716515" lon="11.1753023"><ele>135.0</ele><time>2026-04-21T16:18:32.956Z</time></trkpt><trkpt lat="43.8717605" lon="11.1752635"><ele>135.0</ele><time>2026-04-21T16:18:34.954Z</time></trkpt><trkpt lat="43.8718605" lon="11.1752141"><ele>135.0</ele><time>2026-04-21T16:18:36.949Z</time></trkpt><trkpt lat="43.8719637" lon="11.1751434"><ele>137.16666666666666</ele><time>2026-04-21T16:18:38.959Z</time></trkpt><trkpt lat="43.8720557" lon="11.1751224"><ele>139.33333333333334</ele><time>2026-04-21T16:18:40.957Z</time></trkpt><trkpt lat="43.8721185" lon="11.1751308"><ele>141.5</ele><time>2026-04-21T16:18:42.965Z</time></trkpt><trkpt lat="43.8721817" lon="11.1751473"><ele>143.66666666666669</ele><time>2026-04-21T16:18:45.959Z</time></trkpt><trkpt lat="43.87227" lon="11.1751494"><ele>145.83333333333334</ele><time>2026-04-21T16:18:53.956Z</time></trkpt><trkpt lat="43.8723386" lon="11.1751747"><ele>148.0</ele><time>2026-04-21T16:18:55.96Z</time></trkpt><trkpt lat="43.8724109" lon="11.1752167"><ele>148.0</ele><time>2026-04-21T16:18:57.964Z</time></trkpt><trkpt lat="43.8724884" lon="11.1752666"><ele>148.0</ele><time>2026-04-21T16:18:59.961Z</time></trkpt><trkpt lat="43.8725533" lon="11.1753324"><ele>148.0</ele><time>2026-04-21T16:19:01.955Z</time></trkpt><trkpt lat="43.8726243" lon="11.1753749"><ele>148.0</ele><time>2026-04-21T16:19:03.956Z</time></trkpt><trkpt lat="43.872705" lon="11.1754402"><ele>148.0</ele><time>2026-04-21T16:19:05.957Z</time></trkpt><trkpt lat="43.8727811" lon="11.1755198"><ele>148.0</ele><time>2026-04-21T16:19:07.952Z</time></trkpt><trkpt lat="43.8728617" lon="11.1755978"><ele>152.2</ele><time>2026-04-21T16:19:09.961Z</time></trkpt><trkpt lat="43.8729628" lon="11.1756983"><ele>156.4</ele><time>2026-04-21T16:19:11.954Z</time></trkpt><trkpt lat="43.8730496" lon="11.1757876"><ele>160.6</ele><time>2026-04-21T16:19:13.96Z</time></trkpt><trkpt lat="43.8731346" lon="11.175862"><ele>164.79999999999998</ele><time>2026-04-21T16:19:15.955Z</time></trkpt><trkpt lat="43.8732119" lon="11.1759199"><ele>169.0</ele><time>2026-04-21T16:19:17.957Z</time></trkpt><trkpt lat="43.873274" lon="11.1759694"><ele>169.0</ele><time>2026-04-21T16:19:19.951Z</time></trkpt><trkpt lat="43.8732101" lon="11.1759133"><ele>169.0</ele><time>2026-04-21T16:19:29.959Z</time></trkpt><trkpt lat="43.8731461" lon="11.1758735"><ele>169.0</ele><time>2026-04-21T16:19:31.958Z</time></trkpt><trkpt lat="43.873077" lon="11.1758904"><ele>169.0</ele><time>2026-04-21T16:19:33.957Z</time></trkpt><trkpt lat="43.8730062" lon="11.1758855"><ele>169.0</ele><time>2026-04-21T16:19:37.956Z</time></trkpt><trkpt lat="43.8729475" lon="11.1758022"><ele>169.0</ele><time>2026-04-21T16:19:57.956Z</time></trkpt><trkpt lat="43.8730149" lon="11.1758169"><ele>169.0</ele><time>2026-04-21T16:20:26.967Z</time></trkpt><trkpt lat="43.8730719" lon="11.1757781"><ele>169.0</ele><time>2026-04-21T16:20:31.97Z</time></trkpt><trkpt lat="43.873148" lon="11.1757674"><ele>169.0</ele><time>2026-04-21T16:20:34.952Z</time></trkpt><trkpt lat="43.8732144" lon="11.1757901"><ele>169.0</ele><time>2026-04-21T16:20:36.951Z</time></trkpt><trkpt lat="43.8732842" lon="11.1758255"><ele>169.0</ele><time>2026-04-21T16:20:38.954Z</time></trkpt><trkpt lat="43.873359" lon="11.1759008"><ele>169.0</ele><time>2026-04-21T16:20:40.956Z</time></trkpt><trkpt lat="43.8734073" lon="11.1760232"><ele>169.0</ele><time>2026-04-21T16:20:42.953Z</time></trkpt><trkpt lat="43.8734442" lon="11.1761758"><ele>169.0</ele><time>2026-04-21T16:20:45.03Z</time></trkpt><trkpt lat="43.8734335" lon="11.1762955"><ele>169.0</ele><time>2026-04-21T16:20:46.956Z</time></trkpt><trkpt lat="43.8733992" lon="11.1764042"><ele>169.0</ele><time>2026-04-21T16:20:48.958Z</time></trkpt><trkpt lat="43.8733654" lon="11.1764858"><ele>169.0</ele><time>2026-04-21T16:20:50.958Z</time></trkpt><trkpt lat="43.8733348" lon="11.1765672"><ele>169.0</ele><time>2026-04-21T16:20:53.031Z</time></trkpt><trkpt lat="43.8732788" lon="11.1766353"><ele>169.0</ele><time>2026-04-21T16:20:54.956Z</time></trkpt><trkpt lat="43.8732512" lon="11.1767254"><ele>169.85714285714286</ele><time>2026-04-21T16:20:57.964Z</time></trkpt><trkpt lat="43.873296" lon="11.1767993"><ele>170.71428571428572</ele><time>2026-04-21T16:21:00.956Z</time></trkpt><trkpt lat="43.8733495" lon="11.1768712"><ele>171.57142857142856</ele><time>2026-04-21T16:21:04.033Z</time></trkpt><trkpt lat="43.8734197" lon="11.1769298"><ele>172.42857142857144</ele><time>2026-04-21T16:21:06.953Z</time></trkpt><trkpt lat="43.8734859" lon="11.1769566"><ele>173.28571428571428</ele><time>2026-04-21T16:21:09.956Z</time></trkpt><trkpt lat="43.8735461" lon="11.1770069"><ele>174.14285714285714</ele><time>2026-04-21T16:21:12.041Z</time></trkpt><trkpt lat="43.8735773" lon="11.177085"><ele>175.0</ele><time>2026-04-21T16:21:13.973Z</time></trkpt><trkpt lat="43.8735936" lon="11.1771851"><ele>175.0</ele><time>2026-04-21T16:21:15.946Z</time></trkpt><trkpt lat="43.8735974" lon="11.1772802"><ele>175.0</ele><time>2026-04-21T16:21:17.953Z</time></trkpt><trkpt lat="43.8735564" lon="11.1773539"><ele>175.0</ele><time>2026-04-21T16:21:19.954Z</time></trkpt><trkpt lat="43.8735041" lon="11.1774035"><ele>175.0</ele><time>2026-04-21T16:21:21.953Z</time></trkpt><trkpt lat="43.8734322" lon="11.1774095"><ele>175.0</ele><time>2026-04-21T16:21:24.033Z</time></trkpt><trkpt lat="43.8733694" lon="11.177419"><ele>175.0</ele><time>2026-04-21T16:21:25.953Z</time></trkpt><trkpt lat="43.8733091" lon="11.1774761"><ele>175.0</ele><time>2026-04-21T16:21:29.948Z</time></trkpt><trkpt lat="43.8733048" lon="11.1775908"><ele>178.0</ele><time>2026-04-21T16:21:34.031Z</time></trkpt><trkpt lat="43.8733188" lon="11.177686"><ele>181.0</ele><time>2026-04-21T16:21:37.963Z</time></trkpt><trkpt lat="43.8733705" lon="11.1777484"><ele>184.0</ele><time>2026-04-21T16:21:41.966Z</time></trkpt><trkpt lat="43.8734332" lon="11.1778111"><ele>187.0</ele><time>2026-04-21T16:21:44.961Z</time></trkpt><trkpt lat="43.8734979" lon="11.1778904"><ele>189.99999999999997</ele><time>2026-04-21T16:21:47.961Z</time></trkpt><trkpt lat="43.8735689" lon="11.1779606"><ele>193.0</ele><time>2026-04-21T16:21:50.963Z</time></trkpt><trkpt lat="43.8736287" lon="11.1780419"><ele>192.99999999999997</ele><time>2026-04-21T16:21:53.97Z</time></trkpt><trkpt lat="43.8736469" lon="11.1781446"><ele>193.0</ele><time>2026-04-21T16:21:56.963Z</time></trkpt><trkpt lat="43.8736651" lon="11.1782493"><ele>193.0</ele><time>2026-04-21T16:21:58.96Z</time></trkpt><trkpt lat="43.8736813" lon="11.1783472"><ele>193.0</ele><time>2026-04-21T16:22:00.963Z</time></trkpt><trkpt lat="43.8736769" lon="11.1784398"><ele>192.99999999999997</ele><time>2026-04-21T16:22:03.966Z</time></trkpt><trkpt lat="43.8736905" lon="11.1785356"><ele>193.0</ele><time>2026-04-21T16:22:19.946Z</time></trkpt><trkpt lat="43.8737678" lon="11.1786092"><ele>197.5</ele><time>2026-04-21T16:22:23.955Z</time></trkpt><trkpt lat="43.873844" lon="11.1787233"><ele>202.0</ele><time>2026-04-21T16:22:25.955Z</time></trkpt><trkpt lat="43.8739214" lon="11.1788388"><ele>206.5</ele><time>2026-04-21T16:22:27.962Z</time></trkpt><trkpt lat="43.8740087" lon="11.1789582"><ele>211.0</ele><time>2026-04-21T16:22:29.948Z</time></trkpt><trkpt lat="43.874091" lon="11.1790681"><ele>213.49999999999997</ele><time>2026-04-21T16:22:31.948Z</time></trkpt><trkpt lat="43.8741546" lon="11.1791588"><ele>216.0</ele><time>2026-04-21T16:22:33.952Z</time></trkpt><trkpt lat="43.8741934" lon="11.179238"><ele>218.5</ele><time>2026-04-21T16:22:35.953Z</time></trkpt><trkpt lat="43.8741656" lon="11.1793389"><ele>221.0</ele><time>2026-04-21T16:22:37.991Z</time></trkpt><trkpt lat="43.8741425" lon="11.1794638"><ele>223.49999999999997</ele><time>2026-04-21T16:22:39.949Z</time></trkpt><trkpt lat="43.8741289" lon="11.179564"><ele>226.0</ele><time>2026-04-21T16:22:41.949Z</time></trkpt><trkpt lat="43.8740894" lon="11.1796445"><ele>226.0</ele><time>2026-04-21T16:22:44.955Z</time></trkpt><trkpt lat="43.8740675" lon="11.1797302"><ele>226.00000000000003</ele><time>2026-04-21T16:22:48.056Z</time></trkpt><trkpt lat="43.8740395" lon="11.1798325"><ele>226.00000000000003</ele><time>2026-04-21T16:22:49.953Z</time></trkpt><trkpt lat="43.8740206" lon="11.179965"><ele>226.0</ele><time>2026-04-21T16:22:51.951Z</time></trkpt><trkpt lat="43.87402" lon="11.1801158"><ele>226.0</ele><time>2026-04-21T16:22:53.955Z</time></trkpt><trkpt lat="43.874005" lon="11.1802692"><ele>227.33333333333331</ele><time>2026-04-21T16:22:55.961Z</time></trkpt><trkpt lat="43.8739871" lon="11.1804479"><ele>228.66666666666666</ele><time>2026-04-21T16:22:58.047Z</time></trkpt><trkpt lat="43.8739675" lon="11.1805457"><ele>230.0</ele><time>2026-04-21T16:22:58.956Z</time></trkpt><trkpt lat="43.8739455" lon="11.1806378"><ele>231.33333333333331</ele><time>2026-04-21T16:23:00.028Z</time></trkpt><trkpt lat="43.8739061" lon="11.1807152"><ele>232.66666666666666</ele><time>2026-04-21T16:23:00.959Z</time></trkpt><trkpt lat="43.8738559" lon="11.1807932"><ele>234.0</ele><time>2026-04-21T16:23:01.95Z</time></trkpt><trkpt lat="43.8738027" lon="11.1808597"><ele>234.83333333333334</ele><time>2026-04-21T16:23:02.975Z</time></trkpt><trkpt lat="43.8737344" lon="11.1809304"><ele>235.66666666666669</ele><time>2026-04-21T16:23:03.957Z</time></trkpt><trkpt lat="43.8736534" lon="11.1809925"><ele>236.5</ele><time>2026-04-21T16:23:05.038Z</time></trkpt><trkpt lat="43.8735893" lon="11.1810376"><ele>237.33333333333334</ele><time>2026-04-21T16:23:05.955Z</time></trkpt><trkpt lat="43.8734818" lon="11.1811269"><ele>238.16666666666669</ele><time>2026-04-21T16:23:07.957Z</time></trkpt><trkpt lat="43.8734208" lon="11.1811734"><ele>239.0</ele><time>2026-04-21T16:23:08.948Z</time></trkpt><trkpt lat="43.8733244" lon="11.1812848"><ele>236.83333333333334</ele><time>2026-04-21T16:23:10.961Z</time></trkpt><trkpt lat="43.873263" lon="11.1813473"><ele>234.66666666666669</ele><time>2026-04-21T16:23:11.963Z</time></trkpt><trkpt lat="43.8731744" lon="11.181436"><ele>232.5</ele><time>2026-04-21T16:23:13.955Z</time></trkpt><trkpt lat="43.8731099" lon="11.1815573"><ele>230.33333333333331</ele><time>2026-04-21T16:23:15.956Z</time></trkpt><trkpt lat="43.8731072" lon="11.1816488"><ele>228.16666666666666</ele><time>2026-04-21T16:23:16.962Z</time></trkpt><trkpt lat="43.8731139" lon="11.1817442"><ele>226.0</ele><time>2026-04-21T16:23:17.973Z</time></trkpt><trkpt lat="43.873117" lon="11.1818992"><ele>226.0</ele><time>2026-04-21T16:23:19.968Z</time></trkpt><trkpt lat="43.8730943" lon="11.1820247"><ele>226.0</ele><time>2026-04-21T16:23:21.961Z</time></trkpt><trkpt lat="43.87303" lon="11.1820686"><ele>226.0</ele><time>2026-04-21T16:23:22.957Z</time></trkpt><trkpt lat="43.8729708" lon="11.1821176"><ele>226.0</ele><time>2026-04-21T16:23:23.964Z</time></trkpt><trkpt lat="43.8729157" lon="11.1821645"><ele>226.0</ele><time>2026-04-21T16:23:24.962Z</time></trkpt><trkpt lat="43.8728507" lon="11.1822101"><ele>226.0</ele><time>2026-04-21T16:23:25.963Z</time></trkpt><trkpt lat="43.8727867" lon="11.1822415"><ele>226.0</ele><time>2026-04-21T16:23:27.037Z</time></trkpt><trkpt lat="43.8727151" lon="11.1822814"><ele>225.99999999999997</ele><time>2026-04-21T16:23:27.958Z</time></trkpt><trkpt lat="43.8726481" lon="11.1823179"><ele>226.0</ele><time>2026-04-21T16:23:29.025Z</time></trkpt><trkpt lat="43.8725866" lon="11.1823621"><ele>226.0</ele><time>2026-04-21T16:23:29.958Z</time></trkpt><trkpt lat="43.872537" lon="11.1824178"><ele>226.0</ele><time>2026-04-21T16:23:30.966Z</time></trkpt><trkpt lat="43.8724381" lon="11.1825098"><ele>225.99999999999997</ele><time>2026-04-21T16:23:32.966Z</time></trkpt><trkpt lat="43.8723151" lon="11.1825257"><ele>226.0</ele><time>2026-04-21T16:23:35.021Z</time></trkpt><trkpt lat="43.8722524" lon="11.1825531"><ele>224.4</ele><time>2026-04-21T16:23:35.974Z</time></trkpt><trkpt lat="43.872191" lon="11.1825794"><ele>222.8</ele><time>2026-04-21T16:23:36.972Z</time></trkpt><trkpt lat="43.8720812" lon="11.1826015"><ele>221.20000000000002</ele><time>2026-04-21T16:23:38.969Z</time></trkpt><trkpt lat="43.8719681" lon="11.1826318"><ele>219.60000000000002</ele><time>2026-04-21T16:23:40.965Z</time></trkpt><trkpt lat="43.8718511" lon="11.182649"><ele>218.0</ele><time>2026-04-21T16:23:42.96Z</time></trkpt><trkpt lat="43.871735" lon="11.1826652"><ele>215.25</ele><time>2026-04-21T16:23:44.964Z</time></trkpt><trkpt lat="43.8716127" lon="11.1826916"><ele>212.5</ele><time>2026-04-21T16:23:46.969Z</time></trkpt><trkpt lat="43.8714931" lon="11.1827165"><ele>209.75</ele><time>2026-04-21T16:23:48.966Z</time></trkpt><trkpt lat="43.8713861" lon="11.1827478"><ele>207.0</ele><time>2026-04-21T16:23:50.969Z</time></trkpt><trkpt lat="43.871286" lon="11.1827719"><ele>207.0</ele><time>2026-04-21T16:23:52.969Z</time></trkpt><trkpt lat="43.8711875" lon="11.1828061"><ele>207.0</ele><time>2026-04-21T16:23:54.964Z</time></trkpt><trkpt lat="43.8711306" lon="11.1828646"><ele>207.0</ele><time>2026-04-21T16:23:56.967Z</time></trkpt><trkpt lat="43.8710921" lon="11.1829487"><ele>207.0</ele><time>2026-04-21T16:23:58.967Z</time></trkpt><trkpt lat="43.8710585" lon="11.1830547"><ele>207.0</ele><time>2026-04-21T16:24:00.969Z</time></trkpt><trkpt lat="43.8710141" lon="11.1831312"><ele>207.0</ele><time>2026-04-21T16:24:02.959Z</time></trkpt><trkpt lat="43.8709429" lon="11.1831502"><ele>204.0</ele><time>2026-04-21T16:24:04.963Z</time></trkpt><trkpt lat="43.8708637" lon="11.183119"><ele>201.0</ele><time>2026-04-21T16:24:07.056Z</time></trkpt><trkpt lat="43.8707642" lon="11.1830448"><ele>198.0</ele><time>2026-04-21T16:24:09.028Z</time></trkpt><trkpt lat="43.8706782" lon="11.182946"><ele>195.0</ele><time>2026-04-21T16:24:10.953Z</time></trkpt><trkpt lat="43.8705968" lon="11.1828672"><ele>192.0</ele><time>2026-04-21T16:24:12.955Z</time></trkpt><trkpt lat="43.8705013" lon="11.1827959"><ele>192.0</ele><time>2026-04-21T16:24:14.957Z</time></trkpt><trkpt lat="43.8704299" lon="11.1827062"><ele>192.0</ele><time>2026-04-21T16:24:17.031Z</time></trkpt><trkpt lat="43.8703445" lon="11.18259"><ele>192.0</ele><time>2026-04-21T16:24:18.958Z</time></trkpt><trkpt lat="43.8702944" lon="11.1825259"><ele>192.0</ele><time>2026-04-21T16:24:19.958Z</time></trkpt><trkpt lat="43.870243" lon="11.1824515"><ele>192.0</ele><time>2026-04-21T16:24:20.956Z</time></trkpt><trkpt lat="43.8701907" lon="11.1823745"><ele>192.0</ele><time>2026-04-21T16:24:21.959Z</time></trkpt><trkpt lat="43.8701406" lon="11.1823003"><ele>188.16666666666666</ele><time>2026-04-21T16:24:22.959Z</time></trkpt><trkpt lat="43.8700927" lon="11.1822343"><ele>184.33333333333334</ele><time>2026-04-21T16:24:24.023Z</time></trkpt><trkpt lat="43.8700121" lon="11.1821164"><ele>180.5</ele><time>2026-04-21T16:24:25.954Z</time></trkpt><trkpt lat="43.8699659" lon="11.1820555"><ele>176.66666666666669</ele><time>2026-04-21T16:24:27.949Z</time></trkpt><trkpt lat="43.8698716" lon="11.1820658"><ele>172.83333333333334</ele><time>2026-04-21T16:24:30.955Z</time></trkpt><trkpt lat="43.8697741" lon="11.1821178"><ele>169.0</ele><time>2026-04-21T16:24:32.955Z</time></trkpt><trkpt lat="43.8696821" lon="11.1821954"><ele>169.0</ele><time>2026-04-21T16:24:34.951Z</time></trkpt><trkpt lat="43.8695921" lon="11.1822969"><ele>169.0</ele><time>2026-04-21T16:24:36.942Z</time></trkpt><trkpt lat="43.8695051" lon="11.1823887"><ele>169.0</ele><time>2026-04-21T16:24:38.948Z</time></trkpt><trkpt lat="43.86942" lon="11.1824613"><ele>169.0</ele><time>2026-04-21T16:24:40.954Z</time></trkpt><trkpt lat="43.8693592" lon="11.1825834"><ele>169.0</ele><time>2026-04-21T16:24:42.952Z</time></trkpt><trkpt lat="43.8693298" lon="11.1827031"><ele>169.83333333333334</ele><time>2026-04-21T16:24:44.963Z</time></trkpt><trkpt lat="43.8693196" lon="11.1828045"><ele>170.66666666666669</ele><time>2026-04-21T16:24:47.956Z</time></trkpt><trkpt lat="43.8693772" lon="11.1828795"><ele>171.5</ele><time>2026-04-21T16:24:53.979Z</time></trkpt><trkpt lat="43.8694393" lon="11.1829291"><ele>172.33333333333334</ele><time>2026-04-21T16:24:56.955Z</time></trkpt><trkpt lat="43.8695074" lon="11.1830097"><ele>173.16666666666666</ele><time>2026-04-21T16:25:00.957Z</time></trkpt><trkpt lat="43.869561" lon="11.1831029"><ele>174.0</ele><time>2026-04-21T16:25:03.951Z</time></trkpt><trkpt lat="43.8695979" lon="11.1831799"><ele>173.0</ele><time>2026-04-21T16:25:06.047Z</time></trkpt><trkpt lat="43.8696236" lon="11.183263"><ele>172.0</ele><time>2026-04-21T16:25:07.962Z</time></trkpt><trkpt lat="43.8696614" lon="11.183355"><ele>171.0</ele><time>2026-04-21T16:25:10.964Z</time></trkpt><trkpt lat="43.8696751" lon="11.1834528"><ele>170.0</ele><time>2026-04-21T16:25:13.967Z</time></trkpt><trkpt lat="43.869671" lon="11.1835479"><ele>169.0</ele><time>2026-04-21T16:25:34.963Z</time></trkpt><trkpt lat="43.8695935" lon="11.1835997"><ele>168.0</ele><time>2026-04-21T16:25:38.953Z</time></trkpt><trkpt lat="43.869514" lon="11.1836633"><ele>168.0</ele><time>2026-04-21T16:25:41.967Z</time></trkpt><trkpt lat="43.869435" lon="11.1837104"><ele>168.0</ele><time>2026-04-21T16:25:44.965Z</time></trkpt><trkpt lat="43.869368" lon="11.1837911"><ele>168.0</ele><time>2026-04-21T16:25:47.968Z</time></trkpt><trkpt lat="43.8693237" lon="11.1838892"><ele>168.0</ele><time>2026-04-21T16:25:50.967Z</time></trkpt><trkpt lat="43.8693095" lon="11.1839934"><ele>168.0</ele><time>2026-04-21T16:25:52.958Z</time></trkpt><trkpt lat="43.8692819" lon="11.1840759"><ele>168.0</ele><time>2026-04-21T16:25:54.961Z</time></trkpt><trkpt lat="43.8692484" lon="11.1841926"><ele>168.71428571428572</ele><time>2026-04-21T16:25:57.965Z</time></trkpt><trkpt lat="43.8692749" lon="11.1843057"><ele>169.42857142857144</ele><time>2026-04-21T16:26:00.962Z</time></trkpt><trkpt lat="43.8692917" lon="11.1843967"><ele>170.14285714285714</ele><time>2026-04-21T16:26:02.962Z</time></trkpt><trkpt lat="43.8693137" lon="11.1844856"><ele>170.85714285714286</ele><time>2026-04-21T16:26:04.964Z</time></trkpt><trkpt lat="43.8693445" lon="11.1845825"><ele>171.57142857142858</ele><time>2026-04-21T16:26:06.964Z</time></trkpt><trkpt lat="43.8693611" lon="11.1846678"><ele>172.28571428571428</ele><time>2026-04-21T16:26:08.966Z</time></trkpt><trkpt lat="43.8693757" lon="11.1847837"><ele>173.0</ele><time>2026-04-21T16:26:12.039Z</time></trkpt><trkpt lat="43.8694163" lon="11.1848653"><ele>173.0</ele><time>2026-04-21T16:26:15.955Z</time></trkpt><trkpt lat="43.8694835" lon="11.1848106"><ele>173.0</ele><time>2026-04-21T16:26:19.965Z</time></trkpt><trkpt lat="43.86956" lon="11.1847738"><ele>173.0</ele><time>2026-04-21T16:26:22.963Z</time></trkpt><trkpt lat="43.8696364" lon="11.1847246"><ele>173.0</ele><time>2026-04-21T16:26:25.961Z</time></trkpt><trkpt lat="43.8697014" lon="11.1846675"><ele>173.0</ele><time>2026-04-21T16:26:28.968Z</time></trkpt><trkpt lat="43.8697733" lon="11.1846075"><ele>173.0</ele><time>2026-04-21T16:26:31.974Z</time></trkpt><trkpt lat="43.8698304" lon="11.1845611"><ele>173.0</ele><time>2026-04-21T16:26:33.961Z</time></trkpt><trkpt lat="43.8699001" lon="11.1845321"><ele>173.0</ele><time>2026-04-21T16:26:35.958Z</time></trkpt><trkpt lat="43.8699901" lon="11.1844995"><ele>173.0</ele><time>2026-04-21T16:26:38.97Z</time></trkpt><trkpt lat="43.870051" lon="11.1844538"><ele>173.0</ele><time>2026-04-21T16:26:41.964Z</time></trkpt><trkpt lat="43.8701164" lon="11.1844105"><ele>173.0</ele><time>2026-04-21T16:26:45.03Z</time></trkpt><trkpt lat="43.8701836" lon="11.1843609"><ele>173.0</ele><time>2026-04-21T16:26:47.966Z</time></trkpt><trkpt lat="43.870264" lon="11.1843321"><ele>177.16666666666666</ele><time>2026-04-21T16:26:50.977Z</time></trkpt><trkpt lat="43.8703388" lon="11.1843417"><ele>181.33333333333331</ele><time>2026-04-21T16:26:54.05Z</time></trkpt><trkpt lat="43.8704266" lon="11.1843571"><ele>185.5</ele><time>2026-04-21T16:26:56.964Z</time></trkpt><trkpt lat="43.8705026" lon="11.1843606"><ele>189.66666666666666</ele><time>2026-04-21T16:26:58.962Z</time></trkpt><trkpt lat="43.8705739" lon="11.1843554"><ele>193.83333333333334</ele><time>2026-04-21T16:27:00.964Z</time></trkpt><trkpt lat="43.8706486" lon="11.1843198"><ele>198.0</ele><time>2026-04-21T16:27:03.96Z</time></trkpt><trkpt lat="43.8707328" lon="11.1842621"><ele>198.0</ele><time>2026-04-21T16:27:06.958Z</time></trkpt><trkpt lat="43.8707926" lon="11.1841829"><ele>198.0</ele><time>2026-04-21T16:27:08.968Z</time></trkpt><trkpt lat="43.8708554" lon="11.1841036"><ele>198.0</ele><time>2026-04-21T16:27:10.962Z</time></trkpt><trkpt lat="43.8709157" lon="11.1840322"><ele>198.0</ele><time>2026-04-21T16:27:12.961Z</time></trkpt><trkpt lat="43.8709601" lon="11.1839645"><ele>198.0</ele><time>2026-04-21T16:27:14.965Z</time></trkpt><trkpt lat="43.8710061" lon="11.1838913"><ele>198.0</ele><time>2026-04-21T16:27:16.967Z</time></trkpt><trkpt lat="43.8710501" lon="11.1838206"><ele>199.2857142857143</ele><time>2026-04-21T16:27:18.964Z</time></trkpt><trkpt lat="43.8710757" lon="11.1837185"><ele>200.57142857142856</ele><time>2026-04-21T16:27:20.964Z</time></trkpt><trkpt lat="43.8710876" lon="11.1836263"><ele>201.85714285714286</ele><time>2026-04-21T16:27:22.961Z</time></trkpt><trkpt lat="43.8710989" lon="11.183533"><ele>203.14285714285717</ele><time>2026-04-21T16:27:24.964Z</time></trkpt><trkpt lat="43.8711094" lon="11.183436"><ele>204.42857142857144</ele><time>2026-04-21T16:27:26.958Z</time></trkpt><trkpt lat="43.8711194" lon="11.1833407"><ele>205.71428571428572</ele><time>2026-04-21T16:27:28.964Z</time></trkpt><trkpt lat="43.8711231" lon="11.183249"><ele>207.0</ele><time>2026-04-21T16:27:30.957Z</time></trkpt><trkpt lat="43.8711399" lon="11.1831557"><ele>207.0</ele><time>2026-04-21T16:27:32.965Z</time></trkpt><trkpt lat="43.871159" lon="11.1830596"><ele>207.0</ele><time>2026-04-21T16:27:35.959Z</time></trkpt><trkpt lat="43.8710941" lon="11.1830454"><ele>207.0</ele><time>2026-04-21T16:27:42.966Z</time></trkpt><trkpt lat="43.8710745" lon="11.1831547"><ele>207.0</ele><time>2026-04-21T16:27:46.963Z</time></trkpt><trkpt lat="43.8710104" lon="11.1832113"><ele>207.0</ele><time>2026-04-21T16:27:51.042Z</time></trkpt><trkpt lat="43.8709255" lon="11.1831837"><ele>207.0</ele><time>2026-04-21T16:27:53.968Z</time></trkpt><trkpt lat="43.8708628" lon="11.1831453"><ele>204.5</ele><time>2026-04-21T16:27:55.972Z</time></trkpt><trkpt lat="43.8707882" lon="11.1830981"><ele>202.0</ele><time>2026-04-21T16:27:57.96Z</time></trkpt><trkpt lat="43.8707072" lon="11.1830422"><ele>199.5</ele><time>2026-04-21T16:28:00.018Z</time></trkpt><trkpt lat="43.8706302" lon="11.1829891"><ele>197.0</ele><time>2026-04-21T16:28:01.961Z</time></trkpt><trkpt lat="43.8705561" lon="11.1829468"><ele>194.5</ele><time>2026-04-21T16:28:03.959Z</time></trkpt><trkpt lat="43.870487" lon="11.1828688"><ele>192.0</ele><time>2026-04-21T16:28:05.958Z</time></trkpt><trkpt lat="43.8704306" lon="11.1827693"><ele>192.0</ele><time>2026-04-21T16:28:07.953Z</time></trkpt><trkpt lat="43.870379" lon="11.1826807"><ele>192.0</ele><time>2026-04-21T16:28:10.043Z</time></trkpt><trkpt lat="43.8703162" lon="11.1826121"><ele>192.0</ele><time>2026-04-21T16:28:11.966Z</time></trkpt><trkpt lat="43.8702263" lon="11.1826054"><ele>192.0</ele><time>2026-04-21T16:28:14.962Z</time></trkpt><trkpt lat="43.870117" lon="11.1826255"><ele>192.0</ele><time>2026-04-21T16:28:16.956Z</time></trkpt><trkpt lat="43.8699921" lon="11.1826468"><ele>188.39999999999998</ele><time>2026-04-21T16:28:18.959Z</time></trkpt><trkpt lat="43.8699277" lon="11.1826636"><ele>184.79999999999998</ele><time>2026-04-21T16:28:19.959Z</time></trkpt><trkpt lat="43.8698118" lon="11.1827215"><ele>181.2</ele><time>2026-04-21T16:28:22.024Z</time></trkpt><trkpt lat="43.8697477" lon="11.1827391"><ele>177.6</ele><time>2026-04-21T16:28:22.954Z</time></trkpt><trkpt lat="43.8696326" lon="11.1827902"><ele>174.0</ele><time>2026-04-21T16:28:24.957Z</time></trkpt><trkpt lat="43.8695306" lon="11.1828534"><ele>174.0</ele><time>2026-04-21T16:28:26.954Z</time></trkpt><trkpt lat="43.8694728" lon="11.1829578"><ele>174.0</ele><time>2026-04-21T16:28:29.016Z</time></trkpt><trkpt lat="43.8694013" lon="11.183027"><ele>174.0</ele><time>2026-04-21T16:28:31.043Z</time></trkpt><trkpt lat="43.8693274" lon="11.183049"><ele>174.0</ele><time>2026-04-21T16:28:32.954Z</time></trkpt><trkpt lat="43.869248" lon="11.1830315"><ele>174.0</ele><time>2026-04-21T16:28:34.953Z</time></trkpt><trkpt lat="43.869135" lon="11.1830019"><ele>170.5</ele><time>2026-04-21T16:28:36.955Z</time></trkpt><trkpt lat="43.8690268" lon="11.1829794"><ele>167.0</ele><time>2026-04-21T16:28:38.956Z</time></trkpt><trkpt lat="43.868946" lon="11.18298"><ele>163.5</ele><time>2026-04-21T16:28:41.041Z</time></trkpt><trkpt lat="43.8688772" lon="11.1829575"><ele>160.0</ele><time>2026-04-21T16:28:43.955Z</time></trkpt><trkpt lat="43.868804" lon="11.1828886"><ele>156.5</ele><time>2026-04-21T16:28:46.956Z</time></trkpt><trkpt lat="43.8687371" lon="11.1828419"><ele>153.0</ele><time>2026-04-21T16:28:48.965Z</time></trkpt><trkpt lat="43.8686436" lon="11.182757"><ele>153.0</ele><time>2026-04-21T16:28:50.957Z</time></trkpt><trkpt lat="43.8685866" lon="11.1827147"><ele>153.0</ele><time>2026-04-21T16:28:51.954Z</time></trkpt><trkpt lat="43.86848" lon="11.182632"><ele>153.0</ele><time>2026-04-21T16:28:53.956Z</time></trkpt><trkpt lat="43.8683892" lon="11.1825487"><ele>153.0</ele><time>2026-04-21T16:28:55.955Z</time></trkpt><trkpt lat="43.8682842" lon="11.1824733"><ele>153.0</ele><time>2026-04-21T16:28:57.957Z</time></trkpt><trkpt lat="43.8682207" lon="11.1824208"><ele>149.4</ele><time>2026-04-21T16:28:59.954Z</time></trkpt><trkpt lat="43.8681614" lon="11.1823623"><ele>145.8</ele><time>2026-04-21T16:29:47.954Z</time></trkpt><trkpt lat="43.8680777" lon="11.1823379"><ele>142.2</ele><time>2026-04-21T16:29:50.95Z</time></trkpt><trkpt lat="43.8680035" lon="11.1822792"><ele>138.6</ele><time>2026-04-21T16:29:52.958Z</time></trkpt><trkpt lat="43.8679061" lon="11.1822108"><ele>135.0</ele><time>2026-04-21T16:29:54.954Z</time></trkpt><trkpt lat="43.8677952" lon="11.1821307"><ele>134.4</ele><time>2026-04-21T16:29:56.96Z</time></trkpt><trkpt lat="43.8677375" lon="11.1820843"><ele>133.8</ele><time>2026-04-21T16:29:57.953Z</time></trkpt><trkpt lat="43.8676296" lon="11.1819989"><ele>133.2</ele><time>2026-04-21T16:29:59.953Z</time></trkpt><trkpt lat="43.8675253" lon="11.1819324"><ele>132.6</ele><time>2026-04-21T16:30:01.96Z</time></trkpt><trkpt lat="43.8674661" lon="11.181899"><ele>132.0</ele><time>2026-04-21T16:30:02.957Z</time></trkpt><trkpt lat="43.867363" lon="11.1818314"><ele>129.2</ele><time>2026-04-21T16:30:05.014Z</time></trkpt><trkpt lat="43.8672638" lon="11.181752"><ele>126.39999999999999</ele><time>2026-04-21T16:30:06.975Z</time></trkpt><trkpt lat="43.8671767" lon="11.1816939"><ele>123.60000000000001</ele><time>2026-04-21T16:30:08.957Z</time></trkpt><trkpt lat="43.8670935" lon="11.1816793"><ele>120.80000000000001</ele><time>2026-04-21T16:30:10.969Z</time></trkpt><trkpt lat="43.8670586" lon="11.1817904"><ele>118.0</ele><time>2026-04-21T16:30:12.959Z</time></trkpt><trkpt lat="43.8670323" lon="11.1819453"><ele>118.0</ele><time>2026-04-21T16:30:14.954Z</time></trkpt><trkpt lat="43.8670055" lon="11.1820354"><ele>118.0</ele><time>2026-04-21T16:30:15.982Z</time></trkpt><trkpt lat="43.8669819" lon="11.1821268"><ele>118.0</ele><time>2026-04-21T16:30:16.958Z</time></trkpt><trkpt lat="43.8669523" lon="11.1822159"><ele>118.0</ele><time>2026-04-21T16:30:17.971Z</time></trkpt><trkpt lat="43.866923" lon="11.1823075"><ele>118.0</ele><time>2026-04-21T16:30:18.955Z</time></trkpt><trkpt lat="43.866893" lon="11.1824019"><ele>118.0</ele><time>2026-04-21T16:30:19.955Z</time></trkpt><trkpt lat="43.8668722" lon="11.1824942"><ele>118.0</ele><time>2026-04-21T16:30:20.954Z</time></trkpt><trkpt lat="43.8668483" lon="11.1825761"><ele>118.42857142857142</ele><time>2026-04-21T16:30:21.952Z</time></trkpt><trkpt lat="43.8668259" lon="11.1826623"><ele>118.85714285714286</ele><time>2026-04-21T16:30:22.96Z</time></trkpt><trkpt lat="43.8667957" lon="11.1827441"><ele>119.28571428571428</ele><time>2026-04-21T16:30:24.032Z</time></trkpt><trkpt lat="43.8667692" lon="11.1828305"><ele>119.71428571428571</ele><time>2026-04-21T16:30:25.02Z</time></trkpt><trkpt lat="43.8667465" lon="11.1829128"><ele>120.14285714285714</ele><time>2026-04-21T16:30:26.031Z</time></trkpt><trkpt lat="43.8667123" lon="11.1829914"><ele>120.57142857142857</ele><time>2026-04-21T16:30:28.955Z</time></trkpt><trkpt lat="43.866784" lon="11.1830409"><ele>121.0</ele><time>2026-04-21T16:30:49.964Z</time></trkpt><trkpt lat="43.8668713" lon="11.1830746"><ele>121.0</ele><time>2026-04-21T16:30:51.943Z</time></trkpt><trkpt lat="43.866985" lon="11.1831394"><ele>121.0</ele><time>2026-04-21T16:30:53.938Z</time></trkpt><trkpt lat="43.8670417" lon="11.1831785"><ele>121.0</ele><time>2026-04-21T16:30:54.953Z</time></trkpt><trkpt lat="43.8671" lon="11.1832126"><ele>121.0</ele><time>2026-04-21T16:30:55.953Z</time></trkpt><trkpt lat="43.8672037" lon="11.1832861"><ele>121.0</ele><time>2026-04-21T16:30:57.946Z</time></trkpt><trkpt lat="43.8672961" lon="11.1833517"><ele>120.83333333333334</ele><time>2026-04-21T16:30:59.953Z</time></trkpt><trkpt lat="43.8673773" lon="11.1834033"><ele>120.66666666666667</ele><time>2026-04-21T16:31:01.948Z</time></trkpt><trkpt lat="43.8674535" lon="11.1834535"><ele>120.5</ele><time>2026-04-21T16:31:03.947Z</time></trkpt><trkpt lat="43.8675425" lon="11.1834438"><ele>120.33333333333334</ele><time>2026-04-21T16:31:05.959Z</time></trkpt><trkpt lat="43.8676035" lon="11.1833788"><ele>120.16666666666667</ele><time>2026-04-21T16:31:07.954Z</time></trkpt><trkpt lat="43.8676373" lon="11.1832995"><ele>120.0</ele><time>2026-04-21T16:31:09.95Z</time></trkpt><trkpt lat="43.8676714" lon="11.1831756"><ele>122.5</ele><time>2026-04-21T16:31:12.96Z</time></trkpt><trkpt lat="43.8677118" lon="11.1830605"><ele>125.0</ele><time>2026-04-21T16:31:15.954Z</time></trkpt><trkpt lat="43.8677498" lon="11.1829595"><ele>127.5</ele><time>2026-04-21T16:31:18.953Z</time></trkpt><trkpt lat="43.867787" lon="11.1828656"><ele>130.0</ele><time>2026-04-21T16:31:21.954Z</time></trkpt><trkpt lat="43.8678711" lon="11.1828604"><ele>132.5</ele><time>2026-04-21T16:31:25.946Z</time></trkpt><trkpt lat="43.8679491" lon="11.1829235"><ele>135.0</ele><time>2026-04-21T16:31:28.976Z</time></trkpt><trkpt lat="43.8680215" lon="11.1829709"><ele>135.0</ele><time>2026-04-21T16:31:31.95Z</time></trkpt><trkpt lat="43.8680886" lon="11.1830325"><ele>135.0</ele><time>2026-04-21T16:31:34.959Z</time></trkpt><trkpt lat="43.8681561" lon="11.183061"><ele>135.0</ele><time>2026-04-21T16:31:37.944Z</time></trkpt><trkpt lat="43.8682196" lon="11.1831245"><ele>135.0</ele><time>2026-04-21T16:31:40.954Z</time></trkpt><trkpt lat="43.8682895" lon="11.1831381"><ele>135.0</ele><time>2026-04-21T16:31:43.955Z</time></trkpt><trkpt lat="43.8683294" lon="11.1830266"><ele>135.0</ele><time>2026-04-21T16:31:46.947Z</time></trkpt><trkpt lat="43.8683734" lon="11.1829346"><ele>135.0</ele><time>2026-04-21T16:31:48.953Z</time></trkpt><trkpt lat="43.8683948" lon="11.1828295"><ele>135.0</ele><time>2026-04-21T16:31:50.949Z</time></trkpt><trkpt lat="43.8684328" lon="11.1827448"><ele>135.0</ele><time>2026-04-21T16:31:52.956Z</time></trkpt><trkpt lat="43.8684622" lon="11.1826432"><ele>135.0</ele><time>2026-04-21T16:31:55.961Z</time></trkpt><trkpt lat="43.8683933" lon="11.1825807"><ele>135.0</ele><time>2026-04-21T16:31:59.96Z</time></trkpt><trkpt lat="43.8683234" lon="11.1825188"><ele>135.0</ele><time>2026-04-21T16:32:02.046Z</time></trkpt><trkpt lat="43.8682274" lon="11.1824269"><ele>134.4</ele><time>2026-04-21T16:32:04.036Z</time></trkpt><trkpt lat="43.8681128" lon="11.18234"><ele>133.8</ele><time>2026-04-21T16:32:05.965Z</time></trkpt><trkpt lat="43.8679917" lon="11.1822448"><ele>133.2</ele><time>2026-04-21T16:32:07.97Z</time></trkpt><trkpt lat="43.8679177" lon="11.1821972"><ele>132.6</ele><time>2026-04-21T16:32:08.961Z</time></trkpt><trkpt lat="43.8678472" lon="11.1821426"><ele>132.0</ele><time>2026-04-21T16:32:10.032Z</time></trkpt><trkpt lat="43.867783" lon="11.1820996"><ele>132.0</ele><time>2026-04-21T16:32:10.963Z</time></trkpt><trkpt lat="43.8677232" lon="11.1820621"><ele>132.0</ele><time>2026-04-21T16:32:12.034Z</time></trkpt><trkpt lat="43.8676687" lon="11.1820147"><ele>132.0</ele><time>2026-04-21T16:32:12.966Z</time></trkpt><trkpt lat="43.867613" lon="11.1819726"><ele>132.0</ele><time>2026-04-21T16:32:13.968Z</time></trkpt><trkpt lat="43.867557" lon="11.1819306"><ele>132.0</ele><time>2026-04-21T16:32:14.962Z</time></trkpt><trkpt lat="43.867494" lon="11.1818918"><ele>132.0</ele><time>2026-04-21T16:32:16.031Z</time></trkpt><trkpt lat="43.8674334" lon="11.1818489"><ele>132.0</ele><time>2026-04-21T16:32:17.032Z</time></trkpt><trkpt lat="43.8673749" lon="11.1817999"><ele>129.66666666666666</ele><time>2026-04-21T16:32:17.96Z</time></trkpt><trkpt lat="43.8673179" lon="11.1817501"><ele>127.33333333333334</ele><time>2026-04-21T16:32:18.962Z</time></trkpt><trkpt lat="43.867264" lon="11.1817036"><ele>125.0</ele><time>2026-04-21T16:32:19.961Z</time></trkpt><trkpt lat="43.8671635" lon="11.181652"><ele>122.66666666666667</ele><time>2026-04-21T16:32:22.029Z</time></trkpt><trkpt lat="43.8670988" lon="11.1816941"><ele>120.33333333333334</ele><time>2026-04-21T16:32:23.959Z</time></trkpt><trkpt lat="43.8670551" lon="11.1818552"><ele>118.0</ele><time>2026-04-21T16:32:26.028Z</time></trkpt><trkpt lat="43.8670278" lon="11.1819519"><ele>118.00000000000001</ele><time>2026-04-21T16:32:27.038Z</time></trkpt><trkpt lat="43.8669962" lon="11.1820422"><ele>118.0</ele><time>2026-04-21T16:32:27.957Z</time></trkpt><trkpt lat="43.8669623" lon="11.1821323"><ele>118.0</ele><time>2026-04-21T16:32:28.966Z</time></trkpt><trkpt lat="43.8669284" lon="11.1822378"><ele>118.0</ele><time>2026-04-21T16:32:29.974Z</time></trkpt><trkpt lat="43.8668967" lon="11.1823418"><ele>118.00000000000001</ele><time>2026-04-21T16:32:31.039Z</time></trkpt><trkpt lat="43.8668624" lon="11.182443"><ele>118.0</ele><time>2026-04-21T16:32:32.052Z</time></trkpt><trkpt lat="43.8668323" lon="11.1825428"><ele>118.50000000000001</ele><time>2026-04-21T16:32:32.964Z</time></trkpt><trkpt lat="43.8668075" lon="11.1826372"><ele>119.0</ele><time>2026-04-21T16:32:34.029Z</time></trkpt><trkpt lat="43.866778" lon="11.182722"><ele>119.5</ele><time>2026-04-21T16:32:35.027Z</time></trkpt><trkpt lat="43.8667505" lon="11.1828056"><ele>120.0</ele><time>2026-04-21T16:32:36.03Z</time></trkpt><trkpt lat="43.8667144" lon="11.1829315"><ele>120.50000000000001</ele><time>2026-04-21T16:32:37.955Z</time></trkpt><trkpt lat="43.8666081" lon="11.1829366"><ele>121.0</ele><time>2026-04-21T16:32:40.954Z</time></trkpt><trkpt lat="43.8664774" lon="11.1828476"><ele>119.66666666666667</ele><time>2026-04-21T16:32:42.956Z</time></trkpt><trkpt lat="43.8664045" lon="11.1827997"><ele>118.33333333333334</ele><time>2026-04-21T16:32:43.953Z</time></trkpt><trkpt lat="43.8663332" lon="11.1827638"><ele>117.0</ele><time>2026-04-21T16:32:44.958Z</time></trkpt><trkpt lat="43.866259" lon="11.1827292"><ele>115.66666666666666</ele><time>2026-04-21T16:32:45.959Z</time></trkpt><trkpt lat="43.8661878" lon="11.182702"><ele>114.33333333333333</ele><time>2026-04-21T16:32:46.959Z</time></trkpt><trkpt lat="43.8661135" lon="11.1826692"><ele>113.0</ele><time>2026-04-21T16:32:47.957Z</time></trkpt><trkpt lat="43.8660433" lon="11.1826393"><ele>112.99999999999999</ele><time>2026-04-21T16:32:48.953Z</time></trkpt><trkpt lat="43.8659715" lon="11.1826008"><ele>113.0</ele><time>2026-04-21T16:32:49.96Z</time></trkpt><trkpt lat="43.8658942" lon="11.1825576"><ele>113.0</ele><time>2026-04-21T16:32:51.007Z</time></trkpt><trkpt lat="43.8658132" lon="11.1825187"><ele>113.0</ele><time>2026-04-21T16:32:52.031Z</time></trkpt><trkpt lat="43.8657334" lon="11.1824852"><ele>112.99999999999999</ele><time>2026-04-21T16:32:52.958Z</time></trkpt><trkpt lat="43.8656512" lon="11.1824533"><ele>113.0</ele><time>2026-04-21T16:32:53.957Z</time></trkpt><trkpt lat="43.8655716" lon="11.182421"><ele>111.99999999999999</ele><time>2026-04-21T16:32:54.961Z</time></trkpt><trkpt lat="43.8654921" lon="11.1823868"><ele>111.0</ele><time>2026-04-21T16:32:55.955Z</time></trkpt><trkpt lat="43.8654276" lon="11.1823596"><ele>110.0</ele><time>2026-04-21T16:32:56.956Z</time></trkpt><trkpt lat="43.8653667" lon="11.1823331"><ele>109.0</ele><time>2026-04-21T16:32:58.964Z</time></trkpt><trkpt lat="43.8653069" lon="11.1823813"><ele>107.99999999999999</ele><time>2026-04-21T16:33:04.971Z</time></trkpt><trkpt lat="43.8652539" lon="11.1824826"><ele>107.0</ele><time>2026-04-21T16:33:06.961Z</time></trkpt><trkpt lat="43.8651874" lon="11.1825529"><ele>106.0</ele><time>2026-04-21T16:33:08.947Z</time></trkpt><trkpt lat="43.8650851" lon="11.1825468"><ele>104.99999999999999</ele><time>2026-04-21T16:33:10.955Z</time></trkpt><trkpt lat="43.8649807" lon="11.1824762"><ele>104.0</ele><time>2026-04-21T16:33:12.959Z</time></trkpt><trkpt lat="43.8648783" lon="11.1823688"><ele>103.0</ele><time>2026-04-21T16:33:14.961Z</time></trkpt><trkpt lat="43.8648212" lon="11.1823093"><ele>102.0</ele><time>2026-04-21T16:33:15.963Z</time></trkpt><trkpt lat="43.8647601" lon="11.1822541"><ele>101.42857142857143</ele><time>2026-04-21T16:33:16.957Z</time></trkpt><trkpt lat="43.8646924" lon="11.1821967"><ele>100.85714285714286</ele><time>2026-04-21T16:33:17.959Z</time></trkpt><trkpt lat="43.8646203" lon="11.1821516"><ele>100.28571428571428</ele><time>2026-04-21T16:33:18.954Z</time></trkpt><trkpt lat="43.8645547" lon="11.1821003"><ele>99.71428571428572</ele><time>2026-04-21T16:33:20.042Z</time></trkpt><trkpt lat="43.8644931" lon="11.1820546"><ele>99.14285714285714</ele><time>2026-04-21T16:33:21.031Z</time></trkpt><trkpt lat="43.8644346" lon="11.1820068"><ele>98.57142857142857</ele><time>2026-04-21T16:33:22.031Z</time></trkpt><trkpt lat="43.8643772" lon="11.1819576"><ele>98.0</ele><time>2026-04-21T16:33:22.965Z</time></trkpt><trkpt lat="43.8643037" lon="11.1818629"><ele>98.0</ele><time>2026-04-21T16:33:24.983Z</time></trkpt><trkpt lat="43.8642562" lon="11.1818017"><ele>98.0</ele><time>2026-04-21T16:33:27.04Z</time></trkpt><trkpt lat="43.8642949" lon="11.1818726"><ele>98.0</ele><time>2026-04-21T16:33:48.952Z</time></trkpt><trkpt lat="43.8643907" lon="11.181956"><ele>98.0</ele><time>2026-04-21T16:33:51.036Z</time></trkpt><trkpt lat="43.8644972" lon="11.1820567"><ele>98.0</ele><time>2026-04-21T16:33:52.961Z</time></trkpt><trkpt lat="43.8645716" lon="11.1821066"><ele>97.99999999999999</ele><time>2026-04-21T16:33:53.952Z</time></trkpt><trkpt lat="43.8646443" lon="11.1821621"><ele>98.0</ele><time>2026-04-21T16:33:54.951Z</time></trkpt><trkpt lat="43.8647234" lon="11.1822238"><ele>98.0</ele><time>2026-04-21T16:33:55.956Z</time></trkpt><trkpt lat="43.8648064" lon="11.182287"><ele>98.0</ele><time>2026-04-21T16:33:56.962Z</time></trkpt><trkpt lat="43.864882" lon="11.1823576"><ele>97.99999999999999</ele><time>2026-04-21T16:33:57.946Z</time></trkpt><trkpt lat="43.8649509" lon="11.1824237"><ele>98.0</ele><time>2026-04-21T16:33:58.963Z</time></trkpt><trkpt lat="43.8650137" lon="11.1824747"><ele>98.80000000000001</ele><time>2026-04-21T16:33:59.952Z</time></trkpt><trkpt lat="43.8650723" lon="11.1825072"><ele>99.6</ele><time>2026-04-21T16:34:00.965Z</time></trkpt><trkpt lat="43.8651536" lon="11.1825598"><ele>100.4</ele><time>2026-04-21T16:34:02.959Z</time></trkpt><trkpt lat="43.8651663" lon="11.1826949"><ele>101.19999999999999</ele><time>2026-04-21T16:34:05.962Z</time></trkpt><trkpt lat="43.8651357" lon="11.1828682"><ele>102.0</ele><time>2026-04-21T16:34:07.966Z</time></trkpt><trkpt lat="43.865122" lon="11.1829708"><ele>102.0</ele><time>2026-04-21T16:34:08.964Z</time></trkpt><trkpt lat="43.8651094" lon="11.1830693"><ele>102.0</ele><time>2026-04-21T16:34:09.955Z</time></trkpt><trkpt lat="43.8650903" lon="11.1831833"><ele>102.0</ele><time>2026-04-21T16:34:10.976Z</time></trkpt><trkpt lat="43.8650675" lon="11.1833154"><ele>102.0</ele><time>2026-04-21T16:34:12.033Z</time></trkpt><trkpt lat="43.8650488" lon="11.1834494"><ele>102.0</ele><time>2026-04-21T16:34:12.962Z</time></trkpt><trkpt lat="43.8650349" lon="11.1835846"><ele>102.39999999999999</ele><time>2026-04-21T16:34:13.957Z</time></trkpt><trkpt lat="43.8650129" lon="11.1837245"><ele>102.8</ele><time>2026-04-21T16:34:14.958Z</time></trkpt><trkpt lat="43.8649874" lon="11.1838664"><ele>103.2</ele><time>2026-04-21T16:34:15.959Z</time></trkpt><trkpt lat="43.8649692" lon="11.1840122"><ele>103.6</ele><time>2026-04-21T16:34:16.955Z</time></trkpt><trkpt lat="43.8649546" lon="11.1841672"><ele>104.0</ele><time>2026-04-21T16:34:17.961Z</time></trkpt><trkpt lat="43.8649316" lon="11.1843193"><ele>104.75</ele><time>2026-04-21T16:34:18.954Z</time></trkpt><trkpt lat="43.8649031" lon="11.1844785"><ele>105.5</ele><time>2026-04-21T16:34:19.98Z</time></trkpt><trkpt lat="43.8648787" lon="11.1846374"><ele>106.25</ele><time>2026-04-21T16:34:20.974Z</time></trkpt><trkpt lat="43.8648675" lon="11.1847926"><ele>107.0</ele><time>2026-04-21T16:34:21.959Z</time></trkpt><trkpt lat="43.8648654" lon="11.1849555"><ele>107.5</ele><time>2026-04-21T16:34:22.959Z</time></trkpt><trkpt lat="43.8648704" lon="11.1851282"><ele>108.0</ele><time>2026-04-21T16:34:23.957Z</time></trkpt><trkpt lat="43.8648763" lon="11.1853127"><ele>108.5</ele><time>2026-04-21T16:34:24.958Z</time></trkpt><trkpt lat="43.8648746" lon="11.1855072"><ele>109.0</ele><time>2026-04-21T16:34:26.015Z</time></trkpt><trkpt lat="43.8648729" lon="11.1857152"><ele>109.0</ele><time>2026-04-21T16:34:27.028Z</time></trkpt><trkpt lat="43.8648704" lon="11.1859356"><ele>109.0</ele><time>2026-04-21T16:34:27.956Z</time></trkpt><trkpt lat="43.864874" lon="11.1861539"><ele>109.0</ele><time>2026-04-21T16:34:28.958Z</time></trkpt><trkpt lat="43.8648795" lon="11.1863734"><ele>109.0</ele><time>2026-04-21T16:34:29.993Z</time></trkpt><trkpt lat="43.8648909" lon="11.1865938"><ele>109.0</ele><time>2026-04-21T16:34:31.014Z</time></trkpt><trkpt lat="43.8649027" lon="11.1868162"><ele>109.0</ele><time>2026-04-21T16:34:32.017Z</time></trkpt><trkpt lat="43.8649119" lon="11.18704"><ele>109.0</ele><time>2026-04-21T16:34:32.959Z</time></trkpt><trkpt lat="43.8649129" lon="11.1872636"><ele>109.0</ele><time>2026-04-21T16:34:33.968Z</time></trkpt><trkpt lat="43.8649126" lon="11.1874768"><ele>109.0</ele><time>2026-04-21T16:34:34.961Z</time></trkpt><trkpt lat="43.8649132" lon="11.1876765"><ele>109.5</ele><time>2026-04-21T16:34:36.077Z</time></trkpt><trkpt lat="43.8649151" lon="11.1880221"><ele>110.0</ele><time>2026-04-21T16:34:37.965Z</time></trkpt><trkpt lat="43.8649193" lon="11.1881477"><ele>110.5</ele><time>2026-04-21T16:34:39.014Z</time></trkpt><trkpt lat="43.8649174" lon="11.188245"><ele>111.0</ele><time>2026-04-21T16:34:40.024Z</time></trkpt><trkpt lat="43.8648391" lon="11.1883687"><ele>111.6</ele><time>2026-04-21T16:34:41.99Z</time></trkpt><trkpt lat="43.8647687" lon="11.1884309"><ele>112.19999999999999</ele><time>2026-04-21T16:34:42.953Z</time></trkpt><trkpt lat="43.8646785" lon="11.18851"><ele>112.80000000000001</ele><time>2026-04-21T16:34:44.018Z</time></trkpt><trkpt lat="43.8645738" lon="11.1885737"><ele>113.4</ele><time>2026-04-21T16:34:45.015Z</time></trkpt><trkpt lat="43.8644433" lon="11.1886122"><ele>114.0</ele><time>2026-04-21T16:34:45.961Z</time></trkpt><trkpt lat="43.8643047" lon="11.188643"><ele>112.25</ele><time>2026-04-21T16:34:46.957Z</time></trkpt><trkpt lat="43.8641675" lon="11.1886725"><ele>110.5</ele><time>2026-04-21T16:34:47.959Z</time></trkpt><trkpt lat="43.8640246" lon="11.1887034"><ele>108.75</ele><time>2026-04-21T16:34:48.952Z</time></trkpt><trkpt lat="43.8638881" lon="11.188728"><ele>107.0</ele><time>2026-04-21T16:34:49.957Z</time></trkpt><trkpt lat="43.8637592" lon="11.1887596"><ele>106.99999999999999</ele><time>2026-04-21T16:34:50.954Z</time></trkpt><trkpt lat="43.8636435" lon="11.1887859"><ele>107.0</ele><time>2026-04-21T16:34:52.048Z</time></trkpt><trkpt lat="43.8635453" lon="11.1888083"><ele>107.0</ele><time>2026-04-21T16:34:52.961Z</time></trkpt><trkpt lat="43.8634666" lon="11.1888344"><ele>107.0</ele><time>2026-04-21T16:34:53.962Z</time></trkpt><trkpt lat="43.8634197" lon="11.1889129"><ele>106.99999999999999</ele><time>2026-04-21T16:34:54.964Z</time></trkpt><trkpt lat="43.8633967" lon="11.1890054"><ele>107.0</ele><time>2026-04-21T16:34:55.962Z</time></trkpt><trkpt lat="43.8633859" lon="11.1890991"><ele>106.8</ele><time>2026-04-21T16:34:56.956Z</time></trkpt><trkpt lat="43.863351" lon="11.1891736"><ele>106.6</ele><time>2026-04-21T16:34:57.951Z</time></trkpt><trkpt lat="43.8632747" lon="11.1892134"><ele>106.39999999999999</ele><time>2026-04-21T16:34:58.981Z</time></trkpt><trkpt lat="43.8631784" lon="11.1892049"><ele>106.19999999999999</ele><time>2026-04-21T16:34:59.953Z</time></trkpt><trkpt lat="43.8630766" lon="11.1891819"><ele>106.0</ele><time>2026-04-21T16:35:00.945Z</time></trkpt><trkpt lat="43.8629715" lon="11.1891457"><ele>106.0</ele><time>2026-04-21T16:35:02.061Z</time></trkpt><trkpt lat="43.8627275" lon="11.189108"><ele>106.0</ele><time>2026-04-21T16:35:03.958Z</time></trkpt><trkpt lat="43.862616" lon="11.1890722"><ele>106.0</ele><time>2026-04-21T16:35:05.001Z</time></trkpt><trkpt lat="43.8625096" lon="11.1890203"><ele>106.0</ele><time>2026-04-21T16:35:05.972Z</time></trkpt><trkpt lat="43.8624046" lon="11.1889543"><ele>106.0</ele><time>2026-04-21T16:35:06.952Z</time></trkpt><trkpt lat="43.8623143" lon="11.1888601"><ele>106.0</ele><time>2026-04-21T16:35:07.954Z</time></trkpt><trkpt lat="43.8622324" lon="11.1887477"><ele>106.0</ele><time>2026-04-21T16:35:08.964Z</time></trkpt><trkpt lat="43.8621649" lon="11.1886248"><ele>106.0</ele><time>2026-04-21T16:35:10.028Z</time></trkpt><trkpt lat="43.8621123" lon="11.1884979"><ele>106.0</ele><time>2026-04-21T16:35:11.026Z</time></trkpt><trkpt lat="43.8620799" lon="11.1883721"><ele>106.0</ele><time>2026-04-21T16:35:12.025Z</time></trkpt><trkpt lat="43.8620556" lon="11.1882337"><ele>106.0</ele><time>2026-04-21T16:35:12.94Z</time></trkpt><trkpt lat="43.8620221" lon="11.1880891"><ele>106.0</ele><time>2026-04-21T16:35:13.952Z</time></trkpt><trkpt lat="43.8619647" lon="11.1879477"><ele>106.0</ele><time>2026-04-21T16:35:14.963Z</time></trkpt><trkpt lat="43.8618837" lon="11.1877887"><ele>106.0</ele><time>2026-04-21T16:35:16.023Z</time></trkpt><trkpt lat="43.8618086" lon="11.1876427"><ele>106.0</ele><time>2026-04-21T16:35:16.952Z</time></trkpt><trkpt lat="43.8617261" lon="11.1874997"><ele>106.0</ele><time>2026-04-21T16:35:17.95Z</time></trkpt><trkpt lat="43.861638" lon="11.1873455"><ele>104.75</ele><time>2026-04-21T16:35:19.029Z</time></trkpt><trkpt lat="43.86155" lon="11.1871975"><ele>103.5</ele><time>2026-04-21T16:35:20.013Z</time></trkpt><trkpt lat="43.861464" lon="11.1870512"><ele>102.25</ele><time>2026-04-21T16:35:21.024Z</time></trkpt><trkpt lat="43.8613776" lon="11.1869118"><ele>101.0</ele><time>2026-04-21T16:35:21.95Z</time></trkpt><trkpt lat="43.8612878" lon="11.1867714"><ele>101.0</ele><time>2026-04-21T16:35:22.962Z</time></trkpt><trkpt lat="43.8612048" lon="11.1866309"><ele>101.0</ele><time>2026-04-21T16:35:23.957Z</time></trkpt><trkpt lat="43.861126" lon="11.1864851"><ele>101.0</ele><time>2026-04-21T16:35:25.076Z</time></trkpt><trkpt lat="43.8610442" lon="11.1863518"><ele>101.0</ele><time>2026-04-21T16:35:26.016Z</time></trkpt><trkpt lat="43.8609789" lon="11.1862258"><ele>101.0</ele><time>2026-04-21T16:35:26.956Z</time></trkpt><trkpt lat="43.8609213" lon="11.1860969"><ele>101.0</ele><time>2026-04-21T16:35:27.955Z</time></trkpt><trkpt lat="43.8608737" lon="11.1859565"><ele>101.0</ele><time>2026-04-21T16:35:28.955Z</time></trkpt><trkpt lat="43.860826" lon="11.1857998"><ele>101.0</ele><time>2026-04-21T16:35:29.952Z</time></trkpt><trkpt lat="43.8607627" lon="11.1856389"><ele>100.5</ele><time>2026-04-21T16:35:30.962Z</time></trkpt><trkpt lat="43.8606885" lon="11.1854731"><ele>100.0</ele><time>2026-04-21T16:35:31.968Z</time></trkpt><trkpt lat="43.860609" lon="11.1853077"><ele>99.5</ele><time>2026-04-21T16:35:32.957Z</time></trkpt><trkpt lat="43.8605264" lon="11.1851415"><ele>99.0</ele><time>2026-04-21T16:35:33.957Z</time></trkpt><trkpt lat="43.8604375" lon="11.1849757"><ele>98.33333333333334</ele><time>2026-04-21T16:35:34.957Z</time></trkpt><trkpt lat="43.8603416" lon="11.1848275"><ele>97.66666666666667</ele><time>2026-04-21T16:35:35.958Z</time></trkpt><trkpt lat="43.8602183" lon="11.1846919"><ele>97.0</ele><time>2026-04-21T16:35:36.956Z</time></trkpt><trkpt lat="43.8600834" lon="11.1845689"><ele>97.0</ele><time>2026-04-21T16:35:37.954Z</time></trkpt><trkpt lat="43.8599546" lon="11.1844402"><ele>97.0</ele><time>2026-04-21T16:35:38.959Z</time></trkpt><trkpt lat="43.8598294" lon="11.1843092"><ele>97.0</ele><time>2026-04-21T16:35:39.957Z</time></trkpt><trkpt lat="43.859711" lon="11.1841883"><ele>97.0</ele><time>2026-04-21T16:35:40.956Z</time></trkpt><trkpt lat="43.8595942" lon="11.1840663"><ele>97.0</ele><time>2026-04-21T16:35:41.953Z</time></trkpt><trkpt lat="43.8594951" lon="11.1839524"><ele>97.0</ele><time>2026-04-21T16:35:42.961Z</time></trkpt><trkpt lat="43.8593959" lon="11.1838407"><ele>97.0</ele><time>2026-04-21T16:35:43.954Z</time></trkpt><trkpt lat="43.8592965" lon="11.1837274"><ele>96.25</ele><time>2026-04-21T16:35:44.955Z</time></trkpt><trkpt lat="43.8592011" lon="11.1836282"><ele>95.5</ele><time>2026-04-21T16:35:45.959Z</time></trkpt><trkpt lat="43.8591042" lon="11.1835389"><ele>94.75</ele><time>2026-04-21T16:35:46.957Z</time></trkpt><trkpt lat="43.8590123" lon="11.1834468"><ele>94.0</ele><time>2026-04-21T16:35:47.954Z</time></trkpt><trkpt lat="43.8589171" lon="11.18335"><ele>94.0</ele><time>2026-04-21T16:35:48.955Z</time></trkpt><trkpt lat="43.8588246" lon="11.1832584"><ele>94.0</ele><time>2026-04-21T16:35:49.959Z</time></trkpt><trkpt lat="43.858735" lon="11.1831687"><ele>94.0</ele><time>2026-04-21T16:35:51.015Z</time></trkpt><trkpt lat="43.8586432" lon="11.1830748"><ele>94.0</ele><time>2026-04-21T16:35:51.956Z</time></trkpt><trkpt lat="43.8585499" lon="11.1829801"><ele>92.75</ele><time>2026-04-21T16:35:52.952Z</time></trkpt><trkpt lat="43.8584486" lon="11.1828879"><ele>91.5</ele><time>2026-04-21T16:35:53.957Z</time></trkpt><trkpt lat="43.8583474" lon="11.1827946"><ele>90.25</ele><time>2026-04-21T16:35:55.018Z</time></trkpt><trkpt lat="43.8582423" lon="11.1827063"><ele>89.0</ele><time>2026-04-21T16:35:55.969Z</time></trkpt><trkpt lat="43.85813" lon="11.1826242"><ele>89.0</ele><time>2026-04-21T16:35:56.954Z</time></trkpt><trkpt lat="43.8580185" lon="11.1825438"><ele>89.0</ele><time>2026-04-21T16:35:57.952Z</time></trkpt><trkpt lat="43.8579136" lon="11.1824643"><ele>89.0</ele><time>2026-04-21T16:35:58.955Z</time></trkpt><trkpt lat="43.8578125" lon="11.1823781"><ele>89.0</ele><time>2026-04-21T16:35:59.962Z</time></trkpt><trkpt lat="43.85771" lon="11.1822969"><ele>88.80000000000001</ele><time>2026-04-21T16:36:00.958Z</time></trkpt><trkpt lat="43.8576142" lon="11.1822104"><ele>88.60000000000001</ele><time>2026-04-21T16:36:02.015Z</time></trkpt><trkpt lat="43.8575295" lon="11.1821126"><ele>88.4</ele><time>2026-04-21T16:36:02.958Z</time></trkpt><trkpt lat="43.8574551" lon="11.1820087"><ele>88.2</ele><time>2026-04-21T16:36:03.961Z</time></trkpt><trkpt lat="43.8573752" lon="11.1819026"><ele>88.0</ele><time>2026-04-21T16:36:04.961Z</time></trkpt><trkpt lat="43.8573029" lon="11.1817964"><ele>88.0</ele><time>2026-04-21T16:36:05.979Z</time></trkpt><trkpt lat="43.8572327" lon="11.1816925"><ele>88.0</ele><time>2026-04-21T16:36:06.966Z</time></trkpt><trkpt lat="43.8571827" lon="11.1815784"><ele>88.0</ele><time>2026-04-21T16:36:07.96Z</time></trkpt><trkpt lat="43.8571555" lon="11.1814426"><ele>88.0</ele><time>2026-04-21T16:36:09.013Z</time></trkpt><trkpt lat="43.8571459" lon="11.1812856"><ele>88.0</ele><time>2026-04-21T16:36:10.029Z</time></trkpt><trkpt lat="43.8571467" lon="11.1811125"><ele>86.5</ele><time>2026-04-21T16:36:11.029Z</time></trkpt><trkpt lat="43.8571506" lon="11.1809283"><ele>85.0</ele><time>2026-04-21T16:36:11.969Z</time></trkpt><trkpt lat="43.8571495" lon="11.1807366"><ele>83.5</ele><time>2026-04-21T16:36:12.954Z</time></trkpt><trkpt lat="43.8571448" lon="11.1805388"><ele>82.0</ele><time>2026-04-21T16:36:13.955Z</time></trkpt><trkpt lat="43.8571382" lon="11.1803475"><ele>82.0</ele><time>2026-04-21T16:36:15.042Z</time></trkpt><trkpt lat="43.8571305" lon="11.1801507"><ele>82.0</ele><time>2026-04-21T16:36:15.95Z</time></trkpt><trkpt lat="43.8571246" lon="11.1799723"><ele>82.0</ele><time>2026-04-21T16:36:16.961Z</time></trkpt><trkpt lat="43.8571213" lon="11.1797985"><ele>82.0</ele><time>2026-04-21T16:36:17.947Z</time></trkpt><trkpt lat="43.8571179" lon="11.1796343"><ele>81.39999999999999</ele><time>2026-04-21T16:36:18.941Z</time></trkpt><trkpt lat="43.857113" lon="11.1794911"><ele>80.8</ele><time>2026-04-21T16:36:19.936Z</time></trkpt><trkpt lat="43.8571125" lon="11.1793432"><ele>80.2</ele><time>2026-04-21T16:36:20.944Z</time></trkpt><trkpt lat="43.8571151" lon="11.1792069"><ele>79.6</ele><time>2026-04-21T16:36:21.949Z</time></trkpt><trkpt lat="43.8571194" lon="11.1790833"><ele>79.0</ele><time>2026-04-21T16:36:22.952Z</time></trkpt><trkpt lat="43.8571214" lon="11.178961"><ele>78.5</ele><time>2026-04-21T16:36:23.959Z</time></trkpt><trkpt lat="43.8571253" lon="11.1788547"><ele>78.0</ele><time>2026-04-21T16:36:24.955Z</time></trkpt><trkpt lat="43.8571365" lon="11.1787414"><ele>77.5</ele><time>2026-04-21T16:36:26.945Z</time></trkpt><trkpt lat="43.8571354" lon="11.1786343"><ele>77.0</ele><time>2026-04-21T16:36:30.959Z</time></trkpt><trkpt lat="43.8570643" lon="11.1785998"><ele>76.5</ele><time>2026-04-21T16:36:32.955Z</time></trkpt><trkpt lat="43.8569956" lon="11.1786264"><ele>76.0</ele><time>2026-04-21T16:36:33.955Z</time></trkpt><trkpt lat="43.8569235" lon="11.1786605"><ele>76.0</ele><time>2026-04-21T16:36:34.955Z</time></trkpt><trkpt lat="43.8568452" lon="11.1786862"><ele>76.0</ele><time>2026-04-21T16:36:35.952Z</time></trkpt><trkpt lat="43.8567657" lon="11.1787127"><ele>76.0</ele><time>2026-04-21T16:36:36.961Z</time></trkpt><trkpt lat="43.8566753" lon="11.1787386"><ele>76.0</ele><time>2026-04-21T16:36:37.957Z</time></trkpt><trkpt lat="43.8565752" lon="11.1787647"><ele>76.0</ele><time>2026-04-21T16:36:38.956Z</time></trkpt><trkpt lat="43.8564788" lon="11.178806"><ele>75.6</ele><time>2026-04-21T16:36:39.954Z</time></trkpt><trkpt lat="43.8563813" lon="11.1788506"><ele>75.19999999999999</ele><time>2026-04-21T16:36:40.961Z</time></trkpt><trkpt lat="43.8562846" lon="11.1788935"><ele>74.80000000000001</ele><time>2026-04-21T16:36:41.955Z</time></trkpt><trkpt lat="43.8561871" lon="11.1789127"><ele>74.4</ele><time>2026-04-21T16:36:42.961Z</time></trkpt><trkpt lat="43.8560904" lon="11.1789412"><ele>74.0</ele><time>2026-04-21T16:36:43.952Z</time></trkpt><trkpt lat="43.855997" lon="11.1789583"><ele>74.0</ele><time>2026-04-21T16:36:44.958Z</time></trkpt><trkpt lat="43.855897" lon="11.1789785"><ele>74.0</ele><time>2026-04-21T16:36:45.958Z</time></trkpt><trkpt lat="43.8557977" lon="11.1789934"><ele>74.0</ele><time>2026-04-21T16:36:46.953Z</time></trkpt><trkpt lat="43.8557055" lon="11.1789938"><ele>74.0</ele><time>2026-04-21T16:36:47.952Z</time></trkpt><trkpt lat="43.8556081" lon="11.1789833"><ele>74.0</ele><time>2026-04-21T16:36:48.958Z</time></trkpt><trkpt lat="43.8555093" lon="11.1789805"><ele>74.0</ele><time>2026-04-21T16:36:49.959Z</time></trkpt><trkpt lat="43.855404" lon="11.178994"><ele>74.0</ele><time>2026-04-21T16:36:51.036Z</time></trkpt><trkpt lat="43.8553018" lon="11.1790086"><ele>74.0</ele><time>2026-04-21T16:36:52.012Z</time></trkpt><trkpt lat="43.8551963" lon="11.1790194"><ele>74.0</ele><time>2026-04-21T16:36:52.958Z</time></trkpt><trkpt lat="43.855096" lon="11.1790382"><ele>74.0</ele><time>2026-04-21T16:36:53.961Z</time></trkpt><trkpt lat="43.8550091" lon="11.1790563"><ele>73.8</ele><time>2026-04-21T16:36:54.957Z</time></trkpt><trkpt lat="43.8548926" lon="11.1791582"><ele>73.60000000000001</ele><time>2026-04-21T16:36:57.04Z</time></trkpt><trkpt lat="43.8548712" lon="11.1792741"><ele>73.4</ele><time>2026-04-21T16:36:57.958Z</time></trkpt><trkpt lat="43.8548589" lon="11.1793919"><ele>73.2</ele><time>2026-04-21T16:36:58.965Z</time></trkpt><trkpt lat="43.8548382" lon="11.1794982"><ele>73.0</ele><time>2026-04-21T16:36:59.972Z</time></trkpt><trkpt lat="43.8547913" lon="11.1795665"><ele>73.0</ele><time>2026-04-21T16:37:00.989Z</time></trkpt><trkpt lat="43.8547044" lon="11.1795823"><ele>73.0</ele><time>2026-04-21T16:37:01.965Z</time></trkpt><trkpt lat="43.8545919" lon="11.1795864"><ele>73.0</ele><time>2026-04-21T16:37:02.973Z</time></trkpt><trkpt lat="43.8544879" lon="11.179637"><ele>73.0</ele><time>2026-04-21T16:37:03.962Z</time></trkpt><trkpt lat="43.8543842" lon="11.1797121"><ele>73.0</ele><time>2026-04-21T16:37:05.04Z</time></trkpt><trkpt lat="43.8542997" lon="11.1797871"><ele>74.66666666666666</ele><time>2026-04-21T16:37:05.953Z</time></trkpt><trkpt lat="43.8542173" lon="11.1798612"><ele>76.33333333333333</ele><time>2026-04-21T16:37:06.955Z</time></trkpt><trkpt lat="43.8541475" lon="11.179929"><ele>78.0</ele><time>2026-04-21T16:37:07.952Z</time></trkpt><trkpt lat="43.8540804" lon="11.179983"><ele>79.66666666666667</ele><time>2026-04-21T16:37:08.954Z</time></trkpt><trkpt lat="43.8540279" lon="11.1800469"><ele>81.33333333333334</ele><time>2026-04-21T16:37:09.955Z</time></trkpt><trkpt lat="43.8539399" lon="11.1801317"><ele>83.0</ele><time>2026-04-21T16:37:12.033Z</time></trkpt><trkpt lat="43.8538853" lon="11.180192"><ele>83.0</ele><time>2026-04-21T16:37:15.961Z</time></trkpt><trkpt lat="43.8538462" lon="11.1802943"><ele>83.0</ele><time>2026-04-21T16:37:26.954Z</time></trkpt><trkpt lat="43.8537777" lon="11.1803968"><ele>83.0</ele><time>2026-04-21T16:37:28.961Z</time></trkpt><trkpt lat="43.8536998" lon="11.1805263"><ele>83.0</ele><time>2026-04-21T16:37:30.954Z</time></trkpt><trkpt lat="43.8536255" lon="11.1806543"><ele>83.0</ele><time>2026-04-21T16:37:32.966Z</time></trkpt><trkpt lat="43.853589" lon="11.1807323"><ele>83.57142857142857</ele><time>2026-04-21T16:37:33.964Z</time></trkpt><trkpt lat="43.8535453" lon="11.1808117"><ele>84.14285714285715</ele><time>2026-04-21T16:37:34.977Z</time></trkpt><trkpt lat="43.853492" lon="11.1808822"><ele>84.71428571428572</ele><time>2026-04-21T16:37:36.029Z</time></trkpt><trkpt lat="43.8534553" lon="11.1809683"><ele>85.28571428571428</ele><time>2026-04-21T16:37:37.046Z</time></trkpt><trkpt lat="43.8534186" lon="11.1810627"><ele>85.85714285714286</ele><time>2026-04-21T16:37:37.952Z</time></trkpt><trkpt lat="43.8533877" lon="11.1811537"><ele>86.42857142857143</ele><time>2026-04-21T16:37:38.956Z</time></trkpt><trkpt lat="43.8533538" lon="11.1812524"><ele>87.0</ele><time>2026-04-21T16:37:39.956Z</time></trkpt><trkpt lat="43.8533103" lon="11.1813399"><ele>87.0</ele><time>2026-04-21T16:37:41.042Z</time></trkpt><trkpt lat="43.8532602" lon="11.1814173"><ele>87.0</ele><time>2026-04-21T16:37:42.031Z</time></trkpt><trkpt lat="43.8532026" lon="11.1814978"><ele>87.0</ele><time>2026-04-21T16:37:42.957Z</time></trkpt><trkpt lat="43.8531417" lon="11.1815836"><ele>87.0</ele><time>2026-04-21T16:37:43.957Z</time></trkpt><trkpt lat="43.8530772" lon="11.1816765"><ele>87.0</ele><time>2026-04-21T16:37:44.959Z</time></trkpt><trkpt lat="43.8530279" lon="11.1817747"><ele>87.0</ele><time>2026-04-21T16:37:46.045Z</time></trkpt><trkpt lat="43.8529948" lon="11.1818695"><ele>86.8</ele><time>2026-04-21T16:37:46.965Z</time></trkpt><trkpt lat="43.8529534" lon="11.181991"><ele>86.6</ele><time>2026-04-21T16:37:48.964Z</time></trkpt><trkpt lat="43.8528824" lon="11.1820416"><ele>86.39999999999999</ele><time>2026-04-21T16:37:51.032Z</time></trkpt><trkpt lat="43.8528016" lon="11.1821011"><ele>86.19999999999999</ele><time>2026-04-21T16:37:52.96Z</time></trkpt><trkpt lat="43.852686" lon="11.1821631"><ele>86.0</ele><time>2026-04-21T16:37:54.947Z</time></trkpt><trkpt lat="43.8525863" lon="11.1822175"><ele>86.0</ele><time>2026-04-21T16:37:56.949Z</time></trkpt><trkpt lat="43.8525015" lon="11.1822877"><ele>86.0</ele><time>2026-04-21T16:37:58.954Z</time></trkpt><trkpt lat="43.852414" lon="11.1823457"><ele>86.0</ele><time>2026-04-21T16:38:01.017Z</time></trkpt><trkpt lat="43.852337" lon="11.1824368"><ele>86.0</ele><time>2026-04-21T16:38:02.958Z</time></trkpt><trkpt lat="43.8522359" lon="11.1823958"><ele>86.0</ele><time>2026-04-21T16:38:05.968Z</time></trkpt><trkpt lat="43.85216" lon="11.1822798"><ele>86.0</ele><time>2026-04-21T16:38:07.957Z</time></trkpt><trkpt lat="43.8520787" lon="11.1821518"><ele>86.0</ele><time>2026-04-21T16:38:10.031Z</time></trkpt><trkpt lat="43.8520366" lon="11.1820806"><ele>86.0</ele><time>2026-04-21T16:38:10.973Z</time></trkpt><trkpt lat="43.8519851" lon="11.1820204"><ele>86.0</ele><time>2026-04-21T16:38:11.949Z</time></trkpt><trkpt lat="43.8519135" lon="11.181991"><ele>86.0</ele><time>2026-04-21T16:38:12.956Z</time></trkpt><trkpt lat="43.8518215" lon="11.1820353"><ele>86.0</ele><time>2026-04-21T16:38:15.032Z</time></trkpt><trkpt lat="43.8517695" lon="11.1820878"><ele>78.0</ele><time>2026-04-21T16:38:17.947Z</time></trkpt></trkseg></trk></gpx>